[[{"header":{"parameterUnit":"m.s-1","parameterCategory":1,"la1":31.0,"la2":29.5877,"lo1":-88.7671,"lo2":-86.6584,"dy":0.0162,"dx":0.0185,"nx":115,"ny":88,"refTime":"2026-04-02T00:00:00:Z","depth":0,"parameterNumber":2,"parameterNumberName":"U-component_of_WINDS"},"data":[0.0,0.0,0.0,0.0,0.0,0.0,0.0,0.0,0.0,0.0,0.0,0.0,0.0,0.0,0.0,0.0,0.0,0.0,0.0,0.0,0.0,0.0,0.0,0.0,0.0,0.0,0.0,0.0,0.0,0.0,0.0,0.0,0.0,0.0,0.0,0.0,0.0,0.0,0.0,0.0,0.0,0.0,0.0,0.0,0.0,0.0,0.0,0.0,0.0,0.0,0.0,0.0,0.0,0.0,0.0,0.0,0.0,0.0,0.0,0.0,0.0,0.0,0.0,0.0,0.0,0.0,0.0,0.0,0.0,0.0,0.0,0.0,0.0,0.0,0.0,0.0,0.0,0.0,0.0,0.0,0.0,0.0,0.0,0.0,0.0,0.0,0.0,0.0,0.0,0.0,0.0,0.0,0.0,0.0,0.0,0.0,0.0,0.0,0.0,0.0,0.0,0.0,0.0,0.0,0.0,0.0,0.0,0.0,0.0,0.0,0.0,0.0,0.0,0.0,0.0,0.0,0.0,0.0,0.0,0.0,0.0,0.0,0.0,0.0,0.0,0.0,0.0,0.0,0.0,0.0,0.0,0.0,0.0,0.0,0.0,0.0,0.0,0.0,0.0,0.0,0.0,0.0,0.0,0.0,0.0,0.0,0.0,0.0,0.0,0.0,0.0,0.0,0.0,0.0,0.0,0.0,0.0,0.0,0.0,0.0,0.0,0.0,0.0,0.0,0.0,0.0,0.0,0.0,0.0,0.0,0.0,0.0,0.0,0.0,0.0,0.0,0.0,0.0,0.0,0.0,0.0,0.0,0.0,0.0,0.0,0.0,0.0,0.0,0.0,0.0,0.0,0.0,0.0,0.0,0.0,0.0,0.0,0.0,0.0,0.0,0.0,0.0,0.0,0.0,0.0,0.0,0.0,0.0,0.0,0.0,0.0,0.0,0.0,0.0,0.0,0.0,0.0,0.0,0.0,0.0,0.0,0.0,0.0,0.0,0.0,0.0,0.0,0.0,0.0,0.0,0.0,0.0,0.0,0.0,0.0,0.0,0.0,0.0,0.0,0.0,0.0,0.0,0.0,0.0,0.0,0.0,0.0,0.0,0.0,0.0,0.0,0.0,0.0,0.0,0.0,0.0,0.0,0.0,0.0,0.0,0.0,0.0,0.0,0.0,0.0,0.0,0.0,0.0,0.0,0.0,0.0,0.0,0.0,0.0,0.0,0.0,0.0,0.0,0.0,0.0,0.0,0.0,0.0,0.0,0.0,0.0,0.0,0.0,0.0,0.0,0.0,0.0,0.0,0.0,0.0,0.0,0.0,0.0,0.0,0.0,0.0,0.0,0.0,0.0,0.0,0.0,0.0,0.0,0.0,0.0,0.0,0.0,0.0,0.0,0.0,0.0,0.0,0.0,0.0,0.0,0.0,0.0,0.0,0.0,0.0,0.0,0.0,0.0,0.0,0.0,0.0,0.0,0.0,0.0,0.0,0.0,0.0,0.0,0.0,0.0,0.0,0.0,0.0,0.0,0.0,0.0,0.0,0.0,0.0,0.0,0.0,0.0,0.0,0.0,0.0,0.0,0.0,0.0,0.0,0.0,0.0,0.0,0.0,0.0,0.0,0.0,0.0,0.0,0.0,0.0,0.0,0.0,0.0,0.0,0.0,0.0,0.0,0.0,0.0,0.0,0.0,0.0,0.0,0.0,0.0,0.0,0.0,0.0,0.0,0.0,0.0,0.0,0.0,0.0,0.0,0.0,0.0,0.0,0.0,0.0,0.0,0.0,0.0,0.0,0.0,0.0,0.0,0.0,0.0,0.0,0.0,0.0,0.0,0.0,0.0,0.0,0.0,0.0,0.0,0.0,0.0,0.0,0.0,0.0,0.0,0.0,0.0,0.0,0.0,0.0,0.0,0.0,0.0,0.0,0.0,0.0,0.0,0.0,0.0,0.0,0.0,0.0,0.0,0.0,0.0,0.0,0.0,0.0,0.0,0.0,0.0,0.0,0.0,0.0,0.0,0.0,0.0,0.0,0.0,0.0,0.0,0.0,0.0,0.0,0.0,0.0,0.0,0.0,0.0,0.0,0.0,0.0,0.0,0.0,0.0,0.0,0.0,0.0,0.0,0.0,0.0,0.0,0.0,0.0,0.0,0.0,0.0,0.0,0.0,0.0,0.0,0.0,0.0,0.0,0.0,0.0,0.0,0.0,0.0,0.0,0.0,0.0,0.0,0.0,0.0,0.0,0.0,0.0,0.0,0.0,0.0,0.0,0.0,0.0,0.0,0.0,0.0,0.0,0.0,0.0,0.0,0.0,0.0,0.0,0.0,0.0,0.0,0.0,0.0,0.0,0.0,0.0,0.0,0.0,0.0,0.0,0.0,0.0,0.0,0.0,0.0,0.0,0.0,0.0,0.0,0.0,0.0,0.0,0.0,0.0,0.0,0.0,0.0,0.0,0.0,0.0,0.0,0.0,0.0,0.0,0.0,0.0,0.0,0.0,0.0,0.0,0.0,0.0,0.0,0.0,0.0,0.0,0.0,0.0,0.0,0.0,0.0,0.0,0.0,0.0,0.0,0.0,0.0,0.0,0.0,0.0,0.0,0.0,0.0,0.0,0.0,0.0,0.0,0.0,0.0,0.0,0.0,0.0,0.0,0.0,0.0,0.0,0.0,0.0,0.0,0.0,0.0,0.0,0.0,0.0,0.0,0.0,0.0,0.0,0.0,0.0,0.0,0.0,0.0,0.0,0.0,0.0,0.0,0.0,0.0,0.0,0.0,0.0,0.0,0.0,0.0,0.0,0.0,0.0,0.0,0.0,0.0,0.0,0.0,0.0,0.0,0.0,0.0,0.0,0.0,0.0,0.0,0.0,0.0,0.0,0.0,0.0,0.0,0.0,0.0,0.0,0.0,0.0,0.0,0.0,0.0,0.0,0.0,0.0,0.0,0.0,0.0,0.0,0.0,0.0,0.0,0.0,0.0,0.0,0.0,0.0,0.0,0.0,0.0,0.0,0.0,0.0,0.0,0.0,0.0,0.0,0.0,0.0,0.0,0.0,0.0,0.0,0.0,0.0,0.0,0.0,0.0,0.0,0.0,0.0,0.0,0.0,0.0,0.0,0.0,0.0,0.0,0.0,0.0,0.0,0.0,0.0,0.0,0.0,0.0,0.0,0.0,0.0,0.0,0.0,0.0,0.0,0.0,0.0,0.0,0.0,0.0,0.0,0.0,0.0,0.0,0.0,0.0,0.0,0.0,0.0,0.0,0.0,0.0,0.0,0.0,0.0,0.0,0.0,0.0,0.0,0.0,0.0,0.0,0.0,0.0,0.0,0.0,0.0,0.0,0.0,0.0,0.0,0.0,0.0,0.0,0.0,0.0,0.0,0.0,0.0,0.0,0.0,0.0,0.0,0.0,0.0,0.0,0.0,0.0,0.0,0.0,0.0,0.0,0.0,0.0,0.0,0.0,0.0,0.0,0.0,0.0,0.0,0.0,0.0,0.0,0.0,0.0,0.0,0.0,0.0,0.0,0.0,0.0,0.0,0.0,0.0,0.0,0.0,0.0,0.0,0.0,0.0,0.0,0.0,0.0,0.0,0.0,0.0,0.0,0.0,0.0,0.0,0.0,0.0,0.0,0.0,0.0,0.0,0.0,0.0,0.0,0.0,0.0,0.0,0.0,0.0,0.0,0.0,0.0,0.0,0.0,0.0,0.0,0.0,0.0,0.0,0.0,0.0,0.0,0.0,0.0,0.0,0.0,0.0,0.0,0.0,0.0,0.0,0.0,0.0,0.0,0.0,0.0,0.0,0.0,0.0,0.0,0.0,0.0,0.0,0.0,0.0,0.0,0.0,0.0,0.0,0.0,0.0,0.0,0.0,0.0,0.0,0.0,0.0,0.0,0.0,0.0,0.0,0.0,0.0,0.0,0.0,0.0,0.0,0.0,0.0,0.0,0.0,0.0,0.0,0.0,0.0,0.0,0.0,0.0,0.0,0.0,0.0,0.0,0.0,0.0,0.0,0.0,0.0,0.0,0.0,0.0,0.0,0.0,0.0,0.0,0.0,0.0,0.0,0.0,0.0,0.0,0.0,0.0,0.0,0.0,0.0,0.0,0.0,0.0,0.0,0.0,0.0,0.0,0.0,0.0,0.0,0.0,0.0,0.0,0.0,0.0,0.0,0.0,0.0,0.0,0.0,0.0,0.0,0.0,0.0,0.0,0.0,0.0,0.0,0.0,0.0,0.0,0.0,0.0,0.0,0.0,0.0,0.0,0.0,-1.7368,0.0,0.0,0.0,0.0,0.0,0.0,0.0,0.0,0.0,0.0,0.0,0.0,0.0,0.0,0.0,0.0,0.0,0.0,0.0,0.0,0.0,0.0,0.0,0.0,0.0,0.0,0.0,0.0,0.0,0.0,0.0,0.0,0.0,0.0,0.0,0.0,0.0,0.0,0.0,0.0,0.0,0.0,0.0,0.0,0.0,0.0,0.0,0.0,0.0,0.0,0.0,0.0,0.0,0.0,0.0,0.0,0.0,0.0,0.0,0.0,0.0,0.0,0.0,0.0,0.0,0.0,0.0,0.0,0.0,0.0,0.0,0.0,0.0,0.0,0.0,0.0,0.0,0.0,0.0,0.0,0.0,0.0,0.0,0.0,0.0,0.0,0.0,0.0,0.0,0.0,0.0,0.0,0.0,0.0,0.0,0.0,0.0,0.0,0.0,0.0,0.0,0.0,0.0,0.0,0.0,0.0,0.0,0.0,0.0,0.0,-1.7175,-1.7486,-1.7199,-1.7113,-1.7296,0.0,0.0,0.0,0.0,0.0,0.0,0.0,0.0,0.0,0.0,0.0,0.0,0.0,0.0,0.0,0.0,0.0,0.0,0.0,0.0,0.0,0.0,0.0,0.0,0.0,0.0,0.0,0.0,0.0,0.0,0.0,0.0,0.0,0.0,0.0,0.0,0.0,0.0,0.0,0.0,0.0,0.0,0.0,0.0,0.0,0.0,0.0,0.0,0.0,0.0,0.0,0.0,0.0,0.0,0.0,0.0,0.0,0.0,0.0,0.0,0.0,0.0,0.0,0.0,0.0,0.0,0.0,0.0,0.0,0.0,0.0,0.0,0.0,0.0,0.0,0.0,0.0,0.0,0.0,0.0,0.0,0.0,0.0,0.0,0.0,0.0,0.0,0.0,0.0,0.0,0.0,0.0,0.0,0.0,0.0,0.0,0.0,0.0,0.0,0.0,0.0,0.0,0.0,0.0,0.0,0.0,0.0,0.0,0.0,0.0,0.0,0.0,-1.7171,-1.7042,-1.7266,0.0,0.0,0.0,0.0,0.0,0.0,0.0,0.0,0.0,0.0,0.0,0.0,0.0,0.0,0.0,0.0,0.0,0.0,0.0,0.0,0.0,0.0,0.0,0.0,0.0,0.0,0.0,0.0,0.0,0.0,0.0,0.0,0.0,0.0,0.0,0.0,0.0,0.0,0.0,0.0,0.0,0.0,0.0,0.0,0.0,0.0,0.0,0.0,0.0,0.0,0.0,0.0,0.0,0.0,0.0,0.0,0.0,0.0,0.0,0.0,0.0,0.0,0.0,0.0,0.0,0.0,0.0,0.0,0.0,0.0,0.0,0.0,0.0,0.0,0.0,0.0,0.0,0.0,0.0,0.0,0.0,0.0,0.0,0.0,0.0,0.0,0.0,0.0,0.0,0.0,0.0,0.0,0.0,0.0,0.0,0.0,0.0,0.0,0.0,0.0,0.0,0.0,0.0,0.0,0.0,0.0,0.0,0.0,0.0,0.0,-1.7099,-1.8583,-1.7758,0.0,-1.7257,0.0,0.0,0.0,0.0,0.0,0.0,0.0,0.0,0.0,0.0,0.0,0.0,0.0,0.0,0.0,0.0,0.0,0.0,0.0,0.0,0.0,0.0,0.0,0.0,0.0,0.0,0.0,0.0,0.0,0.0,0.0,0.0,0.0,0.0,0.0,0.0,0.0,0.0,0.0,0.0,0.0,0.0,0.0,0.0,0.0,0.0,0.0,0.0,0.0,0.0,0.0,0.0,0.0,0.0,0.0,0.0,0.0,0.0,0.0,0.0,0.0,0.0,0.0,0.0,0.0,0.0,0.0,0.0,0.0,0.0,0.0,0.0,0.0,0.0,0.0,0.0,0.0,0.0,0.0,0.0,0.0,0.0,0.0,0.0,0.0,0.0,0.0,0.0,0.0,0.0,0.0,0.0,0.0,0.0,0.0,0.0,0.0,0.0,0.0,0.0,0.0,0.0,0.0,0.0,0.0,0.0,0.0,0.0,0.0,0.0,-1.698,-1.7886,-1.7147,-1.6591,0.0,0.0,0.0,0.0,0.0,0.0,0.0,0.0,0.0,0.0,0.0,0.0,0.0,0.0,0.0,0.0,0.0,0.0,0.0,0.0,0.0,0.0,0.0,0.0,0.0,0.0,0.0,0.0,0.0,0.0,0.0,0.0,0.0,0.0,0.0,0.0,0.0,0.0,0.0,0.0,0.0,0.0,0.0,0.0,0.0,0.0,0.0,0.0,0.0,0.0,0.0,0.0,0.0,0.0,0.0,0.0,0.0,0.0,0.0,0.0,0.0,0.0,0.0,0.0,0.0,0.0,0.0,0.0,0.0,0.0,0.0,0.0,0.0,0.0,0.0,0.0,0.0,0.0,0.0,0.0,0.0,0.0,0.0,0.0,0.0,0.0,0.0,0.0,0.0,0.0,0.0,0.0,0.0,0.0,0.0,0.0,0.0,0.0,0.0,0.0,0.0,0.0,0.0,0.0,0.0,0.0,0.0,0.0,0.0,0.0,-1.6925,-1.6834,-1.7088,-1.6841,-1.6314,-1.5559,0.0,0.0,0.0,0.0,0.0,0.0,0.0,0.0,0.0,0.0,0.0,0.0,0.0,0.0,0.0,0.0,0.0,0.0,0.0,0.0,0.0,0.0,0.0,0.0,0.0,0.0,0.0,0.0,0.0,0.0,0.0,0.0,0.0,0.0,0.0,0.0,0.0,0.0,0.0,0.0,0.0,0.0,0.0,0.0,0.0,0.0,0.0,0.0,0.0,0.0,0.0,0.0,0.0,0.0,0.0,0.0,0.0,0.0,0.0,0.0,0.0,0.0,0.0,0.0,0.0,0.0,0.0,0.0,0.0,0.0,0.0,0.0,0.0,0.0,0.0,0.0,0.0,0.0,0.0,0.0,0.0,0.0,0.0,0.0,0.0,0.0,0.0,0.0,0.0,0.0,0.0,0.0,0.0,0.0,0.0,0.0,0.0,0.0,0.0,0.0,0.0,0.0,0.0,0.0,0.0,0.0,0.0,0.0,0.0,-1.7815,-1.6697,-1.6787,-1.7326,-1.6757,0.0,0.0,0.0,0.0,0.0,0.0,0.0,0.0,0.0,0.0,0.0,0.0,0.0,0.0,0.0,0.0,0.0,0.0,0.0,0.0,0.0,0.0,0.0,0.0,0.0,0.0,0.0,0.0,0.0,0.0,0.0,0.0,0.0,0.0,0.0,0.0,0.0,0.0,0.0,0.0,0.0,0.0,0.0,0.0,0.0,0.0,0.0,0.0,0.0,0.0,0.0,0.0,0.0,0.0,0.0,0.0,0.0,0.0,0.0,0.0,0.0,0.0,0.0,0.0,0.0,0.0,0.0,0.0,0.0,0.0,0.0,0.0,0.0,0.0,0.0,0.0,0.0,0.0,0.0,0.0,0.0,0.0,0.0,0.0,0.0,0.0,0.0,0.0,0.0,0.0,0.0,0.0,0.0,0.0,0.0,0.0,0.0,0.0,0.0,0.0,0.0,0.0,0.0,0.0,0.0,0.0,0.0,0.0,0.0,-1.762,-1.7046,-1.7115,-1.7861,-1.6592,-1.571,0.0,0.0,0.0,0.0,0.0,0.0,0.0,0.0,0.0,0.0,0.0,0.0,0.0,0.0,0.0,0.0,0.0,0.0,0.0,0.0,0.0,0.0,0.0,0.0,0.0,0.0,0.0,0.0,0.0,0.0,0.0,0.0,0.0,0.0,0.0,0.0,0.0,0.0,0.0,0.0,0.0,0.0,0.0,0.0,0.0,0.0,0.0,0.0,0.0,0.0,0.0,0.0,0.0,0.0,0.0,0.0,0.0,0.0,0.0,0.0,0.0,0.0,0.0,0.0,0.0,0.0,0.0,0.0,0.0,0.0,0.0,0.0,0.0,0.0,0.0,0.0,0.0,0.0,0.0,0.0,0.0,0.0,0.0,0.0,0.0,0.0,0.0,0.0,0.0,0.0,0.0,0.0,0.0,0.0,0.0,0.0,0.0,0.0,0.0,0.0,0.0,0.0,0.0,0.0,0.0,0.0,0.0,0.0,0.0,-1.6907,0.0,-1.7699,0.0,-1.6248,-1.5141,0.0,0.0,0.0,0.0,0.0,0.0,0.0,0.0,0.0,0.0,0.0,0.0,0.0,0.0,0.0,0.0,0.0,0.0,0.0,0.0,0.0,0.0,0.0,0.0,0.0,0.0,0.0,0.0,0.0,0.0,0.0,0.0,0.0,0.0,0.0,0.0,0.0,0.0,0.0,0.0,0.0,0.0,0.0,0.0,0.0,0.0,0.0,0.0,0.0,0.0,0.0,0.0,0.0,0.0,0.0,0.0,0.0,0.0,0.0,0.0,0.0,0.0,0.0,0.0,0.0,0.0,0.0,0.0,0.0,0.0,0.0,0.0,0.0,0.0,0.0,0.0,0.0,0.0,0.0,0.0,0.0,0.0,0.0,0.0,0.0,0.0,0.0,0.0,0.0,0.0,0.0,0.0,0.0,0.0,0.0,0.0,0.0,0.0,0.0,0.0,0.0,0.0,0.0,0.0,0.0,0.0,0.0,0.0,-1.7273,-1.8161,-1.9088,-1.842,-1.6008,-1.6383,-1.5173,0.0,0.0,0.0,0.0,0.0,0.0,0.0,0.0,0.0,0.0,0.0,0.0,0.0,0.0,0.0,0.0,0.0,0.0,0.0,0.0,0.0,0.0,0.0,0.0,0.0,0.0,0.0,0.0,0.0,0.0,0.0,0.0,0.0,0.0,0.0,0.0,0.0,0.0,0.0,0.0,0.0,0.0,0.0,0.0,0.0,0.0,0.0,0.0,0.0,0.0,0.0,0.0,0.0,0.0,0.0,0.0,0.0,0.0,0.0,0.0,0.0,0.0,0.0,0.0,0.0,0.0,0.0,0.0,0.0,0.0,0.0,0.0,0.0,0.0,0.0,0.0,0.0,0.0,0.0,0.0,0.0,0.0,0.0,0.0,0.0,0.0,0.0,0.0,0.0,0.0,0.0,0.0,0.0,0.0,0.0,0.0,0.0,0.0,0.0,0.0,0.0,0.0,0.0,0.0,0.0,0.0,0.0,0.0,0.0,-1.7604,-1.8513,-1.8869,-1.845,-1.6922,-1.6009,0.0,0.0,0.0,0.0,0.0,0.0,0.0,0.0,0.0,0.0,0.0,0.0,0.0,0.0,0.0,0.0,0.0,0.0,0.0,0.0,0.0,0.0,0.0,0.0,0.0,0.0,0.0,0.0,0.0,0.0,0.0,0.0,0.0,0.0,0.0,0.0,0.0,0.0,0.0,0.0,0.0,0.0,0.0,0.0,0.0,0.0,0.0,0.0,0.0,0.0,0.0,0.0,0.0,0.0,0.0,0.0,0.0,0.0,0.0,0.0,0.0,0.0,0.0,0.0,0.0,0.0,0.0,0.0,0.0,0.0,0.0,0.0,0.0,0.0,0.0,0.0,0.0,0.0,0.0,0.0,0.0,0.0,0.0,0.0,0.0,0.0,0.0,0.0,0.0,0.0,0.0,0.0,0.0,0.0,0.0,0.0,0.0,0.0,0.0,0.0,0.0,0.0,0.0,0.0,0.0,0.0,0.0,0.0,0.0,-1.921,-2.0038,-2.0378,-2.0079,-1.824,-1.7042,-1.6592,0.0,0.0,0.0,0.0,0.0,0.0,0.0,0.0,0.0,0.0,0.0,0.0,0.0,0.0,0.0,0.0,0.0,0.0,0.0,0.0,0.0,0.0,0.0,0.0,0.0,0.0,0.0,0.0,0.0,0.0,0.0,0.0,0.0,0.0,0.0,0.0,0.0,0.0,0.0,0.0,0.0,0.0,0.0,0.0,0.0,0.0,0.0,0.0,0.0,0.0,0.0,0.0,0.0,0.0,0.0,0.0,0.0,0.0,0.0,0.0,0.0,0.0,0.0,0.0,0.0,0.0,0.0,0.0,0.0,0.0,0.0,0.0,0.0,0.0,0.0,0.0,0.0,0.0,0.0,0.0,0.0,0.0,0.0,0.0,0.0,0.0,0.0,0.0,0.0,0.0,0.0,0.0,0.0,0.0,0.0,0.0,0.0,0.0,0.0,0.0,0.0,0.0,0.0,0.0,0.0,0.0,0.0,0.0,-2.2574,-2.3553,-2.3131,-2.1137,-2.0228,-1.836,0.0,0.0,0.0,0.0,0.0,0.0,0.0,0.0,0.0,0.0,0.0,0.0,0.0,0.0,0.0,0.0,0.0,0.0,0.0,0.0,0.0,0.0,0.0,0.0,0.0,0.0,0.0,0.0,0.0,0.0,0.0,0.0,0.0,0.0,0.0,0.0,0.0,0.0,0.0,0.0,0.0,0.0,0.0,0.0,0.0,0.0,0.0,0.0,0.0,0.0,0.0,0.0,0.0,0.0,0.0,0.0,0.0,0.0,0.0,0.0,0.0,0.0,0.0,0.0,0.0,0.0,0.0,0.0,0.0,0.0,0.0,0.0,0.0,0.0,0.0,0.0,0.0,0.0,0.0,0.0,0.0,0.0,0.0,0.0,0.0,0.0,0.0,0.0,0.0,0.0,0.0,0.0,0.0,0.0,0.0,0.0,0.0,0.0,0.0,0.0,0.0,0.0,0.0,0.0,0.0,0.0,0.0,0.0,0.0,-2.7092,-2.8657,-2.8013,-2.5136,-2.2553,-2.0767,0.0,0.0,0.0,0.0,0.0,0.0,0.0,0.0,0.0,0.0,0.0,0.0,0.0,0.0,0.0,0.0,0.0,0.0,0.0,0.0,0.0,0.0,0.0,0.0,0.0,0.0,0.0,0.0,0.0,0.0,0.0,0.0,0.0,0.0,0.0,0.0,0.0,0.0,0.0,0.0,0.0,0.0,0.0,0.0,0.0,0.0,0.0,0.0,0.0,0.0,0.0,0.0,0.0,0.0,0.0,0.0,0.0,0.0,0.0,0.0,0.0,0.0,0.0,0.0,0.0,0.0,0.0,0.0,0.0,0.0,0.0,0.0,0.0,0.0,0.0,0.0,0.0,0.0,0.0,0.0,0.0,0.0,0.0,0.0,0.0,0.0,0.0,0.0,0.0,0.0,0.0,0.0,0.0,0.0,0.0,0.0,0.0,0.0,0.0,0.0,0.0,0.0,0.0,0.0,0.0,0.0,0.0,0.0,-2.6664,-2.8744,-3.1132,-3.145,-2.9535,-2.6057,-2.3221,0.0,0.0,0.0,0.0,0.0,0.0,0.0,0.0,0.0,0.0,0.0,0.0,0.0,0.0,0.0,0.0,0.0,0.0,0.0,0.0,0.0,0.0,0.0,0.0,0.0,0.0,0.0,0.0,0.0,0.0,0.0,0.0,0.0,0.0,0.0,0.0,0.0,0.0,0.0,0.0,0.0,0.0,0.0,0.0,0.0,0.0,0.0,0.0,0.0,0.0,0.0,0.0,0.0,0.0,0.0,0.0,0.0,0.0,0.0,0.0,0.0,0.0,0.0,0.0,0.0,0.0,0.0,0.0,0.0,0.0,0.0,0.0,0.0,0.0,0.0,0.0,0.0,0.0,0.0,0.0,0.0,0.0,0.0,0.0,0.0,0.0,0.0,0.0,0.0,0.0,0.0,0.0,0.0,0.0,0.0,0.0,0.0,0.0,0.0,0.0,0.0,0.0,0.0,0.0,0.0,0.0,0.0,0.0,-2.7752,-2.9102,-3.2167,-3.3784,-3.3574,-2.9741,-2.5578,0.0,0.0,0.0,0.0,0.0,0.0,0.0,0.0,0.0,0.0,0.0,0.0,0.0,0.0,0.0,0.0,0.0,0.0,0.0,0.0,0.0,0.0,0.0,0.0,0.0,0.0,0.0,0.0,0.0,0.0,0.0,0.0,0.0,0.0,0.0,0.0,0.0,0.0,0.0,0.0,0.0,0.0,0.0,0.0,0.0,0.0,0.0,0.0,0.0,0.0,0.0,0.0,0.0,0.0,0.0,0.0,0.0,0.0,0.0,0.0,0.0,0.0,0.0,0.0,0.0,0.0,0.0,0.0,0.0,0.0,0.0,0.0,0.0,0.0,0.0,0.0,0.0,0.0,0.0,0.0,0.0,0.0,0.0,0.0,0.0,0.0,0.0,0.0,0.0,0.0,0.0,0.0,0.0,0.0,0.0,0.0,0.0,0.0,0.0,0.0,0.0,0.0,0.0,0.0,0.0,0.0,0.0,0.0,-3.0223,-3.2201,-3.46,-3.5609,-3.507,-3.022,-2.6417,0.0,0.0,0.0,0.0,0.0,0.0,0.0,0.0,0.0,0.0,0.0,0.0,0.0,0.0,0.0,0.0,0.0,0.0,0.0,0.0,0.0,0.0,0.0,0.0,0.0,0.0,0.0,0.0,0.0,0.0,0.0,0.0,0.0,0.0,0.0,0.0,0.0,0.0,0.0,0.0,0.0,0.0,0.0,0.0,0.0,0.0,0.0,0.0,-0.768,0.0,0.0,0.0,0.0,0.0,0.0,0.0,0.0,0.0,0.0,0.0,0.0,0.0,0.0,0.0,0.0,0.0,0.0,0.0,0.0,0.0,0.0,0.0,0.0,0.0,0.0,0.0,0.0,0.0,0.0,0.0,0.0,0.0,0.0,0.0,0.0,0.0,0.0,0.0,0.0,0.0,0.0,0.0,0.0,0.0,0.0,0.0,0.0,0.0,0.0,0.0,0.0,0.0,0.0,0.0,0.0,0.0,0.0,0.0,-3.1539,-3.3728,-3.5559,-3.6178,-3.54,-3.1569,-2.779,0.0,0.0,0.0,0.0,0.0,0.0,0.0,0.0,0.0,0.0,0.0,0.0,0.0,0.0,0.0,0.0,0.0,0.0,0.0,0.0,0.0,0.0,0.0,0.0,0.0,0.0,0.0,0.0,0.0,0.0,0.0,0.0,0.0,0.0,0.0,0.0,0.0,0.0,0.0,0.0,0.0,0.0,0.0,0.0,0.0,0.0,0.0,0.0,0.0,0.0,0.0,0.0,0.0,0.0,0.0,0.0,0.0,0.0,0.0,0.0,0.0,0.0,0.0,0.0,0.0,0.0,0.0,0.0,0.0,0.0,0.0,0.0,0.0,0.0,0.0,0.0,0.0,0.0,0.0,0.0,0.0,0.0,0.0,0.0,0.0,0.0,0.0,0.0,0.0,0.0,0.0,0.0,0.0,0.0,0.0,0.0,0.0,0.0,0.0,0.0,0.0,0.0,0.0,0.0,0.0,0.0,0.0,-2.8529,-3.2129,-3.4715,-3.5998,-3.6267,-3.5489,-3.2886,-2.9114,-2.4176,0.0,0.0,0.0,0.0,0.0,0.0,0.0,0.0,0.0,0.0,0.0,0.0,0.0,0.0,0.0,0.0,0.0,0.0,0.0,0.0,0.0,0.0,0.0,0.0,0.0,0.0,0.0,0.0,0.0,0.0,0.0,0.0,0.0,0.0,0.0,0.0,0.0,0.0,-0.8656,-0.9724,0.0,0.0,0.0,0.0,0.0,0.0,0.0,0.0,-0.8934,0.0,0.0,0.0,0.0,0.0,0.0,0.0,0.0,0.0,0.0,0.0,0.0,0.0,0.0,0.0,0.0,0.0,0.0,0.0,0.0,0.0,0.0,0.0,0.0,0.0,0.0,0.0,0.0,0.0,0.0,0.0,0.0,0.0,0.0,0.0,0.0,0.0,0.0,0.0,0.0,0.0,0.0,0.0,0.0,0.0,0.0,0.0,0.0,0.0,0.0,0.0,0.0,0.0,0.0,0.0,0.0,-2.7295,-2.9316,-3.2231,-3.6061,-3.6866,-3.6686,-3.5489,-3.2916,-2.9349,-2.4893,0.0,0.0,0.0,0.0,0.0,0.0,0.0,0.0,0.0,0.0,0.0,0.0,0.0,0.0,0.0,0.0,0.0,0.0,0.0,0.0,0.0,0.0,0.0,0.0,0.0,0.0,0.0,0.0,0.0,0.0,0.0,0.0,0.0,0.0,0.0,0.0,0.0,0.0,0.0,-1.2769,-1.3409,0.0,0.0,0.0,0.0,0.0,0.0,0.0,0.0,-0.9137,0.0,0.0,0.0,0.0,0.0,0.0,0.0,0.0,0.0,0.0,0.0,0.0,0.0,0.0,0.0,0.0,0.0,0.0,0.0,0.0,0.0,0.0,0.0,0.0,0.0,0.0,0.0,0.0,0.0,0.0,0.0,0.0,0.0,0.0,0.0,0.0,0.0,0.0,0.0,0.0,0.0,0.0,0.0,0.0,0.0,0.0,0.0,0.0,0.0,0.0,0.0,0.0,0.0,0.0,0.0,-2.8014,-3.1232,-3.4364,-3.7349,-3.7434,-3.6806,-3.5489,-3.2587,-2.9188,0.0,0.0,0.0,0.0,0.0,0.0,0.0,0.0,0.0,0.0,0.0,0.0,0.0,0.0,0.0,0.0,0.0,0.0,0.0,0.0,0.0,0.0,0.0,0.0,0.0,0.0,0.0,0.0,0.0,0.0,0.0,0.0,0.0,0.0,0.0,0.0,0.0,0.0,0.0,0.0,-1.4214,-1.4585,-1.5257,0.0,0.0,0.0,0.0,0.0,0.0,-1.114,-1.0469,0.0,0.0,0.0,0.0,0.0,0.0,0.0,0.0,0.0,0.0,0.0,0.0,0.0,0.0,0.0,0.0,0.0,0.0,0.0,0.0,0.0,0.0,0.0,0.0,0.0,0.0,0.0,0.0,0.0,0.0,0.0,0.0,0.0,0.0,0.0,0.0,0.0,0.0,0.0,0.0,0.0,0.0,0.0,0.0,0.0,0.0,0.0,0.0,0.0,0.0,0.0,0.0,0.0,0.0,0.0,-2.8479,-3.2739,-3.6063,-3.8247,-3.7734,-3.6806,-3.5489,-3.2138,-2.8846,0.0,0.0,0.0,0.0,0.0,0.0,0.0,0.0,0.0,0.0,0.0,0.0,0.0,0.0,0.0,0.0,0.0,0.0,0.0,0.0,0.0,0.0,0.0,0.0,0.0,0.0,0.0,0.0,0.0,0.0,0.0,0.0,0.0,0.0,0.0,0.0,0.0,0.0,0.0,0.0,0.0,-1.5902,-1.6362,-1.449,0.0,0.0,0.0,0.0,-1.3157,-1.2821,0.0,0.0,0.0,0.0,0.0,0.0,0.0,0.0,0.0,0.0,0.0,0.0,0.0,0.0,0.0,0.0,0.0,0.0,0.0,0.0,0.0,0.0,0.0,0.0,0.0,0.0,0.0,0.0,0.0,0.0,0.0,0.0,0.0,0.0,0.0,0.0,0.0,0.0,0.0,0.0,0.0,0.0,0.0,0.0,0.0,0.0,0.0,0.0,0.0,0.0,0.0,0.0,0.0,0.0,0.0,0.0,-2.9585,-3.2327,-3.5224,-3.8182,-3.7764,-3.6806,-3.5519,-3.1719,-2.8397,0.0,0.0,0.0,0.0,0.0,0.0,0.0,0.0,0.0,0.0,0.0,0.0,0.0,0.0,0.0,0.0,0.0,0.0,0.0,0.0,0.0,0.0,0.0,0.0,0.0,0.0,0.0,0.0,0.0,0.0,0.0,0.0,0.0,0.0,0.0,0.0,0.0,0.0,0.0,0.0,0.0,-1.8497,-1.6513,-1.5707,-1.5141,0.0,0.0,-1.5417,-1.5948,-1.5768,0.0,0.0,0.0,0.0,0.0,0.0,0.0,0.0,0.0,0.0,0.0,0.0,0.0,0.0,0.0,0.0,0.0,0.0,0.0,0.0,0.0,0.0,0.0,0.0,0.0,0.0,0.0,0.0,0.0,0.0,0.0,0.0,0.0,0.0,0.0,0.0,0.0,0.0,0.0,0.0,0.0,0.0,0.0,0.0,0.0,0.0,0.0,0.0,0.0,0.0,0.0,0.0,0.0,0.0,0.0,-2.6116,-3.001,-3.3456,-3.6417,-3.8841,-3.7943,-3.6806,-3.5487,-3.13,-2.7769,0.0,0.0,0.0,0.0,0.0,0.0,0.0,0.0,0.0,0.0,0.0,0.0,0.0,0.0,0.0,0.0,0.0,0.0,0.0,0.0,0.0,0.0,0.0,0.0,0.0,0.0,0.0,0.0,0.0,0.0,0.0,0.0,0.0,0.0,0.0,0.0,0.0,0.0,0.0,0.0,0.0,0.0,-1.7838,-1.7174,0.0,0.0,0.0,-1.6522,-1.612,0.0,0.0,0.0,0.0,0.0,0.0,0.0,0.0,0.0,0.0,0.0,0.0,0.0,0.0,0.0,0.0,0.0,0.0,0.0,0.0,0.0,0.0,0.0,0.0,0.0,0.0,0.0,0.0,0.0,0.0,0.0,0.0,0.0,0.0,0.0,0.0,0.0,0.0,0.0,0.0,0.0,0.0,0.0,0.0,0.0,0.0,0.0,0.0,0.0,0.0,0.0,0.0,0.0,0.0,0.0,0.0,0.0,-3.0346,-3.4423,-3.7434,-3.929,-3.8058,-3.6806,-3.5489,-3.148,0.0,0.0,0.0,0.0,0.0,0.0,0.0,0.0,0.0,0.0,0.0,0.0,0.0,0.0,0.0,0.0,0.0,0.0,0.0,0.0,0.0,0.0,0.0,0.0,0.0,0.0,0.0,-0.7459,0.0,0.0,0.0,0.0,0.0,0.0,0.0,0.0,0.0,0.0,0.0,0.0,0.0,0.0,-1.8291,-1.8629,-1.8175,-1.7926,0.0,0.0,-1.7505,-1.6603,-1.6908,-1.6244,0.0,0.0,0.0,0.0,0.0,0.0,0.0,0.0,0.0,0.0,0.0,0.0,0.0,0.0,0.0,0.0,0.0,0.0,0.0,0.0,0.0,0.0,0.0,0.0,0.0,0.0,0.0,0.0,0.0,0.0,0.0,0.0,0.0,0.0,0.0,0.0,0.0,0.0,0.0,0.0,0.0,0.0,0.0,0.0,0.0,0.0,0.0,0.0,0.0,0.0,0.0,0.0,0.0,0.0,0.0,-3.0754,-3.4546,-3.7434,-3.9254,-3.8123,-3.6776,-3.5519,-3.2766,-2.9179,0.0,0.0,0.0,0.0,0.0,0.0,0.0,0.0,0.0,0.0,0.0,0.0,0.0,0.0,0.0,0.0,0.0,0.0,0.0,0.0,0.0,0.0,0.0,0.0,0.0,0.0,0.0,0.0,0.0,0.0,0.0,0.0,0.0,0.0,0.0,0.0,0.0,0.0,0.0,0.0,0.0,-1.9211,-1.8063,-1.8467,-1.9284,0.0,-1.956,-1.8784,-1.8538,-1.9148,-1.8053,-1.3477,0.0,0.0,0.0,0.0,0.0,0.0,0.0,0.0,0.0,0.0,0.0,0.0,0.0,0.0,0.0,0.0,0.0,0.0,0.0,0.0,0.0,0.0,0.0,0.0,0.0,0.0,0.0,0.0,0.0,0.0,0.0,0.0,0.0,0.0,0.0,0.0,0.0,0.0,0.0,0.0,0.0,0.0,0.0,0.0,0.0,0.0,0.0,0.0,0.0,0.0,0.0,0.0,0.0,-2.6948,-3.0767,-3.4122,-3.7045,-3.9224,-3.8093,-3.6806,-3.5519,-3.2916,-2.9328,0.0,0.0,0.0,0.0,0.0,0.0,0.0,0.0,0.0,0.0,0.0,0.0,0.0,0.0,0.0,0.0,0.0,0.0,0.0,0.0,0.0,0.0,0.0,0.0,0.0,0.0,0.0,0.0,-0.9805,-0.9527,-0.8106,0.0,0.0,0.0,0.0,0.0,0.0,0.0,0.0,0.0,0.0,-1.9236,-1.9533,-2.0115,0.0,0.0,-2.0616,-2.0132,-1.9053,-1.8815,-1.7537,-1.3864,-1.1995,0.0,0.0,0.0,0.0,0.0,0.0,0.0,0.0,0.0,0.0,0.0,0.0,0.0,0.0,0.0,0.0,0.0,0.0,0.0,0.0,0.0,0.0,0.0,0.0,0.0,0.0,0.0,0.0,0.0,0.0,0.0,0.0,0.0,0.0,0.0,0.0,0.0,0.0,0.0,0.0,0.0,0.0,0.0,0.0,0.0,0.0,0.0,0.0,0.0,0.0,0.0,0.0,-2.6698,-3.0767,-3.3909,-3.6686,-3.905,-3.8003,-3.6686,-3.522,-3.3215,-2.9926,0.0,0.0,0.0,0.0,0.0,0.0,0.0,0.0,0.0,0.0,0.0,0.0,0.0,0.0,0.0,0.0,0.0,0.0,0.0,0.0,0.0,0.0,0.0,0.0,0.0,0.0,0.0,0.0,-1.0501,-0.9968,-0.8444,0.0,0.0,0.0,0.0,0.0,0.0,0.0,0.0,0.0,0.0,-1.9583,-2.0315,-2.0767,-2.084,-2.049,-2.033,-1.9821,-1.8605,-1.8054,-1.6776,-1.3872,0.0,0.0,0.0,0.0,0.0,0.0,0.0,0.0,0.0,0.0,0.0,0.0,0.0,0.0,0.0,0.0,0.0,0.0,0.0,0.0,0.0,0.0,0.0,0.0,0.0,0.0,0.0,-2.2731,0.0,0.0,-2.1663,0.0,0.0,0.0,0.0,0.0,0.0,0.0,0.0,0.0,0.0,0.0,0.0,0.0,0.0,0.0,0.0,0.0,0.0,0.0,0.0,0.0,0.0,-2.672,-3.0742,-3.3879,-3.6447,-3.8332,-3.7764,-3.6477,-3.4623,-3.3814,-3.127,-2.6662,0.0,0.0,0.0,0.0,0.0,0.0,0.0,0.0,0.0,0.0,0.0,0.0,0.0,0.0,0.0,0.0,0.0,0.0,0.0,0.0,0.0,0.0,0.0,0.0,0.0,0.0,-1.0208,-0.9061,-0.8397,0.0,0.0,0.0,0.0,0.0,0.0,0.0,0.0,0.0,0.0,-1.8881,-2.0441,-1.9886,-1.9836,-1.9886,-1.9861,-1.8509,-1.738,-1.7159,-1.7047,-1.6089,0.0,0.0,0.0,0.0,0.0,0.0,0.0,0.0,0.0,0.0,0.0,0.0,0.0,0.0,0.0,0.0,0.0,0.0,0.0,0.0,0.0,0.0,0.0,0.0,0.0,0.0,0.0,-2.7998,-2.6807,0.0,0.0,0.0,0.0,0.0,0.0,0.0,0.0,0.0,0.0,0.0,-3.0737,-3.0884,0.0,0.0,0.0,0.0,0.0,0.0,0.0,0.0,0.0,0.0,0.0,0.0,-2.7453,-3.0228,-3.3696,-3.6237,-3.7674,-3.7105,-3.6267,-3.519,-3.4083,-3.133,-2.6722,0.0,0.0,0.0,0.0,0.0,0.0,0.0,0.0,0.0,0.0,0.0,0.0,0.0,0.0,0.0,0.0,0.0,0.0,0.0,0.0,0.0,0.0,0.0,0.0,0.0,-1.2326,0.0,0.0,0.0,0.0,0.0,0.0,0.0,0.0,0.0,0.0,0.0,-1.5547,-1.74,-1.8455,-1.9233,-1.9736,-1.9811,-2.0062,0.0,0.0,0.0,0.0,0.0,0.0,0.0,0.0,0.0,0.0,0.0,0.0,0.0,0.0,-1.2461,-0.9845,-0.9396,-0.9473,-0.9628,0.0,0.0,0.0,0.0,0.0,0.0,0.0,0.0,0.0,0.0,0.0,0.0,0.0,0.0,-3.193,-3.0772,-3.0329,0.0,0.0,0.0,0.0,0.0,0.0,0.0,0.0,-3.2791,-3.4182,-3.4364,-3.4749,-3.4442,0.0,-3.2258,-2.9399,0.0,0.0,0.0,0.0,0.0,0.0,0.0,0.0,-2.8063,-3.0672,-3.3848,-3.6028,-3.7015,-3.6686,-3.6058,-3.516,-3.3634,-3.118,-2.7739,-2.4896,-2.2521,0.0,0.0,0.0,0.0,0.0,0.0,0.0,0.0,0.0,0.0,0.0,0.0,0.0,0.0,0.0,0.0,0.0,0.0,0.0,0.0,0.0,0.0,0.0,-1.3417,0.0,0.0,0.0,0.0,0.0,0.0,0.0,0.0,0.0,-1.3534,-1.5271,-1.7174,-1.8856,-1.9233,-1.9459,-1.9761,0.0,0.0,0.0,0.0,0.0,0.0,0.0,-1.5437,-1.4332,-1.4295,-1.4297,-1.4077,-1.4696,-1.5039,-1.4473,0.0,0.0,-1.2106,-1.1621,-1.166,-1.1839,-1.1634,-1.1445,-1.1575,-1.1634,-1.1601,0.0,0.0,0.0,0.0,0.0,0.0,0.0,0.0,-3.6399,-3.5697,0.0,-3.4481,0.0,0.0,0.0,0.0,0.0,-3.2951,0.0,0.0,-3.9028,-4.0404,-3.8661,-3.92,-3.8841,-3.7644,-3.7464,-3.5759,-3.2497,-2.7534,0.0,0.0,0.0,0.0,0.0,0.0,-2.8652,-3.2043,-3.4364,-3.5878,-3.6477,-3.6477,-3.5851,-3.4533,-3.2617,-3.1001,-2.9681,-2.7709,-2.5348,-2.2459,-2.0215,0.0,0.0,0.0,0.0,0.0,0.0,0.0,0.0,0.0,0.0,0.0,0.0,0.0,0.0,0.0,0.0,0.0,0.0,0.0,0.0,-1.4819,0.0,0.0,0.0,0.0,0.0,0.0,0.0,0.0,0.0,0.0,-1.5819,-1.72,-1.8831,-2.0415,0.0,0.0,0.0,0.0,-1.98,-1.7624,-1.6667,-1.6052,-1.5416,-1.5918,-1.6316,-1.6127,0.0,0.0,-1.6403,-1.6183,-1.5968,-1.5098,-1.5664,-1.6026,-1.5527,-1.4679,-1.4289,-1.4668,-1.4141,-1.3789,-1.4075,-1.4087,-1.4126,-4.2153,0.0,0.0,0.0,0.0,-3.8897,-4.0708,-4.4099,-4.3107,-4.1405,-3.9329,-3.8848,0.0,0.0,0.0,0.0,0.0,0.0,-3.6845,-3.8482,-4.0504,-4.1833,-4.2581,-4.2303,-4.1974,-4.1556,-4.0217,-3.8811,-3.7375,-3.4502,-2.9648,-2.3049,0.0,0.0,0.0,0.0,-3.0926,-3.2872,-3.5089,-3.6297,-3.6477,-3.6028,-3.537,-3.4533,-3.3484,-3.2317,-3.1002,-2.9505,-2.7684,-2.5408,-2.2952,0.0,0.0,0.0,0.0,0.0,0.0,0.0,0.0,0.0,0.0,0.0,0.0,0.0,0.0,0.0,0.0,0.0,0.0,0.0,-1.5052,-1.5297,-1.4644,0.0,0.0,0.0,0.0,0.0,0.0,0.0,0.0,0.0,-1.9082,-1.8606,-1.8656,0.0,0.0,-1.9032,-1.8706,-1.8897,-1.9071,-1.9168,-1.8038,0.0,-1.7998,-1.7266,-1.6572,-1.6523,-1.7409,-1.7968,-1.7513,-1.7949,-1.8218,-1.7584,-1.7734,-1.7773,-1.7324,-1.6551,-1.6044,-1.6102,-1.5927,-1.581,-1.5927,-1.5966,-1.5946,-4.8397,-4.4798,-4.2075,-4.1973,-4.3507,-4.2931,-4.4664,-4.7775,-4.6864,-4.5454,-4.3718,-4.3329,-4.0516,-3.6001,-3.5369,0.0,0.0,0.0,-4.0039,-4.1842,-4.2587,-4.3419,-4.4257,-4.3888,-4.3529,-4.323,-4.1863,-4.0965,-4.0546,-3.8601,-3.4532,-2.8513,0.0,0.0,-2.7041,-3.0527,-3.3073,-3.4451,-3.6051,-3.6746,-3.6477,-3.5848,-3.516,-3.4533,-3.3874,-3.3006,-3.1929,-3.0642,-2.9146,-2.744,-2.5182,-2.2523,0.0,0.0,0.0,0.0,0.0,0.0,0.0,0.0,0.0,0.0,0.0,-1.1498,-0.9454,0.0,0.0,0.0,-1.4314,-1.5784,-1.6646,-1.6666,0.0,0.0,0.0,0.0,0.0,0.0,0.0,-1.7476,-1.8756,-1.9962,-2.1142,-2.0464,-2.0238,-2.1317,-2.0715,-2.0136,-2.0136,0.0,-2.0538,-2.0294,-1.9426,-1.8765,-1.8795,-1.8188,-1.7852,-1.8203,-1.8672,-1.8926,-1.8809,-1.9199,-1.9375,-1.9023,-1.8887,-1.8809,-1.8555,-1.7949,-1.7389,-1.7233,-1.7213,-1.7213,-1.7194,-1.7194,-1.7213,-5.362,-5.2047,-4.6611,-4.4918,-4.5813,-4.6441,-4.7399,-4.8506,-4.8506,-4.8117,-4.7459,-4.7399,-4.5274,-4.167,-4.0456,0.0,-4.0943,-4.2795,-4.3935,-4.4556,-4.5125,-4.5065,-4.4496,-4.4377,-4.3988,-4.3349,-4.2761,-4.244,-4.2291,-4.0487,-3.8302,-3.5789,-3.3727,-3.2583,-3.2508,-3.3597,-3.4942,-3.6444,-3.7077,-3.7105,-3.654,-3.5908,-3.525,-3.4533,-3.3844,-3.3185,-3.2467,-3.1182,-2.9924,-2.8727,-2.692,-2.4557,-2.1562,0.0,0.0,0.0,0.0,0.0,0.0,0.0,0.0,0.0,0.0,0.0,0.0,0.0,0.0,0.0,-1.7685,0.0,-1.9179,-1.876,0.0,0.0,0.0,-1.5918,-1.7468,-1.8154,-1.9108,-2.0666,0.0,0.0,-2.2422,-2.2498,-2.2924,-2.4054,-2.3547,-2.3095,-2.3095,-2.3454,-2.314,-2.1028,-2.0727,-2.0084,-1.876,-1.8922,-1.9531,-2.0195,-2.0605,-2.037,-2.0,-1.9941,-1.9805,-1.9414,-1.9336,-1.9316,-1.9297,-1.8851,-1.8539,-1.813,-1.8027,-1.7988,-1.7949,-1.793,-1.793,-5.539,-5.4929,-5.3006,-5.1302,-4.9823,-4.9927,-5.0242,-5.0511,-5.0511,-4.9883,-4.882,-4.8267,-4.6681,-4.4387,-4.4068,-4.4268,-4.4945,-4.538,-4.598,-4.6561,-4.6232,-4.5992,-4.5813,-4.4796,-4.4227,-4.4047,-4.3379,-4.2851,-4.2381,-4.1384,-4.0098,-3.8482,-3.7451,-3.5413,-3.2644,-3.4269,-3.5802,-3.7161,-3.7323,-3.7105,-3.6507,-3.6327,-3.5699,-3.4533,-3.3874,-3.3185,-3.2497,-3.121,-3.0133,-2.9355,-2.7961,-2.6006,-2.3434,-2.0282,0.0,0.0,0.0,0.0,0.0,0.0,0.0,0.0,0.0,-1.528,-1.184,0.0,-1.7256,0.0,-1.8659,-2.065,-2.1674,-2.091,0.0,0.0,-1.9624,-1.9598,-1.9888,-2.0767,-2.1493,-2.187,-2.2397,-2.3095,-2.4073,-2.4199,-2.4632,-2.572,-2.428,-2.3095,-2.312,-2.3294,-2.3044,-2.1913,-2.1664,-2.1256,-2.0165,-2.0155,-2.0351,-2.0566,-2.0605,-2.0566,-2.0468,-2.041,-2.0254,-1.9863,-1.9766,-1.9648,-1.9355,-1.9199,-1.9121,-1.8965,-1.8477,-1.8008,-1.8008,-1.8008,-1.8008,-5.676,-5.6355,-5.5494,-5.4122,-5.2516,-5.2802,-5.2748,-5.2428,-5.1854,-5.093,-4.9673,-4.9015,-4.7981,-4.6651,-4.6621,-4.6681,-4.677,-4.6741,-4.695,-4.7249,-4.6621,-4.613,-4.5843,-4.4796,-4.4167,-4.3828,-4.3469,-4.3,-4.241,-4.2021,-4.1145,-3.9858,-3.9469,-3.7883,-3.528,-3.5938,-3.6716,-3.7404,-3.7404,-3.7375,-3.7315,-3.6776,-3.5881,-3.4533,-3.3544,-3.2467,-3.124,-3.0223,-2.9205,-2.8278,-2.7285,-2.5968,-2.4309,-2.1545,-1.9536,0.0,0.0,0.0,0.0,0.0,0.0,0.0,0.0,0.0,0.0,0.0,-1.9158,-1.8797,-2.1019,-2.2721,-2.349,-2.3266,-2.2859,-2.245,-2.2485,-2.2512,-2.2513,-2.305,-2.3627,-2.4136,-2.4431,-2.4858,-2.546,-2.5561,-2.5762,-2.6399,-2.541,-2.4607,-2.4625,-2.4674,-2.4376,-2.3444,-2.295,-2.2151,-2.0838,-2.0605,-2.0605,-2.0605,-2.0605,-2.0605,-2.0605,-2.0605,-2.0507,-2.0254,-2.0195,-2.0137,-1.9902,-1.9687,-1.957,-1.9492,-1.9043,-1.8633,-1.8574,-1.8418,-1.8247,-5.7916,-5.6896,-5.6035,-5.5318,-5.4812,-5.513,-5.476,-5.3789,-5.2708,-5.1468,-5.0166,-4.9643,-4.9015,-4.8416,-4.8327,-4.7967,-4.7429,-4.7339,-4.7309,-4.7279,-4.6621,-4.5963,-4.5274,-4.4616,-4.3958,-4.3319,-4.329,-4.3,-4.241,-4.2321,-4.1602,-4.0307,-4.0187,-3.9499,-3.8302,-3.7704,-3.7404,-3.7404,-3.7494,-3.7764,-3.8242,-3.7015,-3.5669,-3.4294,-3.3036,-3.1451,-2.9535,-2.8906,-2.8008,-2.6806,-2.6183,-2.5585,-2.4963,-2.273,-2.1362,0.0,-1.895,0.0,0.0,0.0,0.0,0.0,0.0,0.0,0.0,-2.0528,-2.1605,-2.2263,-2.3879,-2.4933,-2.5113,-2.5621,-2.5702,-2.5016,-2.4887,-2.4928,-2.5059,-2.5048,-2.5385,-2.6373,-2.6499,-2.6474,-2.6449,-2.6499,-2.6474,-2.6474,-2.6399,-2.6273,-2.6424,-2.6364,-2.5985,-2.5158,-2.4036,-2.2489,-2.1011,-2.0605,-2.0605,-2.0605,-2.0605,-2.0605,-2.0605,-2.0605,-2.0605,-2.0605,-2.0566,-2.0586,-2.0605,-2.0234,-2.0,-2.0,-1.9687,-1.9451,-1.9238,-1.8965,-1.8695,-5.9466,-5.7086,-5.7807,-5.8068,-5.7864,-5.7027,-5.5388,-5.332,-5.2522,-5.1468,-5.0196,-5.0076,-4.9703,-4.909,-4.8536,-4.8207,-4.8057,-4.7549,-4.7309,-4.7279,-4.6578,-4.5963,-4.5274,-4.4646,-4.3958,-4.3319,-4.329,-4.3,-4.2381,-4.1871,-4.0905,-3.9619,-3.905,-3.8362,-3.7644,0.0,0.0,0.0,-3.7943,-3.8003,-3.7584,-3.6327,-3.4771,-3.2946,-3.2108,0.0,-2.8906,-2.8667,-2.8218,-2.7465,-2.7285,0.0,0.0,0.0,0.0,0.0,0.0,0.0,0.0,0.0,0.0,0.0,-2.3917,-2.3468,-2.2134,-2.361,-2.4956,-2.5615,-2.6004,-2.6662,-2.7739,-2.7949,-2.7909,-2.7679,-2.7449,-2.7111,-2.6579,-2.6304,-2.6273,-2.6449,-2.6499,-2.6499,-2.6499,-2.6499,-2.6499,-2.6499,-2.6499,-2.6499,-2.6499,-2.6499,-2.6129,-2.5123,-2.3562,-2.1962,-2.0799,-2.0605,-2.0605,-2.0605,-2.0605,-2.0605,-2.0605,-2.0605,-2.0605,-2.0605,-2.0605,-2.0605,-2.0605,-2.0488,-2.0449,-2.0468,-2.041,-2.0155,-1.9434,-1.9238,-1.916,-5.9269,-5.7487,-5.7146,-5.6991,0.0,-5.6347,-5.5406,-5.4132,-5.3473,-5.2456,-5.1199,-5.0823,-5.0361,-4.9733,-4.9404,-4.8895,-4.8267,-4.7938,-4.7608,-4.7279,-4.698,-4.6441,-4.5783,-4.5125,-4.4466,-4.3768,-4.3439,-4.3,-4.241,-4.2081,-4.1205,-3.9918,-3.9559,-3.905,-3.8387,-3.8422,-3.8242,-3.7883,-3.8242,-3.8392,-3.8362,-3.7434,-3.5998,-3.4053,-3.3335,0.0,0.0,0.0,0.0,0.0,0.0,0.0,0.0,0.0,0.0,-2.5555,-2.5285,-2.5106,-2.5166,-2.6303,-2.7141,-2.7504,-2.8431,-2.7889,-2.5338,-2.6602,-2.7829,-2.8457,-2.9116,-2.9774,-3.0434,-3.0422,-3.0338,-3.0212,-2.9347,-2.8531,-2.8218,-2.7661,-2.7178,-2.6952,-2.6901,-2.6826,-2.6524,-2.6499,-2.6499,-2.6499,-2.6499,-2.6499,-2.6499,-2.6499,-2.6129,-2.5158,-2.3781,-2.2414,-2.1489,-2.0818,-2.0605,-2.0605,-2.0605,-2.0605,-2.0605,-2.0605,-2.0605,-2.0605,-2.0605,-2.0605,-2.0605,-2.0605,-2.0605,-2.0605,-2.0605,-2.0488,-1.998,-1.9746,-1.9609,-5.8856,-5.7574,-5.6213,-5.5521,-5.5209,-5.5209,-5.5209,-5.5149,0.0,0.0,0.0,-5.1498,-5.0883,-5.0375,-5.0255,-4.9643,-4.8656,-4.8386,-4.7997,-4.7489,-4.7369,-4.695,-4.6249,-4.5753,-4.5065,-4.4317,-4.3738,-4.318,-4.259,-4.247,-4.1871,-4.0816,-4.0516,-4.0068,-3.9433,-3.9403,-3.914,-3.8601,-3.8452,-3.8661,-3.92,-3.8452,-3.7225,-3.5549,-3.4711,-3.2946,-3.0043,-2.9924,-2.9355,-2.8184,-2.7679,-2.7709,-2.8244,-2.7769,-2.7709,-2.8274,-2.8816,-2.9175,-2.9295,-3.0253,-3.0911,-3.1031,-3.2048,-3.148,-2.8663,-2.9564,-3.0492,-3.1001,-3.2048,-3.2617,-3.2466,-3.242,-3.2205,-3.1947,-3.0562,-2.96,-2.9425,-2.8687,-2.7896,-2.7519,-2.7444,-2.7304,-2.6901,-2.6826,-2.6776,-2.6776,-2.6751,-2.6575,-2.6524,-2.6499,-2.6129,-2.5158,-2.4036,-2.3121,-2.2151,-2.1183,-2.0644,-2.0605,-2.0605,-2.0605,-2.0605,-2.0605,-2.0605,-2.0605,-2.0605,-2.0605,-2.0605,-2.0605,-2.0605,-2.0605,-2.0605,-2.0605,-2.0586,-2.0293,-2.0039,-5.9505,-5.6495,-5.7315,-5.6652,-5.5209,-5.5209,-5.5209,-5.5089,-5.3862,-5.2905,-5.2157,-5.1498,-5.1169,-5.105,-5.0435,-5.0106,-4.9867,-4.8805,-4.8237,-4.8117,-4.7578,-4.695,-4.6322,-4.619,-4.5514,-4.4377,-4.4227,-4.3838,-4.318,-4.2641,-4.2291,-4.1991,-4.0965,-4.0068,-3.9433,-3.9403,-3.9343,-3.926,-3.8691,-3.8452,-3.8512,-3.7375,-3.6357,-3.5519,-3.4322,-3.2916,-3.1301,-3.1271,-3.0883,-3.0133,-3.0554,-3.0853,-3.0943,-3.0823,-3.0853,-3.0943,-3.1032,-3.1331,-3.1898,-3.2108,-3.2467,-3.3006,-3.3245,-3.2886,-3.1958,-3.2497,-3.2976,-3.3066,-3.3245,-3.3028,-3.2344,-3.2836,-3.2579,-3.1154,-3.0724,-3.029,-2.9566,-2.8703,-2.8122,-2.8021,-2.7996,-2.7971,-2.7821,-2.7795,-2.777,-2.777,-2.7394,-2.7052,-2.665,-2.6499,-2.606,-2.5158,-2.4145,-2.3136,-2.2376,-2.1221,-2.076,-2.0605,-2.0605,-2.0605,-2.0605,-2.0605,-2.0605,-2.0605,-2.0605,-2.0605,-2.0605,-2.0605,-2.0605,-2.0605,-2.0605,-2.0605,-2.0605,-2.0527,-2.0488,-5.8593,-5.6801,-5.6971,-5.6325,-5.5209,-5.5209,-5.5209,-5.5119,-5.4162,-5.3354,-5.2695,-5.2037,-5.1558,-5.1199,-5.0853,-5.0524,-5.0166,-4.9613,-4.8955,-4.8267,-4.7967,-4.7489,-4.686,-4.6459,-4.595,-4.5364,-4.4646,-4.4137,-4.3838,-4.321,-4.2731,-4.2321,-4.1055,-4.0247,-3.9948,-3.9589,-3.9403,-3.9409,-3.911,-3.8931,-3.8931,-3.8392,-3.7764,-3.7075,-3.6447,-3.5549,-3.4292,-3.4203,-3.3903,-3.3245,-3.3155,-3.3125,-3.3125,-3.2796,-3.2587,-3.2617,-3.2946,-3.3275,-3.3544,-3.3933,-3.4262,-3.4562,-3.4921,-3.5011,-3.4711,-3.4262,-3.4023,-3.4053,-3.4352,-3.4182,-3.3215,-3.3049,-3.2647,-3.1764,-3.0878,-3.0293,-3.0293,-2.9574,-2.89,-2.8624,-2.8512,-2.8448,-2.8147,-2.8122,-2.8122,-2.8097,-2.7846,-2.7519,-2.7052,-2.6927,-2.6661,-2.59,-2.4957,-2.4217,-2.3599,-2.2301,-2.1489,-2.1375,-2.0934,-2.0644,-2.0605,-2.0605,-2.0644,-2.0605,-2.0605,-2.0605,-2.0605,-2.0605,-2.0605,-2.0605,-2.0605,-2.0605,-2.0605,-2.0605,-2.0605,-5.7962,-5.7274,-5.6645,-5.5927,-5.5209,-5.5209,-5.5209,-5.5149,-5.464,-5.4042,-5.3354,-5.2576,-5.1917,-5.1439,-5.1289,-5.0883,-5.0435,-5.0255,-4.9703,-4.8775,-4.8416,-4.8027,-4.7489,-4.686,-4.6429,-4.619,-4.5244,-4.4616,-4.4287,-4.3808,-4.315,-4.2381,-4.1392,-4.0696,-4.0397,-3.9918,-3.9559,-3.9403,-3.9403,-3.9403,-3.9403,-3.9403,-3.917,-3.8661,-3.8452,-3.7948,-3.6985,-3.6776,-3.6447,-3.5968,-3.5429,-3.5162,-3.513,-3.4651,-3.4382,-3.4412,-3.4861,-3.513,-3.5192,-3.5609,-3.5938,-3.5938,-3.6387,-3.6686,-3.6626,-3.5759,-3.513,-3.519,-3.5489,-3.5307,-3.4322,-3.3457,-3.277,-3.2299,-3.1033,-3.0367,-3.0707,-3.0228,-2.9628,-2.9202,-2.9126,-2.895,-2.8599,-2.8473,-2.8473,-2.8373,-2.8298,-2.8072,-2.7595,-2.7469,-2.7278,-2.6652,-2.5749,-2.4981,-2.4886,-2.3526,-2.2467,-2.2339,-2.1832,-2.1527,-2.1433,-2.1336,-2.1126,-2.1126,-2.1203,-2.1088,-2.0799,-2.0818,-2.0818,-2.0722,-2.0605,-2.0605,-2.0605,-2.0605,-2.0605,-5.862,-5.7962,-5.7274,-5.6316,-5.5239,-5.5209,-5.5209,-5.5179,-5.5119,-5.473,-5.4012,-5.2755,-5.2187,-5.2037,-5.1498,-5.1199,-5.1003,-5.0465,-5.0106,-4.9837,-4.8835,-4.8267,-4.8117,-4.7519,-4.6847,-4.6369,-4.6142,-4.5412,-4.4466,-4.4257,-4.3599,-4.253,-4.2261,-4.1602,-4.0546,-4.0337,-4.0008,-3.9403,-3.9403,-3.9403,-3.9403,-3.9403,-3.9343,-3.9284,-3.8721,-3.8362,-3.8182,-3.7644,-3.7315,-3.7225,-3.7135,-3.7105,-3.7105,-3.7045,-3.7015,-3.6985,-3.7045,-3.7135,-3.7105,-3.7195,-3.7195,-3.7225,-3.7255,-3.7315,-3.7345,-3.7225,-3.7135,-3.7045,-3.6686,-3.5988,-3.4987,-3.4243,-3.3157,-3.1622,-3.1161,-3.0809,-3.0126,-2.9856,-2.9754,-2.9729,-2.9654,-2.9679,-2.9528,-2.9503,-2.9352,-2.8888,-2.8813,-2.8649,-2.8147,-2.8021,-2.7846,-2.7187,-2.6017,-2.5171,-2.4981,-2.4145,-2.3452,-2.332,-2.3246,-2.301,-2.2898,-2.2936,-2.2973,-2.2075,-2.2467,-2.2376,-2.1527,-2.1183,-2.1545,-2.0972,-2.0722,-2.0605,-2.0605,-2.0605,-2.0605,-5.871,-5.8112,-5.7812,-5.6944,-5.5807,-5.5359,-5.5209,-5.5209,-5.5209,-5.5029,-5.464,-5.3354,-5.2576,-5.2187,-5.1917,-5.1588,-5.1199,-5.0883,-5.0554,-5.0166,-4.9673,-4.9045,-4.8297,-4.8027,-4.7549,-4.689,-4.6531,-4.601,-4.5412,-4.4706,-4.3838,-4.297,-4.262,-4.2111,-4.1572,-4.0786,-4.0247,-4.0008,-3.9619,-3.9403,-3.9403,-3.9403,-3.9403,-3.9343,-3.914,-3.899,-3.899,-3.8686,-3.8601,-3.8571,-3.8212,-3.8003,-3.7973,-3.7614,-3.7404,-3.7404,-3.7404,-3.7404,-3.7404,-3.7404,-3.7404,-3.7404,-3.7764,-3.8003,-3.8003,-3.8362,-3.8601,-3.8482,-3.7644,-3.6438,-3.4945,-3.4393,-3.3449,-3.1707,-3.1035,-3.07,-3.036,-2.998,-2.9779,-2.9779,-2.9779,-2.9779,-2.9779,-2.9779,-2.9679,-2.9478,-2.9428,-2.9176,-2.8699,-2.8599,-2.8348,-2.7809,-2.6937,-2.6265,-2.5854,-2.5028,-2.4528,-2.4312,-2.3891,-2.3526,-2.3599,-2.3526,-2.3305,-2.2914,-2.3356,-2.3393,-2.2601,-2.2489,-2.2601,-2.1756,-2.0857,-2.0605,-2.0605,-2.0605,-2.0605,-5.883,-5.8411,-5.8201,-5.7363,-5.6188,-5.5688,-5.5359,-5.5209,-5.5209,-5.5089,-5.482,-5.3892,-5.2995,-5.2247,-5.2037,-5.1648,-5.1259,-5.1229,-5.0913,-5.0465,-5.0285,-4.9733,-4.8835,-4.8416,-4.8057,-4.7549,-4.692,-4.6459,-4.616,-4.4975,-4.4077,-4.3529,-4.297,-4.256,-4.2321,-4.1392,-4.0846,-4.0636,-4.0008,-3.9679,-3.9679,-3.9463,-3.9403,-3.9403,-3.9403,-3.9403,-3.9403,-3.9403,-3.9403,-3.9373,-3.8931,-3.8661,-3.8661,-3.8212,-3.7973,-3.7973,-3.7973,-3.7973,-3.7973,-3.7973,-3.7973,-3.8003,-3.8422,-3.8661,-3.8751,-3.914,-3.9373,-3.9284,-3.8476,-3.7181,-3.5413,-3.4649,-3.3619,-3.1997,-3.1211,-3.0834,-3.0809,-3.0357,-3.0055,-3.0005,-2.9905,-2.9779,-2.9779,-2.9779,-2.9754,-2.9754,-2.9754,-2.9679,-2.9277,-2.9113,-2.8938,-2.8423,-2.7971,-2.7469,-2.6806,-2.5994,-2.5524,-2.53,-2.485,-2.4505,-2.4325,-2.4325,-2.4072,-2.4145,-2.4181,-2.3891,-2.3342,-2.3342,-2.3562,-2.2601,-2.1718,-2.1088,-2.1126,-2.0857,-2.0644,-5.9069,-5.8949,-5.8381,-5.7393,-5.6196,-5.6158,-5.5748,-5.5179,-5.5179,-5.482,-5.4341,-5.4102,-5.3384,-5.2187,-5.1588,-5.1259,-5.1229,-5.1229,-5.1199,-5.105,-5.0495,-5.0166,-5.0016,-4.8895,-4.8297,-4.8117,-4.7578,-4.695,-4.6249,-4.5035,-4.4317,-4.4227,-4.3599,-4.297,-4.253,-4.2291,-4.1991,-4.1324,-4.0696,-4.0337,-4.0247,-3.9738,-3.9433,-3.9403,-3.9403,-3.9403,-3.9403,-3.9403,-3.9403,-3.9403,-3.9313,-3.9313,-3.9313,-3.9254,-3.923,-3.9224,-3.9254,-3.9254,-3.9224,-3.9164,-3.9194,-3.9224,-3.9194,-3.9349,-3.9254,-3.9313,-3.9337,-3.9337,-3.9188,-3.8434,-3.6568,-3.5264,-3.4126,-3.2922,-3.1913,-3.1442,-3.1361,-3.0909,-3.0633,-3.0457,-3.008,-2.9804,-2.9779,-2.9779,-2.9779,-2.9779,-2.9779,-2.9754,-2.9704,-2.9704,-2.9453,-2.9038,-2.8712,-2.8473,-2.7469,-2.6716,-2.6427,-2.6238,-2.6079,-2.6094,-2.6302,-2.6267,-2.5687,-2.5406,-2.5616,-2.524,-2.4217,-2.3891,-2.4108,-2.3562,-2.2616,-2.2075,-2.1962,-2.1165,-2.0895,-5.9099,-5.9039,-5.8381,-5.7603,-5.6765,-5.6346,-5.5807,-5.5179,-5.476,-5.4431,-5.4072,-5.3324,-5.2665,-5.2187,-5.1498,-5.1229,-5.1229,-5.1229,-5.1229,-5.1199,-5.0913,-5.0584,-5.0166,-4.9687,-4.9045,-4.8327,-4.8027,-4.7369,-4.6339,-4.5813,-4.5155,-4.4407,-4.4077,-4.3629,-4.303,-4.259,-4.2261,-4.2021,-4.1422,-4.0816,-4.0457,-4.0157,-3.9858,-3.9403,-3.9403,-3.9403,-3.9403,-3.9403,-3.9403,-3.9403,-3.9403,-3.9403,-3.9403,-3.9403,-3.9403,-3.9403,-3.9403,-3.9403,-3.9403,-3.9403,-3.9403,-3.9403,-3.9403,-3.9403,-3.9403,-3.9373,-3.9126,-3.8686,-3.9083,-3.8288,-3.6198,-3.5452,-3.512,-3.4112,-3.2752,-3.1913,-3.1813,-3.1436,-3.0984,-3.0633,-3.0131,-2.9804,-2.9854,-2.9779,-2.9779,-2.9779,-2.9779,-2.9779,-2.9779,-2.9779,-2.9679,-2.9478,-2.9151,-2.8762,-2.8473,-2.7519,-2.7002,-2.6866,-2.6756,-2.6461,-2.6465,-2.6499,-2.599,-2.5921,-2.6396,-2.6267,-2.5099,-2.4779,-2.4921,-2.46,-2.3672,-2.3062,-2.2951,-2.2151,-2.1697,-5.9099,-5.9039,-5.862,-5.8052,-5.7393,-5.6735,-5.5987,-5.5179,-5.4491,-5.3982,-5.3443,-5.2576,-5.2097,-5.1858,-5.1439,-5.1229,-5.1229,-5.1229,-5.1229,-5.1229,-5.1229,-5.099,-5.0524,-5.0285,-4.9673,-4.8656,-4.8147,-4.7459,-4.6668,-4.6369,-4.5801,-4.5035,-4.4586,-4.4107,-4.3559,-4.3,-4.2671,-4.2551,-4.2081,-4.1474,-4.1055,-4.0816,-4.0397,-3.9858,-3.9738,-3.9619,-3.9403,-3.9403,-3.9403,-3.9403,-3.9403,-3.9403,-3.9403,-3.9403,-3.9403,-3.9403,-3.9403,-3.9403,-3.9403,-3.9403,-3.9403,-3.9403,-3.9403,-3.9433,-3.9679,-3.9738,-3.9343,-3.898,-3.9166,-3.8547,-3.6531,-3.6053,-3.5654,-3.4417,-3.3157,-3.2491,-3.2466,-3.1989,-3.1461,-3.0984,-3.0608,-3.0357,-3.0281,-3.0156,-3.0105,-3.0055,-2.993,-2.9779,-2.9779,-2.9779,-2.9779,-2.9754,-2.9478,-2.9277,-2.9026,-2.8398,-2.7555,-2.7293,-2.7118,-2.6851,-2.6625,-2.6575,-2.6524,-2.6524,-2.6499,-2.6499,-2.6267,-2.5826,-2.5581,-2.5406,-2.4743,-2.4,-2.3672,-2.3158,-2.275,-5.9099,-5.9099,-5.9099,-5.862,-5.7902,-5.7184,-5.6286,-5.5119,-5.4371,-5.3384,-5.2486,-5.2187,-5.1798,-5.1349,-5.1259,-5.1229,-5.1229,-5.1229,-5.1229,-5.1229,-5.1229,-5.1199,-5.1109,-5.0554,-4.9942,-4.9179,-4.7967,-4.7369,-4.7189,-4.6711,-4.6322,-4.6022,-4.5035,-4.4466,-4.4287,-4.3618,-4.329,-4.308,-4.2641,-4.2381,-4.2291,-4.1722,-4.1055,-4.0487,-4.0397,-4.0157,-3.9523,-3.9433,-3.9403,-3.9403,-3.9403,-3.9403,-3.9403,-3.9403,-3.9403,-3.9403,-3.9403,-3.9403,-3.9403,-3.9433,-3.9493,-3.9523,-3.9463,-3.9858,-4.0307,-4.0286,-4.0174,-4.007,-3.9928,-3.9383,-3.7691,-3.6665,-3.5413,-3.3598,-3.3224,-3.3182,-3.2935,-3.2541,-3.1989,-3.1512,-3.1286,-3.1336,-3.126,-3.0909,-3.0633,-3.0532,-3.0281,-3.0005,-3.003,-3.0005,-2.9854,-2.9829,-2.9729,-2.9578,-2.9478,-2.9214,-2.8373,-2.767,-2.7469,-2.7243,-2.7002,-2.6876,-2.6776,-2.6725,-2.6524,-2.6524,-2.6499,-2.6129,-2.6198,-2.599,-2.537,-2.4957,-2.4707,-2.4325,-2.3781,-5.9099,-5.9099,-5.9099,-5.8441,-5.7393,-5.6735,-5.5718,-5.4431,-5.3324,-5.2576,-5.2157,-5.1738,-5.1409,-5.1259,-5.1229,-5.1229,-5.1229,-5.1229,-5.1229,-5.1229,-5.1229,-5.1229,-5.1169,-5.102,-5.0331,-4.9329,-4.8386,-4.7728,-4.7339,-4.71,-4.68,-4.6292,-4.5903,-4.5214,-4.4377,-4.4107,-4.3808,-4.3319,-4.311,-4.2821,-4.244,-4.2201,-4.1782,-4.1145,-4.1123,-4.0965,-4.0756,-3.9888,-3.9403,-3.9403,-3.9403,-3.9403,-3.9403,-3.9403,-3.9403,-3.9403,-3.9403,-3.9403,-3.9433,-3.9858,-4.0098,-4.0157,-4.0487,-4.0816,-4.0912,-4.038,-4.0003,-3.9858,-3.9201,-3.8137,-3.7071,-3.6195,-3.5292,-3.4314,-3.4204,-3.381,-3.3147,-3.2591,-3.219,-3.1964,-3.1637,-3.1411,-3.1386,-3.121,-3.116,-3.1135,-3.0934,-3.0834,-3.0809,-3.0507,-3.0382,-3.0357,-3.0105,-2.988,-2.9779,-2.9628,-2.9051,-2.8373,-2.8072,-2.772,-2.7419,-2.7228,-2.7128,-2.6977,-2.6751,-2.66,-2.6549,-2.6499,-2.6499,-2.6499,-2.606,-2.5861,-2.5896,-2.5476,-2.4755,-5.9099,-5.9099,-5.9099,-5.8501,-5.7453,-5.6795,-5.5628,-5.4192,-5.3054,-5.2306,-5.1828,-5.1409,-5.1229,-5.1229,-5.1229,-5.1229,-5.1229,-5.1229,-5.1229,-5.1229,-5.1229,-5.1229,-5.1169,-5.093,-5.0481,-4.9673,-4.8955,-4.8297,-4.7698,-4.7638,-4.7339,-4.68,-4.6429,-4.5891,-4.5035,-4.4526,-4.4077,-4.3678,-4.3409,-4.311,-4.2821,-4.2731,-4.2402,-4.1871,-4.1782,-4.1662,-4.1354,-4.0576,-4.0038,-3.9798,-3.9589,-3.9403,-3.9403,-3.9403,-3.9403,-3.9433,-3.9649,-3.9798,-3.9858,-4.0427,-4.0756,-4.0846,-4.1145,-4.1504,-4.1577,-4.095,-4.0606,-4.002,-3.9467,-3.8227,-3.6727,-3.6102,-3.5493,-3.4753,-3.4228,-3.3836,-3.3147,-3.2767,-3.2566,-3.2466,-3.2265,-3.2064,-3.2014,-3.1788,-3.1712,-3.1687,-3.1512,-3.1386,-3.1336,-3.111,-3.0984,-3.0783,-3.0482,-3.0281,-3.0131,-2.9905,-2.9654,-2.9176,-2.875,-2.8323,-2.7946,-2.7745,-2.7595,-2.7444,-2.7278,-2.7002,-2.6927,-2.66,-2.6499,-2.6499,-2.66,-2.6396,-2.6223,-2.606,-2.5581,-5.9099,-5.9099,-5.9069,-5.862,-5.7872,-5.7154,-5.5807,-5.4281,-5.3354,-5.2396,-5.1528,-5.1259,-5.1229,-5.1229,-5.1229,-5.1229,-5.1229,-5.1229,-5.1229,-5.1229,-5.1229,-5.1229,-5.1169,-5.0704,-5.0345,-5.0046,-4.9583,-4.8985,-4.8401,-4.8207,-4.7967,-4.7369,-4.677,-4.6352,-4.592,-4.5005,-4.4526,-4.4317,-4.3708,-4.3379,-4.3349,-4.326,-4.303,-4.247,-4.244,-4.2162,-4.1743,-4.1444,-4.1055,-4.0487,-3.9888,-3.9619,-3.9523,-3.9493,-3.9523,-3.9642,-4.0157,-4.0397,-4.0576,-4.1055,-4.1414,-4.1482,-4.1594,-4.1713,-4.2273,-4.1903,-4.1357,-4.0694,-4.0092,-3.8977,-3.6987,-3.6384,-3.5939,-3.4952,-3.4052,-3.3417,-3.329,-3.3222,-3.3011,-3.3061,-3.3086,-3.3043,-3.2935,-3.2516,-3.2315,-3.219,-3.1913,-3.1763,-3.1637,-3.1637,-3.1461,-3.1235,-3.0959,-3.0758,-3.0633,-3.0256,-3.003,-2.9829,-2.9377,-2.895,-2.8549,-2.8348,-2.7996,-2.7871,-2.7745,-2.7469,-2.7268,-2.7052,-2.6901,-2.6977,-2.6901,-2.665,-2.6606,-2.6606,-2.6561,-5.9099,-5.9069,-5.859,-5.7992,-5.7244,-5.6196,-5.5149,-5.4102,-5.2965,-5.2366,-5.1858,-5.1409,-5.1259,-5.1229,-5.1229,-5.1229,-5.1229,-5.1229,-5.1229,-5.1229,-5.1229,-5.1229,-5.1229,-5.105,-5.0644,-5.0255,-5.0062,-4.9643,-4.906,-4.8596,-4.8237,-4.7997,-4.7369,-4.68,-4.6249,-4.5891,-4.5514,-4.5005,-4.4407,-4.4047,-4.3988,-4.3529,-4.323,-4.312,-4.306,-4.297,-4.2761,-4.2372,-4.1841,-4.1145,-4.0487,-4.0397,-4.0696,-4.0397,-4.0307,-4.0726,-4.0965,-4.1153,-4.1235,-4.1782,-4.2111,-4.2201,-4.2384,-4.288,-4.2951,-4.148,-4.0983,-4.0576,-3.9262,-3.7682,-3.7472,-3.7219,-3.6673,-3.6,-3.4652,-3.4002,-3.435,-3.3811,-3.3136,-3.3136,-3.3162,-3.3162,-3.3086,-3.2943,-3.2792,-3.2767,-3.2641,-3.2516,-3.2365,-3.2164,-3.1989,-3.1838,-3.1587,-3.1336,-3.106,-3.0683,-3.0432,-3.0331,-3.0005,-2.9628,-2.9277,-2.8963,-2.8549,-2.8172,-2.8122,-2.7921,-2.7871,-2.777,-2.767,-2.748,-2.7494,-2.7419,-2.757,-2.7673,-2.7562,-5.9099,-5.9039,-5.8411,-5.7723,-5.7004,-5.6017,-5.5089,-5.4192,-5.3414,-5.2695,-5.2217,-5.1828,-5.1468,-5.1229,-5.1229,-5.1229,-5.1229,-5.1229,-5.1229,-5.1229,-5.1229,-5.1229,-5.1229,-5.1199,-5.099,-5.0674,-5.0614,-5.0272,-4.9733,-4.9284,-4.8865,-4.8297,-4.7908,-4.7399,-4.6728,-4.6369,-4.613,-4.5663,-4.5095,-4.4736,-4.4676,-4.4037,-4.3768,-4.3648,-4.3469,-4.329,-4.323,-4.297,-4.2372,-4.1572,-4.1025,-4.0995,-4.1294,-4.1055,-4.0995,-4.1422,-4.1662,-4.1841,-4.1961,-4.2402,-4.2731,-4.2673,-4.2792,-4.253,-4.2234,-4.0873,-4.0232,-3.9699,-3.8107,-3.7402,-3.7237,-3.7117,-3.6806,-3.6315,-3.5283,-3.4768,-3.5192,-3.4324,-3.3715,-3.352,-3.342,-3.3294,-3.3144,-3.3136,-3.3136,-3.3111,-3.3061,-3.3036,-3.2986,-3.2717,-3.2516,-3.2365,-3.2139,-3.1863,-3.1612,-3.126,-3.0909,-3.0809,-3.0658,-3.0256,-2.988,-2.9603,-2.9252,-2.8825,-2.8599,-2.8448,-2.8448,-2.8323,-2.7996,-2.7921,-2.8097,-2.8172,-2.8197,-2.8348,-2.8323,-5.9099,-5.9039,-5.8321,-5.7663,-5.7034,-5.6346,-5.5359,-5.4461,-5.4132,-5.3503,-5.2636,-5.2306,-5.1858,-5.1319,-5.1289,-5.1229,-5.1229,-5.1229,-5.1229,-5.1229,-5.1229,-5.1229,-5.1229,-5.1229,-5.1169,-5.1109,-5.1199,-5.087,-5.0391,-5.0196,-4.9613,-4.8805,-4.8446,-4.7967,-4.7369,-4.6758,-4.6429,-4.6322,-4.5753,-4.5424,-4.5304,-4.4766,-4.4436,-4.4347,-4.3768,-4.3439,-4.3349,-4.32,-4.2751,-4.1654,-4.1534,-4.1564,-4.1594,-4.1632,-4.1632,-4.1743,-4.2192,-4.25,-4.2482,-4.2783,-4.3111,-4.3001,-4.2094,-4.1545,-4.1378,-4.0404,-3.9227,-3.8604,-3.8017,-3.7428,-3.701,-3.659,-3.6633,-3.6523,-3.6058,-3.5403,-3.5027,-3.4801,-3.4525,-3.4073,-3.3997,-3.3721,-3.3445,-3.3287,-3.3269,-3.3395,-3.3319,-3.3244,-3.3212,-3.2986,-3.2867,-3.2935,-3.2641,-3.234,-3.2089,-3.1838,-3.1512,-3.1286,-3.1185,-3.0884,-3.0407,-3.0105,-2.9905,-2.9628,-2.9227,-2.9026,-2.9026,-2.8775,-2.8473,-2.8499,-2.875,-2.8574,-2.8398,-2.8674,-2.8775,-5.9099,-5.9009,-5.7812,-5.7244,-5.6915,-5.5897,-5.5239,-5.494,-5.4431,-5.4042,-5.3563,-5.2695,-5.2157,-5.1947,-5.1498,-5.1229,-5.1229,-5.1229,-5.1229,-5.1229,-5.1229,-5.1229,-5.1229,-5.1229,-5.1229,-5.1229,-5.1229,-5.1139,-5.093,-5.0465,-5.0076,-4.9687,-4.8835,-4.8207,-4.7967,-4.7399,-4.71,-4.698,-4.6441,-4.6112,-4.5992,-4.5454,-4.5065,-4.4975,-4.4407,-4.3798,-4.3379,-4.329,-4.317,-4.288,-4.2462,-4.2342,-4.2611,-4.2372,-4.2372,-4.2701,-4.294,-4.309,-4.3001,-4.2511,-4.2386,-4.29,-4.142,-4.0661,-4.1378,-3.9596,-3.8514,-3.7952,-3.7335,-3.7103,-3.7356,-3.6849,-3.6849,-3.7052,-3.665,-3.6107,-3.5906,-3.5253,-3.4801,-3.46,-3.455,-3.45,-3.4349,-3.4248,-3.4123,-3.3822,-3.3646,-3.352,-3.337,-3.3287,-3.3237,-3.3312,-3.2968,-3.2692,-3.2566,-3.234,-3.2089,-3.1888,-3.1788,-3.1537,-3.106,-3.0708,-3.0557,-3.0181,-2.9704,-2.9603,-2.9603,-2.9478,-2.9227,-2.9302,-2.9327,-2.9202,-2.9101,-2.9227,-2.9202,-5.9099,-5.8949,-5.7633,-5.7094,-5.6885,-5.5777,-5.5209,-5.5149,-5.482,-5.4491,-5.4102,-5.3384,-5.2815,-5.2187,-5.1828,-5.1528,-5.1259,-5.1229,-5.1229,-5.1229,-5.1229,-5.1229,-5.1229,-5.1229,-5.1229,-5.1229,-5.1229,-5.1229,-5.1109,-5.0823,-5.0495,-5.0196,-4.9494,-4.8865,-4.8356,-4.7938,-4.7578,-4.7279,-4.698,-4.677,-4.6681,-4.6142,-4.5544,-4.5244,-4.4676,-4.4107,-4.3798,-4.3439,-4.3319,-4.323,-4.303,-4.294,-4.317,-4.3,-4.303,-4.32,-4.329,-4.329,-4.3021,-4.2316,-4.1906,-4.2426,-4.0376,-3.9727,-3.9508,-3.8289,-3.7474,-3.7196,-3.6849,-3.6709,-3.7196,-3.6871,-3.6849,-3.6989,-3.6803,-3.6405,-3.6304,-3.583,-3.5353,-3.5203,-3.5056,-3.4881,-3.4806,-3.4901,-3.468,-3.4324,-3.4274,-3.4173,-3.4048,-3.3872,-3.3596,-3.3495,-3.3219,-3.3018,-3.2968,-3.2817,-3.2616,-3.2491,-3.2466,-3.2164,-3.1763,-3.1486,-3.1235,-3.0758,-3.0306,-3.0181,-3.0156,-3.003,-2.988,-2.9704,-2.9654,-2.9754,-2.9754,-2.9654,-2.9603,-5.9069,-5.886,-5.7603,-5.7034,-5.6765,-5.5718,-5.5209,-5.5209,-5.5209,-5.485,-5.4401,-5.4281,-5.3503,-5.2695,-5.2247,-5.1828,-5.1379,-5.1229,-5.1229,-5.1229,-5.1229,-5.1229,-5.1229,-5.1229,-5.1229,-5.1229,-5.1229,-5.1229,-5.1229,-5.1199,-5.09,-5.0405,-5.0196,-4.9643,-4.8805,-4.8446,-4.8147,-4.7638,-4.7489,-4.7309,-4.7189,-4.6681,-4.6172,-4.5574,-4.5125,-4.4706,-4.4436,-4.4047,-4.3618,-4.3509,-4.3439,-4.3379,-4.329,-4.329,-4.329,-4.329,-4.329,-4.329,-4.3061,-4.2316,-4.1629,-4.1504,-3.9464,-3.8289,-3.7971,-3.7381,-3.6709,-3.6546,-3.6405,-3.6405,-3.6405,-3.6405,-3.6405,-3.6452,-3.6452,-3.6405,-3.6405,-3.6405,-3.6056,-3.5805,-3.5655,-3.5529,-3.5328,-3.5253,-3.5027,-3.4831,-3.4806,-3.4776,-3.4625,-3.4449,-3.4173,-3.4022,-3.3822,-3.352,-3.342,-3.3093,-3.2918,-3.2968,-3.2993,-3.2742,-3.2441,-3.224,-3.1938,-3.1361,-3.0984,-3.0834,-3.0683,-3.0557,-3.0357,-3.0055,-3.0131,-3.0382,-3.0281,-3.0055,-3.008,-5.877,-5.8231,-5.7423,-5.6795,-5.6256,-5.5508,-5.5209,-5.5209,-5.5209,-5.5149,-5.497,-5.4461,-5.4132,-5.3593,-5.2606,-5.1858,-5.1379,-5.1229,-5.1229,-5.1229,-5.1229,-5.1229,-5.1229,-5.1229,-5.1229,-5.1229,-5.1229,-5.1229,-5.1229,-5.1199,-5.1109,-5.0883,-5.0495,-4.9986,-4.9733,-4.9404,-4.8775,-4.8207,-4.8057,-4.7818,-4.7429,-4.713,-4.677,-4.6202,-4.5873,-4.5574,-4.5214,-4.5005,-4.4736,-4.4227,-4.4167,-4.3838,-4.3499,-4.3379,-4.3349,-4.329,-4.329,-4.329,-4.317,-4.2193,-4.167,-4.1098,-3.9332,-3.8153,-3.7769,-3.7103,-3.6499,-3.6405,-3.6405,-3.6405,-3.6405,-3.6405,-3.6405,-3.6405,-3.6405,-3.6405,-3.6405,-3.6405,-3.638,-3.6132,-3.6132,-3.6132,-3.5881,-3.5705,-3.5604,-3.5479,-3.5403,-3.5253,-3.5027,-3.4876,-3.4605,-3.4575,-3.455,-3.4198,-3.3897,-3.3445,-3.3169,-3.3269,-3.3294,-3.3244,-3.3018,-3.2968,-3.2616,-3.2014,-3.1562,-3.1311,-3.1185,-3.106,-3.0959,-3.0758,-3.0909,-3.106,-3.0859,-3.0683,-3.0834,-5.8411,-5.8022,-5.7034,-5.6436,-5.6128,-5.5478,-5.5209,-5.5209,-5.5209,-5.5209,-5.5089,-5.485,-5.4521,-5.4012,-5.3204,-5.2187,-5.1439,-5.1229,-5.1229,-5.1229,-5.1229,-5.1229,-5.1229,-5.1229,-5.1229,-5.1229,-5.1229,-5.1229,-5.1229,-5.1229,-5.1229,-5.1139,-5.0823,-5.0554,-5.0226,-4.9912,-4.9404,-4.8895,-4.8476,-4.8177,-4.7788,-4.7549,-4.71,-4.6817,-4.6459,-4.6142,-4.5873,-4.5394,-4.5155,-4.4885,-4.4825,-4.4466,-4.4007,-4.3768,-4.3648,-4.3369,-4.328,-4.329,-4.2941,-4.1823,-4.0703,-4.0447,-3.8604,-3.7356,-3.7103,-3.6709,-3.6405,-3.6405,-3.6405,-3.6405,-3.6405,-3.6405,-3.6405,-3.6405,-3.6405,-3.6405,-3.6405,-3.6405,-3.6405,-3.6405,-3.6355,-3.6329,-3.6355,-3.6229,-3.6204,-3.6081,-3.5956,-3.573,-3.5454,-3.5303,-3.5107,-3.5031,-3.5002,-3.4675,-3.4349,-3.4022,-3.3646,-3.3696,-3.3696,-3.3646,-3.3571,-3.352,-3.3144,-3.2591,-3.2215,-3.1938,-3.1662,-3.1562,-3.1486,-3.1436,-3.1386,-3.1386,-3.1361,-3.1361,-3.1512,-5.7992,-5.7633,-5.6615,-5.6077,-5.5897,-5.5418,-5.5209,-5.5209,-5.5209,-5.5209,-5.5209,-5.5149,-5.488,-5.4311,-5.3473,-5.2486,-5.1289,-5.1229,-5.1229,-5.1229,-5.1229,-5.1229,-5.1229,-5.1229,-5.1229,-5.1229,-5.1229,-5.1229,-5.1229,-5.1229,-5.1229,-5.1199,-5.1199,-5.0943,-5.0495,-5.0435,-5.0032,-4.9494,-4.8985,-4.8656,-4.8207,-4.7668,-4.7106,-4.6901,-4.6397,-4.6073,-4.5898,-4.5155,-4.5217,-4.525,-4.5173,-4.4739,-4.4288,-4.4333,-4.4135,-4.3456,-4.3119,-4.305,-4.278,-4.1239,-4.0059,-3.9972,-3.7997,-3.6989,-3.6452,-3.6499,-3.6405,-3.6405,-3.6405,-3.6405,-3.6405,-3.6405,-3.6405,-3.6405,-3.6405,-3.6405,-3.6405,-3.6405,-3.6405,-3.6405,-3.6405,-3.6405,-3.6405,-3.6405,-3.6329,-3.6304,-3.6157,-3.6182,-3.5931,-3.583,-3.568,-3.5554,-3.5378,-3.5031,-3.4781,-3.465,-3.4374,-3.4299,-3.4299,-3.4248,-3.4148,-3.4073,-3.3621,-3.3244,-3.2993,-3.2692,-3.2365,-3.2114,-3.2139,-3.2064,-3.1838,-3.1813,-3.2081,-3.2106,-3.2156,-5.7453,-5.6376,-5.6226,-5.5837,-5.5359,-5.5239,-5.5209,-5.5209,-5.5209,-5.5209,-5.5209,-5.5179,-5.5119,-5.47,-5.3683,-5.2456,-5.1588,-5.1229,-5.1229,-5.1229,-5.1229,-5.1229,-5.1229,-5.1229,-5.1229,-5.1229,-5.1229,-5.1229,-5.1229,-5.1229,-5.1229,-5.1229,-5.1229,-5.1092,-5.099,-5.0913,-5.0734,-5.0196,-4.9986,-4.9434,-4.8416,-4.7728,-4.6845,-4.6032,-4.5647,-4.5486,-4.5322,-4.455,-4.4469,-4.5661,-4.4996,-4.4211,-4.382,-4.4625,-4.4385,-4.3481,-4.2618,-4.2222,-4.2677,-4.1029,-3.9667,-3.9448,-3.8334,-3.7474,-3.6709,-3.6405,-3.6405,-3.6405,-3.6405,-3.6405,-3.6405,-3.6405,-3.6405,-3.6405,-3.6405,-3.6405,-3.6405,-3.6405,-3.6405,-3.6405,-3.6405,-3.6405,-3.6405,-3.6405,-3.6405,-3.6405,-3.6405,-3.6405,-3.638,-3.6182,-3.6107,-3.5956,-3.583,-3.5529,-3.5429,-3.5228,-3.5127,-3.4977,-3.4951,-3.4876,-3.468,-3.453,-3.4299,-3.3947,-3.3696,-3.347,-3.3169,-3.2993,-3.2893,-3.2692,-3.2483,-3.2659,-3.2935,-3.2885,-3.2659,-5.6675,-5.6188,-5.5777,-5.5448,-5.5209,-5.5209,-5.5209,-5.5209,-5.5209,-5.5209,-5.5209,-5.5209,-5.4999,-5.4521,-5.3563,-5.2695,-5.1858,-5.1409,-5.1229,-5.1229,-5.1229,-5.1229,-5.1229,-5.1229,-5.1229,-5.1229,-5.1229,-5.1229,-5.1229,-5.1229,-5.1229,-5.1229,-5.1229,-5.1229,-5.1229,-5.1229,-5.1079,-5.0704,-5.0345,-4.9763,-4.8925,-4.8193,-4.7214,-4.5999,-4.559,-4.5035,-4.4303,-4.3975,-4.3798,-4.4624,-4.4047,-4.3628,-4.3149,-4.3312,-4.3243,-4.2362,-4.1211,-4.1387,-4.2276,-4.0281,-3.9336,-3.8675,-3.7933,-3.6896,-3.6452,-3.6405,-3.6405,-3.6405,-3.6405,-3.6405,-3.6405,-3.6405,-3.6405,-3.6405,-3.6405,-3.6405,-3.6405,-3.6405,-3.6405,-3.6405,-3.6405,-3.6405,-3.6405,-3.6405,-3.6405,-3.6405,-3.6405,-3.6405,-3.6405,-3.6355,-3.6329,-3.6329,-3.6229,-3.6031,-3.5981,-3.5927,-3.5855,-3.5755,-3.578,-3.5629,-3.5257,-3.5031,-3.4851,-3.4625,-3.4349,-3.4123,-3.3922,-3.3571,-3.3194,-3.3119,-3.3111,-3.3187,-3.3194,-3.3086,-3.2935,-5.5927,-5.5918,-5.5388,-5.5209,-5.5209,-5.5209,-5.5209,-5.5209,-5.5209,-5.5209,-5.5209,-5.5179,-5.482,-5.4251,-5.3683,-5.3025,-5.2157,-5.1678,-5.1379,-5.1289,-5.1229,-5.1229,-5.1229,-5.1229,-5.1229,-5.1229,-5.1229,-5.1229,-5.1229,-5.1229,-5.1229,-5.1229,-5.1229,-5.1229,-5.1229,-5.1229,-5.1169,-5.1109,-5.0495,-5.0002,-4.9464,-4.8865,-4.7519,-4.6299,-4.5324,-4.4518,-4.3245,-4.2496,-4.2447,-4.3571,-4.3136,-4.2726,-4.2398,-4.2739,-4.2582,-4.1805,-4.0804,-4.0835,-4.1013,-3.986,-3.8543,-3.8022,-3.7381,-3.6776,-3.6679,-3.6556,-3.6405,-3.6405,-3.6405,-3.6405,-3.6405,-3.6405,-3.6405,-3.6405,-3.6405,-3.6405,-3.6405,-3.6405,-3.6405,-3.6405,-3.6405,-3.6405,-3.6405,-3.6405,-3.6405,-3.6405,-3.6405,-3.6405,-3.6405,-3.6405,-3.6405,-3.6405,-3.638,-3.6279,-3.6304,-3.6329,-3.6405,-3.6405,-3.6405,-3.6304,-3.5855,-3.5655,-3.5479,-3.5253,-3.4951,-3.463,-3.4424,-3.3922,-3.3495,-3.3646,-3.3696,-3.342,-3.3345,-3.3219,-3.3162,-5.5269,-5.5239,-5.5209,-5.5209,-5.5209,-5.5209,-5.5209,-5.5209,-5.5209,-5.5209,-5.5209,-5.5149,-5.485,-5.4341,-5.4042,-5.3414,-5.2276,-5.2187,-5.1798,-5.1439,-5.1229,-5.1229,-5.1229,-5.1229,-5.1229,-5.1229,-5.1229,-5.1229,-5.1229,-5.1229,-5.1229,-5.1229,-5.1229,-5.1229,-5.1229,-5.1229,-5.1229,-5.1109,-5.0614,-5.0315,-5.0032,-4.9342,-4.785,-4.5476,-4.4581,-4.3725,-4.1842,-4.0972,-4.1095,-4.2861,-4.2181,-4.1739,-4.1652,-4.2183,-4.2027,-4.1338,-4.0755,-4.0663,-4.0399,-3.9425,-3.8836,-3.8777,-3.8232,-3.7136,-3.7111,-3.6659,-3.6505,-3.6581,-3.6656,-3.6531,-3.648,-3.6405,-3.6405,-3.6405,-3.6405,-3.6405,-3.6405,-3.6405,-3.6405,-3.6405,-3.6405,-3.6405,-3.6405,-3.6405,-3.6405,-3.6405,-3.6405,-3.6405,-3.6405,-3.6405,-3.6405,-3.6405,-3.6405,-3.638,-3.638,-3.6405,-3.6405,-3.6405,-3.6405,-3.6405,-3.6279,-3.6107,-3.5931,-3.5755,-3.5454,-3.5177,-3.4931,-3.4751,-3.4575,-3.4474,-3.4324,-3.3997,-3.3771,-3.3696,-3.3495,-5.5209,-5.5209,-5.5209,-5.5209,-5.5209,-5.5209,-5.5209,-5.5209,-5.5209,-5.5209,-5.5209,-5.5179,-5.5059,-5.476,-5.4341,-5.3982,-5.3324,-5.2486,-5.2127,-5.1738,-5.1498,-5.1259,-5.1229,-5.1229,-5.1229,-5.1229,-5.1229,-5.1229,-5.1229,-5.1229,-5.1229,-5.1229,-5.1259,-5.1229,-5.1229,-5.1289,-5.1259,-5.1199,-5.102,-5.084,-5.069,-5.0074,-4.8489,-4.5943,-4.5099,-4.3556,-4.1363,-4.0564,-4.0722,-4.0897,-4.0719,-4.0592,-4.0567,-4.1169,-4.1069,-4.0642,-4.0309,-4.0207,-4.0002,-3.8917,-3.831,-3.8358,-3.8034,-3.7688,-3.7688,-3.7437,-3.7387,-3.7312,-3.7084,-3.6933,-3.6908,-3.6631,-3.6405,-3.6405,-3.6455,-3.6531,-3.6581,-3.6656,-3.6556,-3.6606,-3.6505,-3.6405,-3.6405,-3.6405,-3.6405,-3.6405,-3.6405,-3.6405,-3.6405,-3.6405,-3.6405,-3.6405,-3.6405,-3.6405,-3.6405,-3.6405,-3.6405,-3.6405,-3.6405,-3.6405,-3.6405,-3.6405,-3.6229,-3.6056,-3.6006,-3.5805,-3.5705,-3.573,-3.5529,-3.5077,-3.4751,-3.443,-3.4299,-3.4123,-3.3997,-5.5209,-5.5209,-5.5209,-5.5209,-5.5209,-5.5209,-5.5209,-5.5209,-5.5209,-5.5209,-5.5209,-5.5209,-5.5209,-5.5029,-5.476,-5.4341,-5.3952,-5.3264,-5.2636,-5.2187,-5.1768,-5.1409,-5.1289,-5.1229,-5.1229,-5.1229,-5.1229,-5.1229,-5.1229,-5.1229,-5.1229,-5.1289,-5.1409,-5.1528,-5.1558,-5.1498,-5.1498,-5.1498,-5.1289,-5.1229,-5.1109,-5.0236,-4.8759,-4.6406,-4.539,-4.3563,-4.1566,-4.0629,-4.0352,-4.0206,-3.9978,-3.98,-3.9749,-3.9697,-3.9697,-3.9697,-3.9697,-3.9697,-3.9446,-3.9094,-3.8517,-3.8793,-3.8466,-3.8291,-3.8241,-3.814,-3.7839,-3.7864,-3.7613,-3.7437,-3.7412,-3.7161,-3.7036,-3.7136,-3.7111,-3.7136,-3.7111,-3.7136,-3.691,-3.6832,-3.6732,-3.6681,-3.643,-3.6455,-3.6455,-3.6455,-3.6405,-3.6405,-3.6405,-3.6405,-3.6405,-3.6405,-3.6405,-3.6405,-3.6405,-3.6405,-3.6405,-3.6405,-3.6405,-3.6405,-3.6405,-3.6405,-3.6405,-3.6304,-3.6279,-3.638,-3.6304,-3.6128,-3.578,-3.5429,-3.5177,-3.4931,-3.4555,-3.4449,-3.4525,-5.5209,-5.5209,-5.5209,-5.5209,-5.5209,-5.5209,-5.5209,-5.5209,-5.5209,-5.5209,-5.5209,-5.5209,-5.5209,-5.5179,-5.5029,-5.479,-5.4401,-5.4072,-5.3473,-5.2636,-5.2127,-5.1768,-5.1468,-5.1289,-5.1229,-5.1229,-5.1229,-5.1229,-5.1229,-5.1229,-5.1229,-5.1202,-5.1435,-5.2013,-5.2139,-5.2187,-5.2187,-5.2067,-5.1528,-5.1379,-5.0934,-5.0026,-4.8338,-4.6684,-4.5194,-4.3493,-4.1783,-4.1003,-4.0727,-4.035,-3.9998,-3.9823,-3.9697,-3.9697,-3.9697,-3.9697,-3.9697,-3.9697,-3.9672,-3.9622,-3.9496,-3.9371,-3.8994,-3.8868,-3.8743,-3.8467,-3.8241,-3.8417,-3.809,-3.799,-3.7965,-3.7889,-3.7789,-3.7713,-3.7663,-3.7638,-3.7613,-3.7588,-3.7362,-3.7211,-3.7136,-3.701,-3.6707,-3.648,-3.6505,-3.648,-3.643,-3.6405,-3.6405,-3.6405,-3.6405,-3.6405,-3.6405,-3.6405,-3.6405,-3.6405,-3.6405,-3.6405,-3.6405,-3.6405,-3.6405,-3.6405,-3.6405,-3.6405,-3.6405,-3.6405,-3.6405,-3.638,-3.6103,-3.5805,-3.568,-3.5382,-3.5006,-3.4831,-3.5077,-5.5209,-5.5209,-5.5209,-5.5209,-5.5209,-5.5209,-5.5209,-5.5209,-5.5209,-5.5209,-5.5209,-5.5209,-5.5209,-5.5209,-5.5179,-5.5059,-5.482,-5.4311,-5.3713,-5.3503,-5.2725,-5.2157,-5.1798,-5.1468,-5.1259,-5.1229,-5.1229,-5.1182,-5.1229,-5.1058,-5.0508,-5.0348,-5.0915,-5.1945,-5.2573,-5.2815,-5.2695,-5.2247,-5.1917,-5.1631,-5.1071,-4.9824,-4.8375,-4.6684,-4.5313,-4.3721,-4.207,-4.1634,-4.1229,-4.0727,-4.0325,-4.0049,-3.9798,-3.9722,-3.9697,-3.9697,-3.9697,-3.9697,-3.9697,-3.9672,-3.9697,-3.9622,-3.9521,-3.9371,-3.9346,-3.927,-3.9145,-3.8969,-3.8693,-3.8617,-3.8567,-3.8165,-3.799,-3.7939,-3.7889,-3.7889,-3.7889,-3.7889,-3.7814,-3.7764,-3.7713,-3.7638,-3.7387,-3.701,-3.691,-3.6782,-3.6732,-3.6505,-3.643,-3.643,-3.6405,-3.6405,-3.6405,-3.6405,-3.6405,-3.6405,-3.6405,-3.6405,-3.6405,-3.6405,-3.6405,-3.6405,-3.6405,-3.6405,-3.6405,-3.6405,-3.6405,-3.6405,-3.6405,-3.6279,-3.6031,-3.5956,-3.5755,-3.573,-3.5906,-5.5209,-5.5209,-5.5209,-5.5209,-5.5209,-5.5209,-5.5209,-5.5209,-5.5209,-5.5209,-5.5209,-5.5209,-5.5209,-5.5209,-5.5209,-5.5209,-5.5149,-5.479,-5.4281,-5.4162,-5.3414,-5.2725,-5.2187,-5.1768,-5.1498,-5.1319,-5.1135,-5.1058,-5.0412,-5.046,-4.9873,-4.9388,-4.9825,-5.0726,-5.1773,-5.2544,-5.3384,-5.2935,-5.2606,-5.1661,-5.0651,-4.9235,-4.7707,-4.629,-4.4969,-4.3592,-4.2789,-4.2238,-4.1911,-4.1178,-4.0727,-4.04,-4.0049,-3.9823,-3.9747,-3.9697,-3.9697,-3.9697,-3.9697,-3.9697,-3.9697,-3.9672,-3.9697,-3.9697,-3.9697,-3.9597,-3.9597,-3.9496,-3.9295,-3.9195,-3.9044,-3.8592,-3.8542,-3.8517,-3.8517,-3.8542,-3.8567,-3.8592,-3.8467,-3.8417,-3.8291,-3.8241,-3.809,-3.7764,-3.7462,-3.7236,-3.7059,-3.6782,-3.6505,-3.643,-3.643,-3.6405,-3.6405,-3.6405,-3.6405,-3.6405,-3.6405,-3.6405,-3.6405,-3.6405,-3.6405,-3.6405,-3.6405,-3.6405,-3.6405,-3.6405,-3.6405,-3.6405,-3.6405,-3.6405,-3.6355,-3.6329,-3.6405,-3.6405,-3.6405,-5.5209,-5.5209,-5.5209,-5.5209,-5.5209,-5.5209,-5.5209,-5.5209,-5.5209,-5.5209,-5.5209,-5.5209,-5.5209,-5.5209,-5.5209,-5.5209,-5.5179,-5.5119,-5.479,-5.4401,-5.3982,-5.3264,-5.2606,-5.2157,-5.1708,-5.1379,-5.1058,-5.0603,-4.9406,-4.8688,-4.8291,-4.8423,-4.8719,-4.9649,-5.0865,-5.2168,-5.3263,-5.3,-5.2141,-5.1425,-5.0592,-4.8353,-4.695,-4.5635,-4.4292,-4.3411,-4.2791,-4.2539,-4.2288,-4.1785,-4.1204,-4.0777,-4.04,-4.0023,-3.9848,-3.9747,-3.9772,-3.9798,-3.9697,-3.9697,-3.9697,-3.9697,-3.9697,-3.9697,-3.9697,-3.9697,-3.9697,-3.9697,-3.9546,-3.9597,-3.9546,-3.9496,-3.9471,-3.9446,-3.9471,-3.9471,-3.9496,-3.9421,-3.9245,-3.9094,-3.8944,-3.8768,-3.8467,-3.8191,-3.8015,-3.7864,-3.7588,-3.7211,-3.6885,-3.6455,-3.643,-3.6405,-3.6405,-3.6405,-3.6405,-3.643,-3.6405,-3.6405,-3.6405,-3.6405,-3.6405,-3.6405,-3.6405,-3.6405,-3.6405,-3.6405,-3.6405,-3.6405,-3.6405,-3.6405,-3.6405,-3.6405,-3.6405,-3.6405,-3.6405,-5.5209,-5.5209,-5.5209,-5.5209,-5.5209,-5.5209,-5.5209,-5.5209,-5.5209,-5.5209,-5.5209,-5.5209,-5.5209,-5.5209,-5.5209,-5.5209,-5.5209,-5.5179,-5.5089,-5.482,-5.4461,-5.3683,-5.3054,-5.2456,-5.1887,-5.1391,-5.1041,-5.0335,-4.8886,-4.7605,-4.7466,-4.8452,-4.7649,-4.8544,-4.9886,-5.1255,-5.1885,-5.2145,-5.1184,-5.0947,-5.0118,-4.7944,-4.6699,-4.5582,-4.3987,-4.3209,-4.2886,-4.2811,-4.2615,-4.2137,-4.1936,-4.1555,-4.1025,-4.0874,-4.0777,-4.0325,-4.0249,-4.0149,-3.9798,-3.9722,-3.9772,-3.9823,-3.9798,-3.9697,-3.9697,-3.9747,-3.9747,-3.9697,-3.9697,-3.9697,-3.9697,-3.9697,-3.9697,-3.9697,-3.9697,-3.9697,-3.9697,-3.9647,-3.9496,-3.9471,-3.932,-3.9245,-3.8944,-3.8743,-3.8592,-3.8467,-3.8216,-3.7789,-3.7387,-3.6983,-3.6732,-3.6732,-3.6556,-3.6581,-3.648,-3.6455,-3.643,-3.6405,-3.6405,-3.6405,-3.6405,-3.6405,-3.6405,-3.6405,-3.6405,-3.6405,-3.6405,-3.6405,-3.6405,-3.6405,-3.6405,-3.6405,-3.6405,-3.6405,-3.6505,-5.494,-5.5179,-5.5209,-5.5209,-5.5209,-5.5209,-5.5209,-5.5209,-5.5209,-5.5209,-5.5209,-5.5209,-5.5209,-5.5209,-5.5209,-5.5209,-5.5209,-5.5209,-5.5149,-5.5029,-5.476,-5.4221,-5.3563,-5.2875,-5.2306,-5.1673,-5.0626,-4.9533,-4.801,-4.5926,-4.5304,-4.6398,-4.6074,-4.7148,-4.8069,-4.8699,-4.9518,-5.0023,-5.0128,-5.0135,-4.9075,-4.7566,-4.6544,-4.5526,-4.3781,-4.3265,-4.2986,-4.2986,-4.276,-4.2489,-4.2414,-4.2087,-4.1605,-4.1455,-4.12,-4.0852,-4.0774,-4.0648,-4.0501,-4.0425,-4.0375,-4.0325,-4.03,-4.04,-4.0174,-4.0074,-3.9873,-3.9697,-3.9697,-3.9697,-3.9697,-3.9697,-3.9697,-3.9697,-3.9697,-3.9697,-3.9697,-3.9697,-3.9672,-3.9672,-3.9672,-3.9647,-3.9496,-3.9295,-3.917,-3.9044,-3.8818,-3.8442,-3.8065,-3.7663,-3.7412,-3.7312,-3.701,-3.6807,-3.6707,-3.6631,-3.6556,-3.6531,-3.6405,-3.6405,-3.643,-3.643,-3.6455,-3.643,-3.6405,-3.6405,-3.6405,-3.6405,-3.6405,-3.6405,-3.6405,-3.6405,-3.6405,-3.6405,-3.6556,-5.4491,-5.5089,-5.5179,-5.5209,-5.5209,-5.5209,-5.5209,-5.5209,-5.5209,-5.5209,-5.5209,-5.5209,-5.5209,-5.5209,-5.5209,-5.5209,-5.5209,-5.5209,-5.5209,-5.5209,-5.5089,-5.461,-5.3862,-5.3443,-5.2546,-5.1547,-5.0301,-4.8688,-4.663,-4.4804,-4.3685,-4.379,-4.4515,-4.5526,-4.6287,-4.6798,-4.7665,-4.8347,-4.8798,-4.8896,-4.8074,-4.6684,-4.5226,-4.4316,-4.3538,-4.2986,-4.2986,-4.2986,-4.2986,-4.2785,-4.264,-4.2338,-4.2082,-4.1882,-4.163,-4.1376,-4.1404,-4.12,-4.1075,-4.1,-4.1075,-4.1125,-4.125,-4.11,-4.0802,-4.0325,-4.0023,-3.9873,-3.9873,-3.9747,-3.9697,-3.9697,-3.9697,-3.9697,-3.9697,-3.9697,-3.9697,-3.9697,-3.9697,-3.9697,-3.9697,-3.9697,-3.9672,-3.9446,-3.9421,-3.9446,-3.9346,-3.8994,-3.8768,-3.8366,-3.8065,-3.7914,-3.7538,-3.7236,-3.7186,-3.7061,-3.6784,-3.6707,-3.6656,-3.6757,-3.7008,-3.6807,-3.648,-3.6455,-3.6405,-3.6405,-3.6405,-3.643,-3.643,-3.6405,-3.6405,-3.6405,-3.6405,-3.6405,-3.6631,-5.3832,-5.4491,-5.4999,-5.5209,-5.5209,-5.5209,-5.5209,-5.5209,-5.5209,-5.5209,-5.5209,-5.5209,-5.5209,-5.5209,-5.5209,-5.5209,-5.5209,-5.5209,-5.5209,-5.5209,-5.5209,-5.47,-5.3683,-5.3384,-5.2606,-5.1327,-4.9786,-4.7836,-4.5555,-4.3984,-4.3263,-4.3815,-4.4367,-4.492,-4.5472,-4.6024,-4.661,-4.7121,-4.732,-4.8175,-4.8452,-4.6517,-4.4757,-4.4551,-4.4151,-4.3148,-4.3011,-4.2986,-4.2986,-4.2911,-4.2861,-4.2841,-4.2816,-4.2635,-4.2359,-4.2057,-4.1957,-4.1806,-4.1605,-4.1476,-4.1476,-4.1401,-4.1376,-4.13,-4.105,-4.0601,-4.03,-4.0199,-4.0049,-3.9898,-3.9798,-3.9798,-3.9798,-3.9798,-3.9747,-3.9747,-3.9722,-3.9697,-3.9697,-3.9697,-3.9697,-3.9697,-3.9697,-3.9697,-3.9697,-3.9672,-3.9622,-3.9471,-3.9421,-3.9145,-3.8642,-3.8391,-3.804,-3.7789,-3.7739,-3.7588,-3.7312,-3.7337,-3.7387,-3.7487,-3.7538,-3.7262,-3.6935,-3.6581,-3.6405,-3.6631,-3.6681,-3.6455,-3.643,-3.6505,-3.6405,-3.6405,-3.6405,-3.6405,-3.6707,-5.3144,-5.3803,-5.4491,-5.494,-5.5149,-5.5209,-5.5209,-5.5209,-5.5209,-5.5209,-5.5209,-5.5209,-5.5209,-5.5209,-5.5209,-5.5209,-5.5209,-5.5209,-5.5209,-5.5209,-5.5119,-5.482,-5.4162,-5.3414,-5.2935,-5.1713,-4.9165,-4.6888,-4.4481,-4.3653,-4.3263,-4.379,-4.4342,-4.4895,-4.5472,-4.5974,-4.6326,-4.6301,-4.6326,-4.7059,-4.8266,-4.636,-4.5009,-4.4883,-4.4255,-4.3338,-4.3011,-4.2986,-4.2986,-4.2986,-4.2961,-4.2936,-4.2936,-4.2886,-4.2785,-4.2665,-4.2484,-4.2384,-4.2133,-4.2007,-4.1982,-4.1957,-4.2032,-4.2183,-4.2108,-4.1656,-4.1128,-4.0978,-4.0749,-4.0626,-4.0626,-4.0626,-4.0626,-4.0626,-4.03,-4.0074,-3.9873,-3.9697,-3.9697,-3.9697,-3.9697,-3.9697,-3.9697,-3.9697,-3.9697,-3.9697,-3.9672,-3.9672,-3.9697,-3.9697,-3.9245,-3.8919,-3.8567,-3.8391,-3.8366,-3.8115,-3.7814,-3.7939,-3.814,-3.7939,-3.7814,-3.7688,-3.7437,-3.7136,-3.701,-3.7186,-3.7136,-3.686,-3.6734,-3.6883,-3.6656,-3.6405,-3.6455,-3.6556,-3.6732,-5.2456,-5.3114,-5.3892,-5.4521,-5.5029,-5.5149,-5.5209,-5.5209,-5.5209,-5.5209,-5.5209,-5.5209,-5.5209,-5.5209,-5.5209,-5.5209,-5.5209,-5.5209,-5.5209,-5.5209,-5.5209,-5.485,-5.4341,-5.3743,-5.2653,-5.0953,-4.8584,-4.5927,-4.3295,-4.3011,-4.3237,-4.3765,-4.4317,-4.4869,-4.5397,-4.5949,-4.6326,-4.6326,-4.6326,-4.6326,-4.6194,-4.5799,-4.5338,-4.4752,-4.4192,-4.3639,-4.3263,-4.3087,-4.3112,-4.2986,-4.2986,-4.2986,-4.2986,-4.2986,-4.2986,-4.2861,-4.2836,-4.2836,-4.2811,-4.276,-4.2811,-4.2886,-4.2986,-4.2911,-4.2785,-4.2509,-4.1982,-4.1731,-4.1476,-4.125,-4.125,-4.125,-4.125,-4.1175,-4.0802,-4.0475,-4.0199,-3.9948,-3.9923,-3.9923,-3.9848,-3.9848,-3.9747,-3.9747,-3.9722,-3.9722,-3.9722,-3.9697,-3.9697,-3.9697,-3.9496,-3.932,-3.912,-3.8994,-3.8944,-3.8743,-3.8467,-3.8542,-3.8668,-3.8366,-3.814,-3.814,-3.8065,-3.7864,-3.7814,-3.7764,-3.7688,-3.7462,-3.7362,-3.7287,-3.7186,-3.701,-3.696,-3.6985,-3.6857,-5.1798,-5.2486,-5.3683,-5.4281,-5.4491,-5.497,-5.5209,-5.5209,-5.5209,-5.5209,-5.5209,-5.5209,-5.5209,-5.5209,-5.5209,-5.5209,-5.5209,-5.5209,-5.5209,-5.5209,-5.5209,-5.485,-5.4341,-5.3634,-5.1195,-4.9272,-4.7549,-4.5688,-4.3406,-4.2986,-4.3011,-4.3237,-4.4242,-4.4719,-4.492,-4.5573,-4.6326,-4.6326,-4.6326,-4.6301,-4.6175,-4.5874,-4.5547,-4.5121,-4.4769,-4.4217,-4.3815,-4.3664,-4.3363,-4.3137,-4.2986,-4.2986,-4.2986,-4.2986,-4.2986,-4.2986,-4.2986,-4.2986,-4.2986,-4.2986,-4.2986,-4.2986,-4.2986,-4.2986,-4.2911,-4.2886,-4.2534,-4.2409,-4.2133,-4.1576,-4.153,-4.1476,-4.1451,-4.1401,-4.1178,-4.1078,-4.0902,-4.0802,-4.0752,-4.0576,-4.0375,-4.0199,-3.9923,-3.9898,-3.9873,-3.9873,-3.9823,-3.9798,-3.9697,-3.9697,-3.9722,-3.9647,-3.9546,-3.9597,-3.9521,-3.9421,-3.922,-3.9295,-3.922,-3.8944,-3.8768,-3.8768,-3.8617,-3.8467,-3.8241,-3.809,-3.8015,-3.809,-3.7939,-3.7864,-3.7864,-3.7764,-3.7638,-3.7513,-3.7337]},{"header":{"parameterUnit":"m.s-1","parameterCategory":1,"la1":31.0,"la2":29.5877,"lo1":-88.7671,"lo2":-86.6584,"dy":0.0162,"dx":0.0185,"nx":115,"ny":88,"refTime":"2026-04-02T00:00:00:Z","depth":0,"parameterNumber":3,"parameterNumberName":"V-component_of_WINDS"},"data":[0.0,0.0,0.0,0.0,0.0,0.0,0.0,0.0,0.0,0.0,0.0,0.0,0.0,0.0,0.0,0.0,0.0,0.0,0.0,0.0,0.0,0.0,0.0,0.0,0.0,0.0,0.0,0.0,0.0,0.0,0.0,0.0,0.0,0.0,0.0,0.0,0.0,0.0,0.0,0.0,0.0,0.0,0.0,0.0,0.0,0.0,0.0,0.0,0.0,0.0,0.0,0.0,0.0,0.0,0.0,0.0,0.0,0.0,0.0,0.0,0.0,0.0,0.0,0.0,0.0,0.0,0.0,0.0,0.0,0.0,0.0,0.0,0.0,0.0,0.0,0.0,0.0,0.0,0.0,0.0,0.0,0.0,0.0,0.0,0.0,0.0,0.0,0.0,0.0,0.0,0.0,0.0,0.0,0.0,0.0,0.0,0.0,0.0,0.0,0.0,0.0,0.0,0.0,0.0,0.0,0.0,0.0,0.0,0.0,0.0,0.0,0.0,0.0,0.0,0.0,0.0,0.0,0.0,0.0,0.0,0.0,0.0,0.0,0.0,0.0,0.0,0.0,0.0,0.0,0.0,0.0,0.0,0.0,0.0,0.0,0.0,0.0,0.0,0.0,0.0,0.0,0.0,0.0,0.0,0.0,0.0,0.0,0.0,0.0,0.0,0.0,0.0,0.0,0.0,0.0,0.0,0.0,0.0,0.0,0.0,0.0,0.0,0.0,0.0,0.0,0.0,0.0,0.0,0.0,0.0,0.0,0.0,0.0,0.0,0.0,0.0,0.0,0.0,0.0,0.0,0.0,0.0,0.0,0.0,0.0,0.0,0.0,0.0,0.0,0.0,0.0,0.0,0.0,0.0,0.0,0.0,0.0,0.0,0.0,0.0,0.0,0.0,0.0,0.0,0.0,0.0,0.0,0.0,0.0,0.0,0.0,0.0,0.0,0.0,0.0,0.0,0.0,0.0,0.0,0.0,0.0,0.0,0.0,0.0,0.0,0.0,0.0,0.0,0.0,0.0,0.0,0.0,0.0,0.0,0.0,0.0,0.0,0.0,0.0,0.0,0.0,0.0,0.0,0.0,0.0,0.0,0.0,0.0,0.0,0.0,0.0,0.0,0.0,0.0,0.0,0.0,0.0,0.0,0.0,0.0,0.0,0.0,0.0,0.0,0.0,0.0,0.0,0.0,0.0,0.0,0.0,0.0,0.0,0.0,0.0,0.0,0.0,0.0,0.0,0.0,0.0,0.0,0.0,0.0,0.0,0.0,0.0,0.0,0.0,0.0,0.0,0.0,0.0,0.0,0.0,0.0,0.0,0.0,0.0,0.0,0.0,0.0,0.0,0.0,0.0,0.0,0.0,0.0,0.0,0.0,0.0,0.0,0.0,0.0,0.0,0.0,0.0,0.0,0.0,0.0,0.0,0.0,0.0,0.0,0.0,0.0,0.0,0.0,0.0,0.0,0.0,0.0,0.0,0.0,0.0,0.0,0.0,0.0,0.0,0.0,0.0,0.0,0.0,0.0,0.0,0.0,0.0,0.0,0.0,0.0,0.0,0.0,0.0,0.0,0.0,0.0,0.0,0.0,0.0,0.0,0.0,0.0,0.0,0.0,0.0,0.0,0.0,0.0,0.0,0.0,0.0,0.0,0.0,0.0,0.0,0.0,0.0,0.0,0.0,0.0,0.0,0.0,0.0,0.0,0.0,0.0,0.0,0.0,0.0,0.0,0.0,0.0,0.0,0.0,0.0,0.0,0.0,0.0,0.0,0.0,0.0,0.0,0.0,0.0,0.0,0.0,0.0,0.0,0.0,0.0,0.0,0.0,0.0,0.0,0.0,0.0,0.0,0.0,0.0,0.0,0.0,0.0,0.0,0.0,0.0,0.0,0.0,0.0,0.0,0.0,0.0,0.0,0.0,0.0,0.0,0.0,0.0,0.0,0.0,0.0,0.0,0.0,0.0,0.0,0.0,0.0,0.0,0.0,0.0,0.0,0.0,0.0,0.0,0.0,0.0,0.0,0.0,0.0,0.0,0.0,0.0,0.0,0.0,0.0,0.0,0.0,0.0,0.0,0.0,0.0,0.0,0.0,0.0,0.0,0.0,0.0,0.0,0.0,0.0,0.0,0.0,0.0,0.0,0.0,0.0,0.0,0.0,0.0,0.0,0.0,0.0,0.0,0.0,0.0,0.0,0.0,0.0,0.0,0.0,0.0,0.0,0.0,0.0,0.0,0.0,0.0,0.0,0.0,0.0,0.0,0.0,0.0,0.0,0.0,0.0,0.0,0.0,0.0,0.0,0.0,0.0,0.0,0.0,0.0,0.0,0.0,0.0,0.0,0.0,0.0,0.0,0.0,0.0,0.0,0.0,0.0,0.0,0.0,0.0,0.0,0.0,0.0,0.0,0.0,0.0,0.0,0.0,0.0,0.0,0.0,0.0,0.0,0.0,0.0,0.0,0.0,0.0,0.0,0.0,0.0,0.0,0.0,0.0,0.0,0.0,0.0,0.0,0.0,0.0,0.0,0.0,0.0,0.0,0.0,0.0,0.0,0.0,0.0,0.0,0.0,0.0,0.0,0.0,0.0,0.0,0.0,0.0,0.0,0.0,0.0,0.0,0.0,0.0,0.0,0.0,0.0,0.0,0.0,0.0,0.0,0.0,0.0,0.0,0.0,0.0,0.0,0.0,0.0,0.0,0.0,0.0,0.0,0.0,0.0,0.0,0.0,0.0,0.0,0.0,0.0,0.0,0.0,0.0,0.0,0.0,0.0,0.0,0.0,0.0,0.0,0.0,0.0,0.0,0.0,0.0,0.0,0.0,0.0,0.0,0.0,0.0,0.0,0.0,0.0,0.0,0.0,0.0,0.0,0.0,0.0,0.0,0.0,0.0,0.0,0.0,0.0,0.0,0.0,0.0,0.0,0.0,0.0,0.0,0.0,0.0,0.0,0.0,0.0,0.0,0.0,0.0,0.0,0.0,0.0,0.0,0.0,0.0,0.0,0.0,0.0,0.0,0.0,0.0,0.0,0.0,0.0,0.0,0.0,0.0,0.0,0.0,0.0,0.0,0.0,0.0,0.0,0.0,0.0,0.0,0.0,0.0,0.0,0.0,0.0,0.0,0.0,0.0,0.0,0.0,0.0,0.0,0.0,0.0,0.0,0.0,0.0,0.0,0.0,0.0,0.0,0.0,0.0,0.0,0.0,0.0,0.0,0.0,0.0,0.0,0.0,0.0,0.0,0.0,0.0,0.0,0.0,0.0,0.0,0.0,0.0,0.0,0.0,0.0,0.0,0.0,0.0,0.0,0.0,0.0,0.0,0.0,0.0,0.0,0.0,0.0,0.0,0.0,0.0,0.0,0.0,0.0,0.0,0.0,0.0,0.0,0.0,0.0,0.0,0.0,0.0,0.0,0.0,0.0,0.0,0.0,0.0,0.0,0.0,0.0,0.0,0.0,0.0,0.0,0.0,0.0,0.0,0.0,0.0,0.0,0.0,0.0,0.0,0.0,0.0,0.0,0.0,0.0,0.0,0.0,0.0,0.0,0.0,0.0,0.0,0.0,0.0,0.0,0.0,0.0,0.0,0.0,0.0,0.0,0.0,0.0,0.0,0.0,0.0,0.0,0.0,0.0,0.0,0.0,0.0,0.0,0.0,0.0,0.0,0.0,0.0,0.0,0.0,0.0,0.0,0.0,0.0,0.0,0.0,0.0,0.0,0.0,0.0,0.0,0.0,0.0,0.0,0.0,0.0,0.0,0.0,0.0,0.0,0.0,0.0,0.0,0.0,0.0,0.0,0.0,0.0,0.0,0.0,0.0,0.0,0.0,0.0,0.0,0.0,0.0,0.0,0.0,0.0,0.0,0.0,0.0,0.0,0.0,0.0,0.0,0.0,0.0,0.0,0.0,0.0,0.0,0.0,0.0,0.0,0.0,0.0,0.0,0.0,0.0,0.0,0.0,0.0,0.0,0.0,0.0,0.0,0.0,0.0,0.0,0.0,0.0,0.0,0.0,0.0,0.0,0.0,0.0,0.0,0.0,0.0,0.0,0.0,0.0,0.0,0.0,0.0,0.0,0.0,0.0,0.0,0.0,0.0,0.0,0.0,0.0,0.0,0.0,0.0,0.0,0.0,0.0,0.0,0.0,0.0,0.0,0.0,0.0,0.0,0.0,0.0,0.0,0.0,0.0,0.0,0.0,0.0,0.0,0.0,0.0,0.0,0.0,0.0,0.0,0.0,0.0,0.0,0.0,0.0,0.0,0.0,0.0,0.0,1.0905,0.0,0.0,0.0,0.0,0.0,0.0,0.0,0.0,0.0,0.0,0.0,0.0,0.0,0.0,0.0,0.0,0.0,0.0,0.0,0.0,0.0,0.0,0.0,0.0,0.0,0.0,0.0,0.0,0.0,0.0,0.0,0.0,0.0,0.0,0.0,0.0,0.0,0.0,0.0,0.0,0.0,0.0,0.0,0.0,0.0,0.0,0.0,0.0,0.0,0.0,0.0,0.0,0.0,0.0,0.0,0.0,0.0,0.0,0.0,0.0,0.0,0.0,0.0,0.0,0.0,0.0,0.0,0.0,0.0,0.0,0.0,0.0,0.0,0.0,0.0,0.0,0.0,0.0,0.0,0.0,0.0,0.0,0.0,0.0,0.0,0.0,0.0,0.0,0.0,0.0,0.0,0.0,0.0,0.0,0.0,0.0,0.0,0.0,0.0,0.0,0.0,0.0,0.0,0.0,0.0,0.0,0.0,0.0,0.0,0.0,1.1207,1.0715,1.1169,1.13,1.1019,0.0,0.0,0.0,0.0,0.0,0.0,0.0,0.0,0.0,0.0,0.0,0.0,0.0,0.0,0.0,0.0,0.0,0.0,0.0,0.0,0.0,0.0,0.0,0.0,0.0,0.0,0.0,0.0,0.0,0.0,0.0,0.0,0.0,0.0,0.0,0.0,0.0,0.0,0.0,0.0,0.0,0.0,0.0,0.0,0.0,0.0,0.0,0.0,0.0,0.0,0.0,0.0,0.0,0.0,0.0,0.0,0.0,0.0,0.0,0.0,0.0,0.0,0.0,0.0,0.0,0.0,0.0,0.0,0.0,0.0,0.0,0.0,0.0,0.0,0.0,0.0,0.0,0.0,0.0,0.0,0.0,0.0,0.0,0.0,0.0,0.0,0.0,0.0,0.0,0.0,0.0,0.0,0.0,0.0,0.0,0.0,0.0,0.0,0.0,0.0,0.0,0.0,0.0,0.0,0.0,0.0,0.0,0.0,0.0,0.0,0.0,0.0,1.1912,1.1961,1.1564,0.0,0.0,0.0,0.0,0.0,0.0,0.0,0.0,0.0,0.0,0.0,0.0,0.0,0.0,0.0,0.0,0.0,0.0,0.0,0.0,0.0,0.0,0.0,0.0,0.0,0.0,0.0,0.0,0.0,0.0,0.0,0.0,0.0,0.0,0.0,0.0,0.0,0.0,0.0,0.0,0.0,0.0,0.0,0.0,0.0,0.0,0.0,0.0,0.0,0.0,0.0,0.0,0.0,0.0,0.0,0.0,0.0,0.0,0.0,0.0,0.0,0.0,0.0,0.0,0.0,0.0,0.0,0.0,0.0,0.0,0.0,0.0,0.0,0.0,0.0,0.0,0.0,0.0,0.0,0.0,0.0,0.0,0.0,0.0,0.0,0.0,0.0,0.0,0.0,0.0,0.0,0.0,0.0,0.0,0.0,0.0,0.0,0.0,0.0,0.0,0.0,0.0,0.0,0.0,0.0,0.0,0.0,0.0,0.0,0.0,1.2682,1.3164,1.3171,0.0,1.3123,0.0,0.0,0.0,0.0,0.0,0.0,0.0,0.0,0.0,0.0,0.0,0.0,0.0,0.0,0.0,0.0,0.0,0.0,0.0,0.0,0.0,0.0,0.0,0.0,0.0,0.0,0.0,0.0,0.0,0.0,0.0,0.0,0.0,0.0,0.0,0.0,0.0,0.0,0.0,0.0,0.0,0.0,0.0,0.0,0.0,0.0,0.0,0.0,0.0,0.0,0.0,0.0,0.0,0.0,0.0,0.0,0.0,0.0,0.0,0.0,0.0,0.0,0.0,0.0,0.0,0.0,0.0,0.0,0.0,0.0,0.0,0.0,0.0,0.0,0.0,0.0,0.0,0.0,0.0,0.0,0.0,0.0,0.0,0.0,0.0,0.0,0.0,0.0,0.0,0.0,0.0,0.0,0.0,0.0,0.0,0.0,0.0,0.0,0.0,0.0,0.0,0.0,0.0,0.0,0.0,0.0,0.0,0.0,0.0,0.0,1.3416,1.3326,1.3009,1.2963,0.0,0.0,0.0,0.0,0.0,0.0,0.0,0.0,0.0,0.0,0.0,0.0,0.0,0.0,0.0,0.0,0.0,0.0,0.0,0.0,0.0,0.0,0.0,0.0,0.0,0.0,0.0,0.0,0.0,0.0,0.0,0.0,0.0,0.0,0.0,0.0,0.0,0.0,0.0,0.0,0.0,0.0,0.0,0.0,0.0,0.0,0.0,0.0,0.0,0.0,0.0,0.0,0.0,0.0,0.0,0.0,0.0,0.0,0.0,0.0,0.0,0.0,0.0,0.0,0.0,0.0,0.0,0.0,0.0,0.0,0.0,0.0,0.0,0.0,0.0,0.0,0.0,0.0,0.0,0.0,0.0,0.0,0.0,0.0,0.0,0.0,0.0,0.0,0.0,0.0,0.0,0.0,0.0,0.0,0.0,0.0,0.0,0.0,0.0,0.0,0.0,0.0,0.0,0.0,0.0,0.0,0.0,0.0,0.0,0.0,1.3859,1.3908,1.3532,1.3277,1.3123,1.2998,0.0,0.0,0.0,0.0,0.0,0.0,0.0,0.0,0.0,0.0,0.0,0.0,0.0,0.0,0.0,0.0,0.0,0.0,0.0,0.0,0.0,0.0,0.0,0.0,0.0,0.0,0.0,0.0,0.0,0.0,0.0,0.0,0.0,0.0,0.0,0.0,0.0,0.0,0.0,0.0,0.0,0.0,0.0,0.0,0.0,0.0,0.0,0.0,0.0,0.0,0.0,0.0,0.0,0.0,0.0,0.0,0.0,0.0,0.0,0.0,0.0,0.0,0.0,0.0,0.0,0.0,0.0,0.0,0.0,0.0,0.0,0.0,0.0,0.0,0.0,0.0,0.0,0.0,0.0,0.0,0.0,0.0,0.0,0.0,0.0,0.0,0.0,0.0,0.0,0.0,0.0,0.0,0.0,0.0,0.0,0.0,0.0,0.0,0.0,0.0,0.0,0.0,0.0,0.0,0.0,0.0,0.0,0.0,0.0,1.4621,1.4072,1.4086,1.4538,1.4061,0.0,0.0,0.0,0.0,0.0,0.0,0.0,0.0,0.0,0.0,0.0,0.0,0.0,0.0,0.0,0.0,0.0,0.0,0.0,0.0,0.0,0.0,0.0,0.0,0.0,0.0,0.0,0.0,0.0,0.0,0.0,0.0,0.0,0.0,0.0,0.0,0.0,0.0,0.0,0.0,0.0,0.0,0.0,0.0,0.0,0.0,0.0,0.0,0.0,0.0,0.0,0.0,0.0,0.0,0.0,0.0,0.0,0.0,0.0,0.0,0.0,0.0,0.0,0.0,0.0,0.0,0.0,0.0,0.0,0.0,0.0,0.0,0.0,0.0,0.0,0.0,0.0,0.0,0.0,0.0,0.0,0.0,0.0,0.0,0.0,0.0,0.0,0.0,0.0,0.0,0.0,0.0,0.0,0.0,0.0,0.0,0.0,0.0,0.0,0.0,0.0,0.0,0.0,0.0,0.0,0.0,0.0,0.0,0.0,1.3612,1.3958,1.4425,1.5054,1.3954,1.3182,0.0,0.0,0.0,0.0,0.0,0.0,0.0,0.0,0.0,0.0,0.0,0.0,0.0,0.0,0.0,0.0,0.0,0.0,0.0,0.0,0.0,0.0,0.0,0.0,0.0,0.0,0.0,0.0,0.0,0.0,0.0,0.0,0.0,0.0,0.0,0.0,0.0,0.0,0.0,0.0,0.0,0.0,0.0,0.0,0.0,0.0,0.0,0.0,0.0,0.0,0.0,0.0,0.0,0.0,0.0,0.0,0.0,0.0,0.0,0.0,0.0,0.0,0.0,0.0,0.0,0.0,0.0,0.0,0.0,0.0,0.0,0.0,0.0,0.0,0.0,0.0,0.0,0.0,0.0,0.0,0.0,0.0,0.0,0.0,0.0,0.0,0.0,0.0,0.0,0.0,0.0,0.0,0.0,0.0,0.0,0.0,0.0,0.0,0.0,0.0,0.0,0.0,0.0,0.0,0.0,0.0,0.0,0.0,0.0,1.3002,0.0,1.4884,0.0,1.3634,1.2705,0.0,0.0,0.0,0.0,0.0,0.0,0.0,0.0,0.0,0.0,0.0,0.0,0.0,0.0,0.0,0.0,0.0,0.0,0.0,0.0,0.0,0.0,0.0,0.0,0.0,0.0,0.0,0.0,0.0,0.0,0.0,0.0,0.0,0.0,0.0,0.0,0.0,0.0,0.0,0.0,0.0,0.0,0.0,0.0,0.0,0.0,0.0,0.0,0.0,0.0,0.0,0.0,0.0,0.0,0.0,0.0,0.0,0.0,0.0,0.0,0.0,0.0,0.0,0.0,0.0,0.0,0.0,0.0,0.0,0.0,0.0,0.0,0.0,0.0,0.0,0.0,0.0,0.0,0.0,0.0,0.0,0.0,0.0,0.0,0.0,0.0,0.0,0.0,0.0,0.0,0.0,0.0,0.0,0.0,0.0,0.0,0.0,0.0,0.0,0.0,0.0,0.0,0.0,0.0,0.0,0.0,0.0,0.0,1.2578,1.4062,1.5595,1.5422,1.3373,1.3778,1.2788,0.0,0.0,0.0,0.0,0.0,0.0,0.0,0.0,0.0,0.0,0.0,0.0,0.0,0.0,0.0,0.0,0.0,0.0,0.0,0.0,0.0,0.0,0.0,0.0,0.0,0.0,0.0,0.0,0.0,0.0,0.0,0.0,0.0,0.0,0.0,0.0,0.0,0.0,0.0,0.0,0.0,0.0,0.0,0.0,0.0,0.0,0.0,0.0,0.0,0.0,0.0,0.0,0.0,0.0,0.0,0.0,0.0,0.0,0.0,0.0,0.0,0.0,0.0,0.0,0.0,0.0,0.0,0.0,0.0,0.0,0.0,0.0,0.0,0.0,0.0,0.0,0.0,0.0,0.0,0.0,0.0,0.0,0.0,0.0,0.0,0.0,0.0,0.0,0.0,0.0,0.0,0.0,0.0,0.0,0.0,0.0,0.0,0.0,0.0,0.0,0.0,0.0,0.0,0.0,0.0,0.0,0.0,0.0,0.0,1.3569,1.5126,1.5798,1.5447,1.4168,1.3433,0.0,0.0,0.0,0.0,0.0,0.0,0.0,0.0,0.0,0.0,0.0,0.0,0.0,0.0,0.0,0.0,0.0,0.0,0.0,0.0,0.0,0.0,0.0,0.0,0.0,0.0,0.0,0.0,0.0,0.0,0.0,0.0,0.0,0.0,0.0,0.0,0.0,0.0,0.0,0.0,0.0,0.0,0.0,0.0,0.0,0.0,0.0,0.0,0.0,0.0,0.0,0.0,0.0,0.0,0.0,0.0,0.0,0.0,0.0,0.0,0.0,0.0,0.0,0.0,0.0,0.0,0.0,0.0,0.0,0.0,0.0,0.0,0.0,0.0,0.0,0.0,0.0,0.0,0.0,0.0,0.0,0.0,0.0,0.0,0.0,0.0,0.0,0.0,0.0,0.0,0.0,0.0,0.0,0.0,0.0,0.0,0.0,0.0,0.0,0.0,0.0,0.0,0.0,0.0,0.0,0.0,0.0,0.0,0.0,1.4941,1.6408,1.7099,1.6848,1.5271,1.4268,1.3954,0.0,0.0,0.0,0.0,0.0,0.0,0.0,0.0,0.0,0.0,0.0,0.0,0.0,0.0,0.0,0.0,0.0,0.0,0.0,0.0,0.0,0.0,0.0,0.0,0.0,0.0,0.0,0.0,0.0,0.0,0.0,0.0,0.0,0.0,0.0,0.0,0.0,0.0,0.0,0.0,0.0,0.0,0.0,0.0,0.0,0.0,0.0,0.0,0.0,0.0,0.0,0.0,0.0,0.0,0.0,0.0,0.0,0.0,0.0,0.0,0.0,0.0,0.0,0.0,0.0,0.0,0.0,0.0,0.0,0.0,0.0,0.0,0.0,0.0,0.0,0.0,0.0,0.0,0.0,0.0,0.0,0.0,0.0,0.0,0.0,0.0,0.0,0.0,0.0,0.0,0.0,0.0,0.0,0.0,0.0,0.0,0.0,0.0,0.0,0.0,0.0,0.0,0.0,0.0,0.0,0.0,0.0,0.0,1.7677,1.9329,1.9409,1.7775,1.6974,1.5372,0.0,0.0,0.0,0.0,0.0,0.0,0.0,0.0,0.0,0.0,0.0,0.0,0.0,0.0,0.0,0.0,0.0,0.0,0.0,0.0,0.0,0.0,0.0,0.0,0.0,0.0,0.0,0.0,0.0,0.0,0.0,0.0,0.0,0.0,0.0,0.0,0.0,0.0,0.0,0.0,0.0,0.0,0.0,0.0,0.0,0.0,0.0,0.0,0.0,0.0,0.0,0.0,0.0,0.0,0.0,0.0,0.0,0.0,0.0,0.0,0.0,0.0,0.0,0.0,0.0,0.0,0.0,0.0,0.0,0.0,0.0,0.0,0.0,0.0,0.0,0.0,0.0,0.0,0.0,0.0,0.0,0.0,0.0,0.0,0.0,0.0,0.0,0.0,0.0,0.0,0.0,0.0,0.0,0.0,0.0,0.0,0.0,0.0,0.0,0.0,0.0,0.0,0.0,0.0,0.0,0.0,0.0,0.0,0.0,2.0323,2.3206,2.3558,2.1091,1.8882,1.7426,0.0,0.0,0.0,0.0,0.0,0.0,0.0,0.0,0.0,0.0,0.0,0.0,0.0,0.0,0.0,0.0,0.0,0.0,0.0,0.0,0.0,0.0,0.0,0.0,0.0,0.0,0.0,0.0,0.0,0.0,0.0,0.0,0.0,0.0,0.0,0.0,0.0,0.0,0.0,0.0,0.0,0.0,0.0,0.0,0.0,0.0,0.0,0.0,0.0,0.0,0.0,0.0,0.0,0.0,0.0,0.0,0.0,0.0,0.0,0.0,0.0,0.0,0.0,0.0,0.0,0.0,0.0,0.0,0.0,0.0,0.0,0.0,0.0,0.0,0.0,0.0,0.0,0.0,0.0,0.0,0.0,0.0,0.0,0.0,0.0,0.0,0.0,0.0,0.0,0.0,0.0,0.0,0.0,0.0,0.0,0.0,0.0,0.0,0.0,0.0,0.0,0.0,0.0,0.0,0.0,0.0,0.0,0.0,2.0047,2.2407,2.5549,2.6389,2.4782,2.1816,1.9484,0.0,0.0,0.0,0.0,0.0,0.0,0.0,0.0,0.0,0.0,0.0,0.0,0.0,0.0,0.0,0.0,0.0,0.0,0.0,0.0,0.0,0.0,0.0,0.0,0.0,0.0,0.0,0.0,0.0,0.0,0.0,0.0,0.0,0.0,0.0,0.0,0.0,0.0,0.0,0.0,0.0,0.0,0.0,0.0,0.0,0.0,0.0,0.0,0.0,0.0,0.0,0.0,0.0,0.0,0.0,0.0,0.0,0.0,0.0,0.0,0.0,0.0,0.0,0.0,0.0,0.0,0.0,0.0,0.0,0.0,0.0,0.0,0.0,0.0,0.0,0.0,0.0,0.0,0.0,0.0,0.0,0.0,0.0,0.0,0.0,0.0,0.0,0.0,0.0,0.0,0.0,0.0,0.0,0.0,0.0,0.0,0.0,0.0,0.0,0.0,0.0,0.0,0.0,0.0,0.0,0.0,0.0,0.0,2.1391,2.4204,2.6932,2.8348,2.8172,2.4901,2.1415,0.0,0.0,0.0,0.0,0.0,0.0,0.0,0.0,0.0,0.0,0.0,0.0,0.0,0.0,0.0,0.0,0.0,0.0,0.0,0.0,0.0,0.0,0.0,0.0,0.0,0.0,0.0,0.0,0.0,0.0,0.0,0.0,0.0,0.0,0.0,0.0,0.0,0.0,0.0,0.0,0.0,0.0,0.0,0.0,0.0,0.0,0.0,0.0,0.0,0.0,0.0,0.0,0.0,0.0,0.0,0.0,0.0,0.0,0.0,0.0,0.0,0.0,0.0,0.0,0.0,0.0,0.0,0.0,0.0,0.0,0.0,0.0,0.0,0.0,0.0,0.0,0.0,0.0,0.0,0.0,0.0,0.0,0.0,0.0,0.0,0.0,0.0,0.0,0.0,0.0,0.0,0.0,0.0,0.0,0.0,0.0,0.0,0.0,0.0,0.0,0.0,0.0,0.0,0.0,0.0,0.0,0.0,0.0,2.2982,2.5844,2.8649,2.988,2.9428,2.5302,2.2117,0.0,0.0,0.0,0.0,0.0,0.0,0.0,0.0,0.0,0.0,0.0,0.0,0.0,0.0,0.0,0.0,0.0,0.0,0.0,0.0,0.0,0.0,0.0,0.0,0.0,0.0,0.0,0.0,0.0,0.0,0.0,0.0,0.0,0.0,0.0,0.0,0.0,0.0,0.0,0.0,0.0,0.0,0.0,0.0,0.0,0.0,0.0,0.0,1.0498,0.0,0.0,0.0,0.0,0.0,0.0,0.0,0.0,0.0,0.0,0.0,0.0,0.0,0.0,0.0,0.0,0.0,0.0,0.0,0.0,0.0,0.0,0.0,0.0,0.0,0.0,0.0,0.0,0.0,0.0,0.0,0.0,0.0,0.0,0.0,0.0,0.0,0.0,0.0,0.0,0.0,0.0,0.0,0.0,0.0,0.0,0.0,0.0,0.0,0.0,0.0,0.0,0.0,0.0,0.0,0.0,0.0,0.0,0.0,2.4091,2.7496,2.9574,3.0357,2.9704,2.649,2.3578,0.0,0.0,0.0,0.0,0.0,0.0,0.0,0.0,0.0,0.0,0.0,0.0,0.0,0.0,0.0,0.0,0.0,0.0,0.0,0.0,0.0,0.0,0.0,0.0,0.0,0.0,0.0,0.0,0.0,0.0,0.0,0.0,0.0,0.0,0.0,0.0,0.0,0.0,0.0,0.0,0.0,0.0,0.0,0.0,0.0,0.0,0.0,0.0,0.0,0.0,0.0,0.0,0.0,0.0,0.0,0.0,0.0,0.0,0.0,0.0,0.0,0.0,0.0,0.0,0.0,0.0,0.0,0.0,0.0,0.0,0.0,0.0,0.0,0.0,0.0,0.0,0.0,0.0,0.0,0.0,0.0,0.0,0.0,0.0,0.0,0.0,0.0,0.0,0.0,0.0,0.0,0.0,0.0,0.0,0.0,0.0,0.0,0.0,0.0,0.0,0.0,0.0,0.0,0.0,0.0,0.0,0.0,2.1596,2.4989,2.9,3.0206,3.0432,2.9779,2.7656,2.4976,2.172,0.0,0.0,0.0,0.0,0.0,0.0,0.0,0.0,0.0,0.0,0.0,0.0,0.0,0.0,0.0,0.0,0.0,0.0,0.0,0.0,0.0,0.0,0.0,0.0,0.0,0.0,0.0,0.0,0.0,0.0,0.0,0.0,0.0,0.0,0.0,0.0,0.0,0.0,0.9446,1.1112,0.0,0.0,0.0,0.0,0.0,0.0,0.0,0.0,1.1461,0.0,0.0,0.0,0.0,0.0,0.0,0.0,0.0,0.0,0.0,0.0,0.0,0.0,0.0,0.0,0.0,0.0,0.0,0.0,0.0,0.0,0.0,0.0,0.0,0.0,0.0,0.0,0.0,0.0,0.0,0.0,0.0,0.0,0.0,0.0,0.0,0.0,0.0,0.0,0.0,0.0,0.0,0.0,0.0,0.0,0.0,0.0,0.0,0.0,0.0,0.0,0.0,0.0,0.0,0.0,0.0,2.1469,2.3007,2.5868,3.0192,3.0934,3.0783,2.9779,2.7681,2.5122,2.2267,0.0,0.0,0.0,0.0,0.0,0.0,0.0,0.0,0.0,0.0,0.0,0.0,0.0,0.0,0.0,0.0,0.0,0.0,0.0,0.0,0.0,0.0,0.0,0.0,0.0,0.0,0.0,0.0,0.0,0.0,0.0,0.0,0.0,0.0,0.0,0.0,0.0,0.0,0.0,1.3996,1.4892,0.0,0.0,0.0,0.0,0.0,0.0,0.0,0.0,1.2043,0.0,0.0,0.0,0.0,0.0,0.0,0.0,0.0,0.0,0.0,0.0,0.0,0.0,0.0,0.0,0.0,0.0,0.0,0.0,0.0,0.0,0.0,0.0,0.0,0.0,0.0,0.0,0.0,0.0,0.0,0.0,0.0,0.0,0.0,0.0,0.0,0.0,0.0,0.0,0.0,0.0,0.0,0.0,0.0,0.0,0.0,0.0,0.0,0.0,0.0,0.0,0.0,0.0,0.0,0.0,2.2134,2.4677,2.7704,3.127,3.1411,3.0884,2.9779,2.7344,2.4709,0.0,0.0,0.0,0.0,0.0,0.0,0.0,0.0,0.0,0.0,0.0,0.0,0.0,0.0,0.0,0.0,0.0,0.0,0.0,0.0,0.0,0.0,0.0,0.0,0.0,0.0,0.0,0.0,0.0,0.0,0.0,0.0,0.0,0.0,0.0,0.0,0.0,0.0,0.0,0.0,1.4945,1.5987,1.7169,0.0,0.0,0.0,0.0,0.0,0.0,1.3849,1.2985,0.0,0.0,0.0,0.0,0.0,0.0,0.0,0.0,0.0,0.0,0.0,0.0,0.0,0.0,0.0,0.0,0.0,0.0,0.0,0.0,0.0,0.0,0.0,0.0,0.0,0.0,0.0,0.0,0.0,0.0,0.0,0.0,0.0,0.0,0.0,0.0,0.0,0.0,0.0,0.0,0.0,0.0,0.0,0.0,0.0,0.0,0.0,0.0,0.0,0.0,0.0,0.0,0.0,0.0,0.0,2.2301,2.5983,2.9268,3.2022,3.1662,3.0884,2.9779,2.6967,2.4205,0.0,0.0,0.0,0.0,0.0,0.0,0.0,0.0,0.0,0.0,0.0,0.0,0.0,0.0,0.0,0.0,0.0,0.0,0.0,0.0,0.0,0.0,0.0,0.0,0.0,0.0,0.0,0.0,0.0,0.0,0.0,0.0,0.0,0.0,0.0,0.0,0.0,0.0,0.0,0.0,0.0,1.7165,1.7856,1.6596,0.0,0.0,0.0,0.0,1.568,1.5553,0.0,0.0,0.0,0.0,0.0,0.0,0.0,0.0,0.0,0.0,0.0,0.0,0.0,0.0,0.0,0.0,0.0,0.0,0.0,0.0,0.0,0.0,0.0,0.0,0.0,0.0,0.0,0.0,0.0,0.0,0.0,0.0,0.0,0.0,0.0,0.0,0.0,0.0,0.0,0.0,0.0,0.0,0.0,0.0,0.0,0.0,0.0,0.0,0.0,0.0,0.0,0.0,0.0,0.0,0.0,0.0,2.2142,2.6061,2.9426,3.2039,3.1687,3.0884,2.9804,2.6615,2.3828,0.0,0.0,0.0,0.0,0.0,0.0,0.0,0.0,0.0,0.0,0.0,0.0,0.0,0.0,0.0,0.0,0.0,0.0,0.0,0.0,0.0,0.0,0.0,0.0,0.0,0.0,0.0,0.0,0.0,0.0,0.0,0.0,0.0,0.0,0.0,0.0,0.0,0.0,0.0,0.0,0.0,1.928,1.8299,1.8229,1.8044,0.0,0.0,1.8373,1.9049,2.0001,0.0,0.0,0.0,0.0,0.0,0.0,0.0,0.0,0.0,0.0,0.0,0.0,0.0,0.0,0.0,0.0,0.0,0.0,0.0,0.0,0.0,0.0,0.0,0.0,0.0,0.0,0.0,0.0,0.0,0.0,0.0,0.0,0.0,0.0,0.0,0.0,0.0,0.0,0.0,0.0,0.0,0.0,0.0,0.0,0.0,0.0,0.0,0.0,0.0,0.0,0.0,0.0,0.0,0.0,0.0,1.9994,2.3132,2.7335,3.0557,3.2591,3.1838,3.0884,2.9843,2.6264,2.3301,0.0,0.0,0.0,0.0,0.0,0.0,0.0,0.0,0.0,0.0,0.0,0.0,0.0,0.0,0.0,0.0,0.0,0.0,0.0,0.0,0.0,0.0,0.0,0.0,0.0,0.0,0.0,0.0,0.0,0.0,0.0,0.0,0.0,0.0,0.0,0.0,0.0,0.0,0.0,0.0,0.0,0.0,1.9681,1.98,0.0,0.0,0.0,1.969,1.9211,0.0,0.0,0.0,0.0,0.0,0.0,0.0,0.0,0.0,0.0,0.0,0.0,0.0,0.0,0.0,0.0,0.0,0.0,0.0,0.0,0.0,0.0,0.0,0.0,0.0,0.0,0.0,0.0,0.0,0.0,0.0,0.0,0.0,0.0,0.0,0.0,0.0,0.0,0.0,0.0,0.0,0.0,0.0,0.0,0.0,0.0,0.0,0.0,0.0,0.0,0.0,0.0,0.0,0.0,0.0,0.0,0.0,2.3655,2.825,3.1411,3.2968,3.2005,3.0884,2.9779,2.6414,0.0,0.0,0.0,0.0,0.0,0.0,0.0,0.0,0.0,0.0,0.0,0.0,0.0,0.0,0.0,0.0,0.0,0.0,0.0,0.0,0.0,0.0,0.0,0.0,0.0,0.0,0.0,0.7346,0.0,0.0,0.0,0.0,0.0,0.0,0.0,0.0,0.0,0.0,0.0,0.0,0.0,0.0,1.9744,2.0599,2.1001,2.1316,0.0,0.0,2.0955,2.0231,2.1787,2.1655,0.0,0.0,0.0,0.0,0.0,0.0,0.0,0.0,0.0,0.0,0.0,0.0,0.0,0.0,0.0,0.0,0.0,0.0,0.0,0.0,0.0,0.0,0.0,0.0,0.0,0.0,0.0,0.0,0.0,0.0,0.0,0.0,0.0,0.0,0.0,0.0,0.0,0.0,0.0,0.0,0.0,0.0,0.0,0.0,0.0,0.0,0.0,0.0,0.0,0.0,0.0,0.0,0.0,0.0,0.0,2.3122,2.8037,3.1411,3.3011,3.1989,3.0859,2.9804,2.7555,2.4538,0.0,0.0,0.0,0.0,0.0,0.0,0.0,0.0,0.0,0.0,0.0,0.0,0.0,0.0,0.0,0.0,0.0,0.0,0.0,0.0,0.0,0.0,0.0,0.0,0.0,0.0,0.0,0.0,0.0,0.0,0.0,0.0,0.0,0.0,0.0,0.0,0.0,0.0,0.0,0.0,0.0,2.1336,2.0372,2.1574,2.2981,0.0,2.331,2.2888,2.3835,2.6115,2.5842,2.0028,0.0,0.0,0.0,0.0,0.0,0.0,0.0,0.0,0.0,0.0,0.0,0.0,0.0,0.0,0.0,0.0,0.0,0.0,0.0,0.0,0.0,0.0,0.0,0.0,0.0,0.0,0.0,0.0,0.0,0.0,0.0,0.0,0.0,0.0,0.0,0.0,0.0,0.0,0.0,0.0,0.0,0.0,0.0,0.0,0.0,0.0,0.0,0.0,0.0,0.0,0.0,0.0,0.0,2.0123,2.2975,2.7693,3.1085,3.2986,3.1964,3.0884,2.9804,2.7681,2.4664,0.0,0.0,0.0,0.0,0.0,0.0,0.0,0.0,0.0,0.0,0.0,0.0,0.0,0.0,0.0,0.0,0.0,0.0,0.0,0.0,0.0,0.0,0.0,0.0,0.0,0.0,0.0,0.0,1.0243,1.0397,0.9618,0.0,0.0,0.0,0.0,0.0,0.0,0.0,0.0,0.0,0.0,2.1838,2.277,2.3813,0.0,0.0,2.4515,2.4206,2.3476,2.441,2.3809,1.9571,1.8339,0.0,0.0,0.0,0.0,0.0,0.0,0.0,0.0,0.0,0.0,0.0,0.0,0.0,0.0,0.0,0.0,0.0,0.0,0.0,0.0,0.0,0.0,0.0,0.0,0.0,0.0,0.0,0.0,0.0,0.0,0.0,0.0,0.0,0.0,0.0,0.0,0.0,0.0,0.0,0.0,0.0,0.0,0.0,0.0,0.0,0.0,0.0,0.0,0.0,0.0,0.0,0.0,1.9936,2.2975,2.7459,3.0783,3.2767,3.1888,3.0783,2.9553,2.7871,2.5167,0.0,0.0,0.0,0.0,0.0,0.0,0.0,0.0,0.0,0.0,0.0,0.0,0.0,0.0,0.0,0.0,0.0,0.0,0.0,0.0,0.0,0.0,0.0,0.0,0.0,0.0,0.0,0.0,1.109,1.0998,0.9997,0.0,0.0,0.0,0.0,0.0,0.0,0.0,0.0,0.0,0.0,2.2727,2.4104,2.4694,2.4837,2.4365,2.4499,2.426,2.3285,2.337,2.2671,2.009,0.0,0.0,0.0,0.0,0.0,0.0,0.0,0.0,0.0,0.0,0.0,0.0,0.0,0.0,0.0,0.0,0.0,0.0,0.0,0.0,0.0,0.0,0.0,0.0,0.0,0.0,0.0,1.4411,0.0,0.0,1.3834,0.0,0.0,0.0,0.0,0.0,0.0,0.0,0.0,0.0,0.0,0.0,0.0,0.0,0.0,0.0,0.0,0.0,0.0,0.0,0.0,0.0,0.0,1.9907,2.3008,2.7496,3.0583,3.2164,3.1687,3.0608,2.8988,2.8373,2.6239,2.2372,0.0,0.0,0.0,0.0,0.0,0.0,0.0,0.0,0.0,0.0,0.0,0.0,0.0,0.0,0.0,0.0,0.0,0.0,0.0,0.0,0.0,0.0,0.0,0.0,0.0,0.0,1.001,0.9976,0.9985,0.0,0.0,0.0,0.0,0.0,0.0,0.0,0.0,0.0,0.0,2.2452,2.4253,2.3699,2.364,2.3699,2.367,2.3011,2.2804,2.389,2.4066,2.3685,0.0,0.0,0.0,0.0,0.0,0.0,0.0,0.0,0.0,0.0,0.0,0.0,0.0,0.0,0.0,0.0,0.0,0.0,0.0,0.0,0.0,0.0,0.0,0.0,0.0,0.0,0.0,1.9605,1.8989,0.0,0.0,0.0,0.0,0.0,0.0,0.0,0.0,0.0,0.0,0.0,2.3853,2.4676,0.0,0.0,0.0,0.0,0.0,0.0,0.0,0.0,0.0,0.0,0.0,0.0,2.0361,2.2521,2.7287,3.0407,3.1612,3.1135,3.0432,2.9528,2.8599,2.6289,2.2422,0.0,0.0,0.0,0.0,0.0,0.0,0.0,0.0,0.0,0.0,0.0,0.0,0.0,0.0,0.0,0.0,0.0,0.0,0.0,0.0,0.0,0.0,0.0,0.0,0.0,1.1295,0.0,0.0,0.0,0.0,0.0,0.0,0.0,0.0,0.0,0.0,0.0,1.857,2.0737,2.1994,2.2921,2.352,2.361,2.3909,0.0,0.0,0.0,0.0,0.0,0.0,0.0,0.0,0.0,0.0,0.0,0.0,0.0,0.0,2.1583,1.7139,1.6316,1.6407,1.6633,0.0,0.0,0.0,0.0,0.0,0.0,0.0,0.0,0.0,0.0,0.0,0.0,0.0,0.0,2.3898,2.3293,2.2907,0.0,0.0,0.0,0.0,0.0,0.0,0.0,0.0,2.5792,2.7742,2.789,2.8837,2.89,0.0,2.7128,2.4396,0.0,0.0,0.0,0.0,0.0,0.0,0.0,0.0,2.0718,2.2644,2.7348,3.0231,3.106,3.0783,3.0256,2.9503,2.8222,2.6163,2.3276,2.0891,1.8981,0.0,0.0,0.0,0.0,0.0,0.0,0.0,0.0,0.0,0.0,0.0,0.0,0.0,0.0,0.0,0.0,0.0,0.0,0.0,0.0,0.0,0.0,0.0,1.2816,0.0,0.0,0.0,0.0,0.0,0.0,0.0,0.0,0.0,1.6129,1.824,2.0468,2.2422,2.2921,2.3191,2.355,0.0,0.0,0.0,0.0,0.0,0.0,0.0,2.3323,2.3103,2.2988,2.3217,2.4078,2.539,2.6048,2.5067,0.0,0.0,2.1021,2.0128,2.0196,2.0454,2.0616,2.0542,2.02,2.0616,2.1037,0.0,0.0,0.0,0.0,0.0,0.0,0.0,0.0,2.7119,2.7206,0.0,2.7244,0.0,0.0,0.0,0.0,0.0,2.416,0.0,0.0,3.2244,3.3828,3.2441,3.2893,3.2591,3.1587,3.1436,3.0005,2.7268,2.3155,0.0,0.0,0.0,0.0,0.0,0.0,2.1105,2.3549,2.7704,3.0105,3.0608,3.0608,3.0016,2.8913,2.7429,2.6013,2.485,2.3251,2.1506,1.9653,1.8122,0.0,0.0,0.0,0.0,0.0,0.0,0.0,0.0,0.0,0.0,0.0,0.0,0.0,0.0,0.0,0.0,0.0,0.0,0.0,0.0,1.349,0.0,0.0,0.0,0.0,0.0,0.0,0.0,0.0,0.0,0.0,1.8852,2.0498,2.2392,2.4276,0.0,0.0,0.0,0.0,2.4126,2.2813,2.2993,2.3521,2.4082,2.529,2.6561,2.7585,0.0,0.0,2.8057,2.7959,2.7587,2.615,2.7131,2.7689,2.6894,2.5489,2.4812,2.5406,2.4492,2.3883,2.444,2.4523,2.4591,3.4594,0.0,0.0,0.0,0.0,2.9645,3.152,3.4222,3.4597,3.3905,3.2493,3.2095,0.0,0.0,0.0,0.0,0.0,0.0,2.8851,3.0748,3.3463,3.5102,3.573,3.5575,3.5299,3.4947,3.3746,3.2566,3.1361,2.895,2.4768,1.8958,0.0,0.0,0.0,0.0,2.4054,2.5625,2.8732,3.0457,3.0608,3.0231,2.9679,2.8913,2.8097,2.7118,2.6072,2.4757,2.3281,2.1557,1.956,0.0,0.0,0.0,0.0,0.0,0.0,0.0,0.0,0.0,0.0,0.0,0.0,0.0,0.0,0.0,0.0,0.0,0.0,0.0,1.3229,1.4296,1.458,0.0,0.0,0.0,0.0,0.0,0.0,0.0,0.0,0.0,2.2691,2.2173,2.2233,0.0,0.0,2.2682,2.2293,2.3651,2.4854,2.5321,2.6185,0.0,2.8319,2.8315,2.8275,2.8619,2.9777,3.058,3.0258,3.1089,3.1475,3.0533,3.0717,3.0784,3.0006,2.8739,2.7859,2.796,2.7656,2.7453,2.7656,2.7723,2.769,4.0162,3.6358,3.4072,3.3387,3.3839,3.4379,3.6088,3.8515,3.889,3.814,3.6684,3.6358,3.3997,3.0142,2.8387,0.0,0.0,0.0,3.1991,3.4111,3.5419,3.6433,3.7136,3.6908,3.6606,3.6355,3.5127,3.4374,3.4022,3.239,2.8976,2.3873,0.0,0.0,2.1032,2.412,2.619,2.7281,2.9653,3.0834,3.0608,3.008,2.9503,2.8913,2.8361,2.7695,2.6851,2.5711,2.4456,2.3025,2.146,1.9579,0.0,0.0,0.0,0.0,0.0,0.0,0.0,0.0,0.0,0.0,0.0,0.9995,0.8237,0.0,0.0,0.0,1.247,1.3934,1.5021,1.5406,0.0,0.0,0.0,0.0,0.0,0.0,0.0,2.0827,2.2353,2.3789,2.5196,2.4388,2.4118,2.5405,2.4687,2.4051,2.4051,0.0,2.6585,2.7551,2.8265,2.9173,3.0447,3.0723,3.092,3.1529,3.2341,3.278,3.2577,3.3254,3.3558,3.2949,3.2713,3.2577,3.2138,3.1089,3.0194,2.9924,2.989,2.989,2.9856,2.9856,2.989,4.4694,4.3287,3.8766,3.7441,3.8442,3.8969,3.9772,4.0701,4.0701,4.0375,3.9823,3.9772,3.799,3.481,3.247,0.0,3.4279,3.4424,3.5499,3.7387,3.7864,3.7814,3.7337,3.7236,3.691,3.6455,3.5881,3.5533,3.5408,3.3972,3.2139,3.003,2.7373,2.5802,2.5456,2.6724,2.7857,2.873,3.0496,3.1135,3.0593,3.0131,2.9578,2.8913,2.8398,2.7846,2.7304,2.6223,2.5109,2.4104,2.3453,2.1822,1.9076,0.0,0.0,0.0,0.0,0.0,0.0,0.0,0.0,0.0,0.0,0.0,0.0,0.0,0.0,0.0,1.4839,0.0,1.7345,1.6818,0.0,0.0,0.0,1.7679,2.068,2.1635,2.2772,2.4575,0.0,0.0,2.6722,2.6811,2.732,2.8667,2.8124,2.7585,2.7585,2.8201,2.8961,2.948,2.9739,3.0272,3.161,3.2692,3.3829,3.4979,3.56,3.5194,3.4641,3.4539,3.4303,3.3626,3.3491,3.3457,3.3423,3.2733,3.2192,3.1481,3.1224,3.1157,3.1089,3.1055,3.1055,4.3373,4.3012,4.1413,4.1174,4.1806,4.1986,4.2158,4.2384,4.2384,4.1856,4.0874,4.0501,3.917,3.7163,3.657,3.6818,3.7713,3.7742,3.8241,3.9069,3.8793,3.8592,3.8442,3.7588,3.7111,3.696,3.648,3.5956,3.5483,3.4726,3.3646,3.229,3.1148,2.9322,2.697,2.8375,2.971,3.0701,3.1179,3.1135,3.0633,3.0482,2.9955,2.8913,2.8361,2.7846,2.7329,2.6189,2.5285,2.4632,2.3619,2.2359,2.0733,1.8222,0.0,0.0,0.0,0.0,0.0,0.0,0.0,0.0,0.0,1.2964,1.0315,0.0,1.51,0.0,1.5866,1.7443,1.847,1.8338,0.0,0.0,2.0635,2.1671,2.3493,2.4694,2.5615,2.6063,2.6692,2.7585,2.8753,2.8903,2.9355,3.0584,2.8936,2.7585,2.7615,2.9088,3.0373,3.1007,3.227,3.3608,3.4319,3.4822,3.516,3.5532,3.56,3.5532,3.5363,3.5351,3.5081,3.4404,3.4235,3.4032,3.3525,3.3254,3.3119,3.2848,3.2002,3.119,3.119,3.119,3.119,4.3455,4.3341,4.3748,4.4023,4.4066,4.3045,4.243,4.2266,4.3031,4.2735,4.1681,4.1128,4.0172,3.9145,3.912,3.917,3.9245,3.922,3.9396,3.9647,3.912,3.8793,3.8467,3.7588,3.7061,3.6857,3.6556,3.6081,3.5508,3.5182,3.4525,3.3445,3.3119,3.1788,2.9603,3.0156,3.0809,3.1386,3.1386,3.1361,3.1311,3.0859,3.0041,2.8913,2.8147,2.7243,2.6214,2.536,2.4506,2.3728,2.2844,2.1983,2.1038,1.8977,1.7475,0.0,0.0,0.0,0.0,0.0,0.0,0.0,0.0,0.0,0.0,0.0,1.6544,1.6125,1.7794,1.9108,1.971,1.9915,2.0673,2.2352,2.3031,2.43,2.6594,2.747,2.8158,2.87,2.9116,2.9624,3.0342,3.0462,3.0702,3.1391,3.0283,2.9325,2.9412,3.0334,3.127,3.1974,3.3237,3.452,3.5464,3.56,3.56,3.56,3.56,3.56,3.56,3.56,3.543,3.5081,3.4979,3.4878,3.4472,3.41,3.3897,3.3761,3.2983,3.2273,3.2171,3.1901,3.1684,4.3742,4.3855,4.5074,4.5399,4.4784,4.3072,4.2019,4.1742,4.316,4.3187,4.2187,4.1656,4.1128,4.0626,4.0551,4.0249,3.9798,3.9722,3.9697,3.9672,3.912,3.8567,3.799,3.7437,3.6885,3.643,3.6405,3.6081,3.5508,3.5433,3.4831,3.3822,3.3721,3.3144,3.2139,3.1637,3.1386,3.1386,3.1461,3.1687,3.2089,3.106,2.993,2.8712,2.772,2.6449,2.4782,2.4255,2.3502,2.2443,2.197,2.1468,2.0993,1.9759,1.8652,0.0,1.6545,0.0,0.0,0.0,0.0,0.0,0.0,0.0,0.0,1.7225,1.8129,1.8681,2.0037,2.0968,2.1119,2.1546,2.259,2.4423,2.4887,2.6211,2.9146,2.9719,3.0253,3.1361,3.1511,3.1481,3.1451,3.1511,3.1481,3.1481,3.1391,3.1241,3.1421,3.142,3.1734,3.2492,3.3235,3.4301,3.5316,3.56,3.56,3.56,3.56,3.56,3.56,3.56,3.56,3.56,3.5532,3.5566,3.56,3.5047,3.4641,3.4641,3.41,3.3605,3.3322,3.2848,3.2462,4.1542,4.3606,4.258,4.2092,4.204,4.2973,4.3566,4.3954,4.3876,4.3187,4.2213,4.2112,4.1706,4.11,4.0727,4.045,4.0325,3.9898,3.9697,3.9672,3.917,3.8567,3.799,3.7462,3.6885,3.643,3.6405,3.6081,3.5483,3.5056,3.4324,3.3244,3.2767,3.219,3.1587,0.0,0.0,0.0,3.1838,3.1888,3.1537,3.0482,2.9176,2.7645,2.7002,0.0,2.4255,2.4054,2.3678,2.2995,2.2844,0.0,0.0,0.0,0.0,0.0,0.0,0.0,0.0,0.0,0.0,0.0,2.0113,1.9736,1.8531,1.9811,2.0941,2.1493,2.182,2.2372,2.3276,2.3452,2.4101,2.5474,2.6739,2.8013,2.9262,3.0393,3.1241,3.1451,3.1511,3.1511,3.1511,3.1511,3.1511,3.1511,3.1511,3.1511,3.1511,3.1511,3.1768,3.252,3.3572,3.464,3.5487,3.56,3.56,3.56,3.56,3.56,3.56,3.56,3.56,3.56,3.56,3.56,3.56,3.5487,3.5329,3.5363,3.5261,3.4822,3.366,3.3322,3.3186,4.2963,4.4111,4.385,4.3731,0.0,4.462,4.5168,4.5422,4.4869,4.4016,4.2961,4.274,4.2258,4.1731,4.1455,4.1028,4.0501,4.0224,3.9948,3.9672,3.9421,3.8969,3.8417,3.7864,3.7312,3.6807,3.6531,3.6081,3.5508,3.5232,3.4575,3.3495,3.3194,3.2767,3.2282,3.224,3.2089,3.1788,3.2089,3.2215,3.219,3.1411,3.0206,2.8574,2.7971,0.0,0.0,0.0,0.0,0.0,0.0,0.0,0.0,0.0,0.0,2.1443,2.1217,2.1066,2.1117,2.2071,2.2774,2.313,2.391,2.3401,2.1214,2.2322,2.3351,2.3879,2.4431,2.4983,2.5594,2.6271,2.6959,2.7624,2.9155,3.033,3.0727,3.175,3.2318,3.2049,3.1989,3.1899,3.154,3.1511,3.1511,3.1511,3.1511,3.1511,3.1511,3.1511,3.1768,3.2492,3.3417,3.435,3.4981,3.543,3.56,3.56,3.56,3.56,3.56,3.56,3.56,3.56,3.56,3.56,3.56,3.56,3.56,3.56,3.56,3.5397,3.4607,3.4201,3.3964,4.4958,4.5083,4.5724,4.6074,4.6326,4.6326,4.6326,4.6276,0.0,0.0,0.0,4.3212,4.2791,4.2363,4.2263,4.1656,4.0827,4.0601,4.0275,3.9848,3.9747,3.9396,3.8894,3.8391,3.7814,3.7186,3.6782,3.6232,3.5658,3.5558,3.5056,3.4248,3.3997,3.3621,3.3162,3.3136,3.2842,3.239,3.2265,3.2441,3.2893,3.2265,3.1235,2.9829,2.9126,2.7584,2.5209,2.5109,2.4632,2.3597,2.3226,2.3251,2.3647,2.3301,2.3251,2.3672,2.418,2.4481,2.4582,2.5385,2.5937,2.6038,2.6892,2.6414,2.3998,2.4808,2.5586,2.6013,2.6892,2.749,2.7668,2.8557,2.9381,2.9661,3.1032,3.1951,3.2112,3.2928,3.3245,3.2796,3.2706,3.2467,3.1989,3.1899,3.1839,3.1839,3.1809,3.16,3.154,3.1511,3.1768,3.2492,3.3235,3.3878,3.452,3.5168,3.5577,3.56,3.56,3.56,3.56,3.56,3.56,3.56,3.56,3.56,3.56,3.56,3.56,3.56,3.56,3.56,3.5566,3.5148,3.4709,4.4942,4.6674,4.5285,4.5366,4.6326,4.6326,4.6326,4.6225,4.5196,4.4392,4.3765,4.3212,4.2936,4.2836,4.2414,4.2137,4.1936,4.0953,4.0475,4.0375,3.9923,3.9396,3.8868,3.8844,3.8191,3.7236,3.7111,3.6784,3.6232,3.578,3.5408,3.5157,3.4374,3.3621,3.3162,3.3136,3.3086,3.2943,3.2466,3.2265,3.2315,3.1361,3.0507,2.9804,2.88,2.762,2.6323,2.6298,2.5971,2.5285,2.5695,2.5946,2.6021,2.5921,2.5946,2.6021,2.6097,2.6348,2.6766,2.7002,2.7243,2.7695,2.7896,2.7595,2.6816,2.7268,2.767,2.7745,2.7896,2.8333,2.8995,2.8733,2.9142,3.0549,3.0926,3.1298,3.2195,3.3018,3.3514,3.3395,3.3365,3.3335,3.3155,3.3125,3.3095,3.3095,3.2647,3.2168,3.169,3.1511,3.1824,3.2492,3.3156,3.382,3.4374,3.5144,3.5509,3.56,3.56,3.56,3.56,3.56,3.56,3.56,3.56,3.56,3.56,3.56,3.56,3.56,3.56,3.56,3.56,3.5464,3.5397,4.6816,4.7345,4.634,4.6019,4.6326,4.6326,4.6326,4.625,4.5447,4.4769,4.4217,4.3664,4.3263,4.2961,4.2766,4.2489,4.2187,4.163,4.1078,4.0501,4.0249,3.9848,3.932,3.907,3.8642,3.8065,3.7462,3.7036,3.6784,3.6257,3.5855,3.5433,3.4449,3.3771,3.352,3.3219,3.3136,3.3068,3.2817,3.2667,3.2667,3.2215,3.1687,3.111,3.0583,2.9829,2.8775,2.8699,2.8448,2.7896,2.7821,2.7795,2.7795,2.7519,2.7344,2.7369,2.7645,2.7921,2.8147,2.8473,2.875,2.9001,2.9302,2.9377,2.9126,2.875,2.8549,2.8574,2.8825,2.9388,3.0303,3.0483,3.0913,3.1764,3.2681,3.3277,3.3277,3.4021,3.4442,3.4113,3.4054,3.3903,3.3544,3.3514,3.3514,3.3484,3.3185,3.2796,3.2168,3.2019,3.1986,3.2055,3.2598,3.3103,3.3547,3.4423,3.4981,3.5052,3.5362,3.5577,3.56,3.56,3.5577,3.56,3.56,3.56,3.56,3.56,3.56,3.56,3.56,3.56,3.56,3.56,3.56,4.8636,4.8058,4.7531,4.6928,4.6326,4.6326,4.6326,4.6276,4.5849,4.5347,4.4769,4.4116,4.3564,4.3162,4.3037,4.2791,4.2414,4.2263,4.1706,4.0927,4.0626,4.03,3.9848,3.932,3.9045,3.8844,3.7965,3.7437,3.7161,3.6759,3.6207,3.5483,3.4655,3.4148,3.3897,3.3495,3.3194,3.3136,3.3136,3.3136,3.3136,3.3136,3.2867,3.2441,3.2265,3.1772,3.1035,3.0859,3.0583,3.0181,2.9729,2.9439,2.9478,2.9076,2.885,2.8875,2.9252,2.9478,2.9465,2.988,3.0156,3.0156,3.0532,3.0783,3.0733,3.0005,2.9478,2.9528,2.9779,3.0356,3.1176,3.1819,3.2415,3.2939,3.424,3.478,3.448,3.5004,3.531,3.4801,3.4711,3.4502,3.4083,3.3933,3.3933,3.3814,3.3724,3.3455,3.2886,3.2736,3.2437,3.2045,3.2226,3.2629,3.2652,3.3598,3.4268,3.4399,3.4769,3.4958,3.5062,3.5075,3.5247,3.5247,3.5201,3.527,3.5487,3.543,3.543,3.5532,3.56,3.56,3.56,3.56,3.56,4.9188,4.8636,4.8058,4.7255,4.6351,4.6326,4.6326,4.6301,4.625,4.5924,4.5321,4.4267,4.379,4.3664,4.3212,4.2961,4.2891,4.2439,4.2137,4.1911,4.0978,4.0501,4.0375,3.9873,3.9397,3.8994,3.8718,3.819,3.7312,3.7136,3.6584,3.5608,3.5382,3.4831,3.4022,3.3847,3.3571,3.3136,3.3136,3.3136,3.3136,3.3136,3.3086,3.3036,3.2491,3.219,3.2039,3.1587,3.1311,3.1235,3.116,3.1135,3.1135,3.1085,3.106,3.1035,3.1085,3.116,3.1135,3.121,3.121,3.1235,3.126,3.1311,3.1336,3.1235,3.116,3.1085,3.0783,3.0941,3.178,3.1724,3.23,3.3911,3.423,3.4442,3.5195,3.5424,3.5459,3.5429,3.534,3.537,3.519,3.516,3.4981,3.4503,3.4414,3.4143,3.3544,3.3395,3.3185,3.2616,3.2562,3.2582,3.2629,3.3156,3.3649,3.3694,3.3744,3.3953,3.4028,3.4003,3.3978,3.4568,3.4268,3.4374,3.4958,3.5168,3.4901,3.5339,3.5532,3.56,3.56,3.56,3.56,4.9264,4.8761,4.851,4.7782,4.6828,4.6451,4.6326,4.6326,4.6326,4.6175,4.5849,4.4769,4.4116,4.379,4.3564,4.3288,4.2961,4.2791,4.2514,4.2187,4.1681,4.1153,4.0526,4.03,3.9898,3.9346,3.9044,3.8693,3.819,3.7513,3.6784,3.6056,3.5683,3.5257,3.4806,3.4223,3.3771,3.3571,3.3244,3.3136,3.3136,3.3136,3.3136,3.3086,3.2842,3.2717,3.2717,3.2533,3.239,3.2365,3.2064,3.1888,3.1863,3.1562,3.1386,3.1386,3.1386,3.1386,3.1386,3.1386,3.1386,3.1386,3.1687,3.1888,3.1888,3.219,3.239,3.229,3.1587,3.1675,3.3089,3.3213,3.389,3.5525,3.5701,3.5629,3.6022,3.5729,3.5489,3.5489,3.5489,3.5489,3.5489,3.5489,3.537,3.513,3.507,3.4771,3.4203,3.4083,3.3784,3.3216,3.2823,3.2362,3.2142,3.2544,3.2922,3.3082,3.3339,3.3598,3.3547,3.3598,3.3751,3.3971,3.3668,3.3643,3.4227,3.4301,3.4227,3.4816,3.5407,3.56,3.56,3.56,3.56,4.9364,4.9012,4.8837,4.8134,4.7043,4.6728,4.6451,4.6326,4.6326,4.6225,4.5999,4.5221,4.4468,4.384,4.3664,4.3338,4.3011,4.2986,4.2816,4.2439,4.2288,4.1731,4.0978,4.0626,4.0325,3.9898,3.9371,3.907,3.8818,3.7739,3.6985,3.6606,3.6056,3.5633,3.5433,3.4655,3.4274,3.4098,3.3571,3.3294,3.3294,3.3187,3.3136,3.3136,3.3136,3.3136,3.3136,3.3136,3.3136,3.3111,3.2667,3.2441,3.2441,3.2064,3.1863,3.1863,3.1863,3.1863,3.1863,3.1863,3.1863,3.1888,3.224,3.2441,3.2516,3.2842,3.3111,3.3036,3.2357,3.2607,3.39,3.4348,3.5195,3.6728,3.6786,3.6746,3.6716,3.6178,3.5818,3.5759,3.5639,3.5489,3.5489,3.5489,3.5459,3.5459,3.5459,3.537,3.4891,3.4773,3.4563,3.3873,3.3335,3.2736,3.2018,3.2029,3.2305,3.2382,3.268,3.2891,3.3024,3.3024,3.3209,3.3156,3.313,3.3339,3.3726,3.3726,3.3572,3.4227,3.484,3.527,3.5247,3.5407,3.5577,4.9565,4.9464,4.8987,4.8159,4.7154,4.7018,4.6778,4.6301,4.6301,4.5999,4.5598,4.5397,4.4794,4.379,4.3288,4.3011,4.2986,4.2986,4.2961,4.2836,4.2464,4.2187,4.2062,4.1028,4.0526,4.0375,3.9923,3.9396,3.8894,3.7789,3.7186,3.7111,3.6584,3.6056,3.5608,3.5408,3.5157,3.4675,3.4148,3.3847,3.3771,3.3345,3.3162,3.3136,3.3136,3.3136,3.3136,3.3136,3.3136,3.3136,3.3061,3.3061,3.3061,3.3011,3.2918,3.2986,3.3011,3.3011,3.2986,3.2935,3.296,3.2986,3.296,3.3018,3.3011,3.3061,3.3154,3.3154,3.3028,3.319,3.41,3.4503,3.5032,3.6165,3.6956,3.7306,3.7375,3.6836,3.6507,3.6297,3.5848,3.5519,3.5489,3.5489,3.5489,3.5489,3.5489,3.5459,3.54,3.54,3.51,3.4683,3.4294,3.3933,3.2736,3.2194,3.1775,3.1829,3.2061,3.1796,3.1625,3.1653,3.2076,3.2299,3.2132,3.2379,3.3103,3.3339,3.3182,3.3572,3.417,3.4568,3.464,3.5224,3.5385,4.959,4.954,4.8987,4.8335,4.7631,4.728,4.6828,4.6301,4.5949,4.5673,4.5372,4.4744,4.4192,4.379,4.3212,4.2986,4.2986,4.2986,4.2986,4.2961,4.2816,4.2539,4.2187,4.1785,4.1153,4.0551,4.03,3.9747,3.8969,3.8442,3.7889,3.7262,3.6985,3.6609,3.6107,3.5658,3.5382,3.5182,3.468,3.4248,3.3947,3.3696,3.3445,3.3136,3.3136,3.3136,3.3136,3.3136,3.3136,3.3136,3.3136,3.3136,3.3136,3.3136,3.3136,3.3136,3.3136,3.3136,3.3136,3.3136,3.3136,3.3136,3.3136,3.3136,3.3136,3.3111,3.3343,3.3852,3.3454,3.3949,3.5727,3.592,3.5973,3.6983,3.7676,3.8033,3.7913,3.7464,3.6926,3.6507,3.5908,3.5519,3.5579,3.5489,3.5489,3.5489,3.5489,3.5489,3.5489,3.5489,3.537,3.513,3.4741,3.4354,3.3933,3.2796,3.2108,3.2018,3.1958,3.1746,3.1539,3.1511,3.1881,3.1938,3.1597,3.1653,3.2489,3.2734,3.2625,3.2868,3.3495,3.3871,3.3946,3.452,3.4807,4.959,4.954,4.9188,4.8711,4.8159,4.7606,4.6979,4.6301,4.5723,4.5296,4.4844,4.4116,4.3714,4.3514,4.3162,4.2986,4.2986,4.2986,4.2986,4.2986,4.2986,4.2785,4.2489,4.2288,4.1681,4.0827,4.04,3.9823,3.9246,3.8994,3.8517,3.7789,3.7412,3.701,3.6631,3.6081,3.5805,3.5705,3.5232,3.4801,3.4449,3.4248,3.3897,3.3445,3.3345,3.3244,3.3136,3.3136,3.3136,3.3136,3.3136,3.3136,3.3136,3.3136,3.3136,3.3136,3.3136,3.3136,3.3136,3.3136,3.3136,3.3136,3.3136,3.3162,3.3294,3.3345,3.3751,3.4109,3.3896,3.4481,3.6056,3.6369,3.676,3.7974,3.8565,3.8721,3.8691,3.8123,3.7494,3.6926,3.6477,3.6178,3.6088,3.5938,3.5878,3.5818,3.5669,3.5489,3.5489,3.5489,3.5489,3.5459,3.513,3.4891,3.4592,3.3844,3.2766,3.2527,3.2317,3.1929,3.166,3.16,3.154,3.154,3.1511,3.1511,3.1653,3.1964,3.216,3.2299,3.2761,3.3261,3.3495,3.3853,3.4128,4.959,4.959,4.959,4.9188,4.8586,4.7983,4.723,4.625,4.5623,4.4794,4.4041,4.379,4.3463,4.3087,4.3011,4.2986,4.2986,4.2986,4.2986,4.2986,4.2986,4.2961,4.2886,4.2514,4.1907,4.1175,4.0249,3.9747,3.9597,3.9195,3.8868,3.8617,3.7789,3.7312,3.7161,3.6681,3.6405,3.6229,3.578,3.5483,3.5408,3.4931,3.4449,3.3972,3.3897,3.3696,3.3237,3.3162,3.3136,3.3136,3.3136,3.3136,3.3136,3.3136,3.3136,3.3136,3.3136,3.3136,3.3136,3.3162,3.3212,3.3237,3.3187,3.3445,3.3822,3.4029,3.4161,3.4223,3.4328,3.4538,3.5301,3.6031,3.7155,3.8907,3.9073,3.9109,3.9164,3.8781,3.8123,3.7554,3.7285,3.7345,3.7255,3.6836,3.6507,3.6387,3.6088,3.5759,3.5789,3.5759,3.5579,3.5549,3.5429,3.525,3.513,3.4893,3.3814,3.2976,3.2736,3.2467,3.2108,3.1959,3.1839,3.178,3.154,3.154,3.1511,3.1768,3.171,3.1881,3.2327,3.2598,3.2788,3.3024,3.3417,4.959,4.959,4.959,4.9038,4.8159,4.7606,4.6753,4.5673,4.4744,4.4116,4.3765,4.3413,4.3137,4.3011,4.2986,4.2986,4.2986,4.2986,4.2986,4.2986,4.2986,4.2986,4.2936,4.2811,4.2233,4.13,4.0601,4.0049,3.9722,3.9521,3.927,3.8843,3.8517,3.7939,3.7236,3.701,3.6759,3.643,3.6254,3.5931,3.5533,3.5332,3.4981,3.4525,3.443,3.4374,3.4198,3.347,3.3136,3.3136,3.3136,3.3136,3.3136,3.3136,3.3136,3.3136,3.3136,3.3136,3.3162,3.3445,3.3646,3.3696,3.3972,3.4248,3.4558,3.5179,3.5548,3.5652,3.6316,3.7152,3.7889,3.7975,3.8179,3.8277,3.8323,3.8723,3.9241,3.8841,3.8362,3.8093,3.7704,3.7434,3.7404,3.7195,3.7135,3.7105,3.6866,3.6746,3.6716,3.6357,3.6207,3.6178,3.5878,3.5609,3.5489,3.531,3.4622,3.3814,3.3455,3.3036,3.2677,3.2378,3.2258,3.2079,3.1809,3.163,3.157,3.1511,3.1511,3.1511,3.1824,3.1936,3.1908,3.2244,3.2703,4.959,4.959,4.959,4.9088,4.8209,4.7657,4.6677,4.5472,4.4518,4.389,4.3489,4.3137,4.2986,4.2986,4.2986,4.2986,4.2986,4.2986,4.2986,4.2986,4.2986,4.2986,4.2936,4.2735,4.2359,4.1681,4.1078,4.0526,4.0023,3.9973,3.9722,3.927,3.9045,3.8592,3.7789,3.7362,3.6985,3.6732,3.6505,3.6254,3.5931,3.5855,3.5579,3.5056,3.4981,3.4881,3.47,3.4048,3.3596,3.3395,3.3219,3.3136,3.3136,3.3136,3.3136,3.3162,3.3269,3.3395,3.3445,3.3922,3.4198,3.4274,3.4525,3.4826,3.5042,3.5833,3.6163,3.6752,3.7289,3.8394,3.9299,3.9398,3.916,3.9194,3.8772,3.8752,3.9241,3.905,3.8811,3.8691,3.8452,3.8212,3.8153,3.7883,3.7793,3.7764,3.7554,3.7404,3.7345,3.7075,3.6926,3.6686,3.6327,3.6088,3.5908,3.5639,3.534,3.4771,3.4262,3.3754,3.3305,3.3066,3.2886,3.2706,3.2437,3.2108,3.2019,3.163,3.1511,3.1511,3.163,3.1597,3.1741,3.1824,3.216,4.959,4.959,4.9565,4.9188,4.856,4.7958,4.6828,4.5547,4.4769,4.3966,4.3237,4.3011,4.2986,4.2986,4.2986,4.2986,4.2986,4.2986,4.2986,4.2986,4.2986,4.2986,4.2936,4.264,4.2338,4.2087,4.1605,4.1103,4.0523,4.045,4.0249,3.9747,3.9245,3.8894,3.8617,3.7764,3.7362,3.7186,3.6757,3.648,3.6455,3.638,3.6107,3.5558,3.5533,3.5378,3.5027,3.4776,3.4449,3.3972,3.347,3.3244,3.3237,3.3212,3.3237,3.3338,3.3696,3.3897,3.4048,3.4449,3.4751,3.4731,3.4901,3.5002,3.555,3.6106,3.667,3.7289,3.788,3.8638,3.975,3.9881,4.0178,4.0834,3.9958,3.9473,3.9324,3.9331,3.9254,3.9313,3.9343,3.9379,3.9164,3.8751,3.8512,3.8362,3.8033,3.7853,3.7704,3.7704,3.7494,3.7225,3.6896,3.6656,3.6507,3.6058,3.5789,3.5549,3.5011,3.4502,3.4023,3.3784,3.3365,3.3215,3.3066,3.2736,3.2497,3.2168,3.1989,3.2079,3.1989,3.169,3.1778,3.2133,3.2221,4.959,4.9565,4.9163,4.8661,4.8033,4.7154,4.6276,4.5397,4.4443,4.394,4.3514,4.3137,4.3011,4.2986,4.2986,4.2986,4.2986,4.2986,4.2986,4.2986,4.2986,4.2986,4.2986,4.2836,4.259,4.2263,4.2007,4.1656,4.1075,4.0777,4.0475,4.0275,3.9747,3.927,3.8894,3.8592,3.8191,3.7764,3.7262,3.696,3.691,3.6606,3.6355,3.6182,3.6132,3.6056,3.5881,3.5554,3.5031,3.4525,3.3972,3.3897,3.4148,3.3897,3.3822,3.4173,3.4374,3.4455,3.46,3.4981,3.5257,3.5332,3.5722,3.5981,3.62,3.7761,3.83,3.8674,3.9953,4.1394,4.1163,4.0706,4.0463,4.007,4.0216,3.9899,3.9341,3.9239,3.9403,3.9403,3.9433,3.9433,3.9343,3.926,3.908,3.905,3.8901,3.8751,3.8571,3.8332,3.8123,3.7943,3.7644,3.7345,3.7015,3.6567,3.6267,3.6148,3.5759,3.531,3.4891,3.4593,3.4023,3.3574,3.3514,3.3275,3.3215,3.3095,3.2976,3.2676,3.2766,3.2677,3.2856,3.3126,3.3066,4.959,4.954,4.9012,4.8435,4.7832,4.7004,4.6225,4.5472,4.4819,4.4217,4.3815,4.3489,4.3187,4.2986,4.2986,4.2986,4.2986,4.2986,4.2986,4.2986,4.2986,4.2986,4.2986,4.2961,4.2785,4.2615,4.2564,4.2183,4.1731,4.1354,4.1003,4.0526,4.0199,3.9772,3.9296,3.8994,3.8793,3.8316,3.7839,3.7538,3.7487,3.7033,3.6807,3.6707,3.6556,3.6405,3.6355,3.6056,3.5554,3.4806,3.4424,3.4399,3.465,3.4449,3.4399,3.468,3.4881,3.5031,3.5132,3.5579,3.5855,3.6045,3.6629,3.7052,3.7448,3.8872,3.9536,3.996,4.1587,4.2275,4.2368,4.1953,4.1602,4.141,4.1219,4.0888,3.9953,4.0189,4.0091,3.9948,3.9828,3.9679,3.9499,3.9403,3.9403,3.9373,3.9313,3.9284,3.9224,3.899,3.8751,3.8571,3.8302,3.7973,3.7674,3.7255,3.6836,3.6716,3.6537,3.6058,3.5609,3.528,3.4861,3.4352,3.4083,3.3903,3.3903,3.3754,3.3365,3.3275,3.3484,3.3574,3.3604,3.3784,3.3754,4.959,4.954,4.8937,4.8385,4.7857,4.728,4.6451,4.5698,4.5422,4.4895,4.4166,4.389,4.3514,4.3062,4.3037,4.2986,4.2986,4.2986,4.2986,4.2986,4.2986,4.2986,4.2986,4.2986,4.2936,4.2886,4.2961,4.2685,4.2283,4.2213,4.163,4.0953,4.0651,4.0249,3.9747,3.9321,3.9045,3.8868,3.8391,3.8115,3.8015,3.7563,3.7287,3.7211,3.6807,3.6531,3.6455,3.6329,3.5952,3.4951,3.4851,3.4876,3.4901,3.4856,3.4856,3.5027,3.5403,3.5583,3.5726,3.6218,3.6496,3.6564,3.7488,3.8153,3.8334,3.936,4.0532,4.1127,4.167,4.2304,4.267,4.3031,4.2892,4.2574,4.2406,4.2192,4.1743,4.1474,4.1145,4.0606,4.0516,4.0187,3.9858,3.9582,3.9649,3.9798,3.9709,3.9619,3.9493,3.9224,3.917,3.9164,3.8901,3.8542,3.8242,3.7943,3.7554,3.7285,3.7165,3.6806,3.6237,3.5878,3.5639,3.531,3.4831,3.4592,3.4592,3.4292,3.3933,3.3963,3.4262,3.4053,3.3844,3.4173,3.4292,4.959,4.9515,4.851,4.8033,4.7757,4.6903,4.6351,4.61,4.5673,4.5347,4.4945,4.4217,4.3765,4.3589,4.3212,4.2986,4.2986,4.2986,4.2986,4.2986,4.2986,4.2986,4.2986,4.2986,4.2986,4.2986,4.2986,4.2911,4.2735,4.2439,4.2112,4.1785,4.0978,4.045,4.0249,3.9772,3.9521,3.9421,3.8969,3.8693,3.8592,3.814,3.7814,3.7739,3.7262,3.6832,3.648,3.6405,3.6304,3.5981,3.5629,3.5529,3.5755,3.5554,3.5554,3.583,3.6031,3.6157,3.6323,3.6954,3.7335,3.6803,3.8289,3.9094,3.8334,4.0118,4.1211,4.1782,4.2386,4.2589,4.2316,4.286,4.286,4.253,4.2723,4.303,4.2791,4.2013,4.1474,4.1235,4.1175,4.1115,4.0935,4.0816,4.0666,4.0307,4.0098,3.9948,3.9768,3.9582,3.9523,3.9612,3.929,3.896,3.8811,3.8542,3.8242,3.8003,3.7883,3.7584,3.7015,3.6596,3.6417,3.5968,3.54,3.528,3.528,3.513,3.4831,3.4921,3.4951,3.4801,3.4681,3.4831,3.4801,4.959,4.9464,4.836,4.7908,4.7732,4.6803,4.6326,4.6276,4.5999,4.5723,4.5397,4.4794,4.4317,4.379,4.3489,4.3237,4.3011,4.2986,4.2986,4.2986,4.2986,4.2986,4.2986,4.2986,4.2986,4.2986,4.2986,4.2986,4.2886,4.274,4.2464,4.2213,4.153,4.1003,4.0576,4.0224,3.9923,3.9672,3.9421,3.9245,3.917,3.8718,3.8216,3.7965,3.7487,3.701,3.6832,3.6531,3.643,3.6355,3.6107,3.6031,3.6304,3.6081,3.6107,3.6329,3.6405,3.6405,3.6662,3.7356,3.7815,3.7289,3.9332,3.9988,4.0204,4.142,4.2263,4.2508,4.286,4.2981,4.2508,4.279,4.286,4.2739,4.29,4.329,4.317,4.2701,4.2132,4.1953,4.1871,4.1662,4.1572,4.1594,4.1422,4.0905,4.0846,4.0726,4.0576,4.0367,4.0038,3.9918,3.9589,3.9349,3.929,3.911,3.8871,3.8721,3.8691,3.8332,3.7853,3.7524,3.7225,3.6656,3.6118,3.5968,3.5938,3.5789,3.5609,3.54,3.534,3.5459,3.5459,3.534,3.528,4.9565,4.9389,4.8335,4.7857,4.7631,4.6753,4.6326,4.6326,4.6326,4.6024,4.5648,4.5547,4.4895,4.4217,4.384,4.3489,4.3112,4.2986,4.2986,4.2986,4.2986,4.2986,4.2986,4.2986,4.2986,4.2986,4.2986,4.2986,4.2986,4.2961,4.271,4.2389,4.2213,4.1656,4.0953,4.0651,4.04,3.9973,3.9848,3.9697,3.9597,3.917,3.8743,3.8241,3.7864,3.7513,3.7287,3.696,3.6681,3.6508,3.6531,3.648,3.6405,3.6405,3.6405,3.6405,3.6405,3.6405,3.6615,3.7356,3.8062,3.8198,4.0247,4.142,4.1711,4.2345,4.2981,4.317,4.329,4.329,4.329,4.329,4.329,4.325,4.325,4.329,4.329,4.329,4.297,4.2671,4.2491,4.2342,4.2102,4.2013,4.1743,4.1602,4.1572,4.1444,4.1265,4.1055,4.0726,4.0546,4.0307,3.9948,3.9828,3.9439,3.923,3.929,3.932,3.902,3.8661,3.8422,3.8063,3.7375,3.6926,3.6746,3.6567,3.6417,3.6178,3.5818,3.5908,3.6207,3.6088,3.5818,3.5848,4.9314,4.8862,4.8184,4.7657,4.7205,4.6577,4.6326,4.6326,4.6326,4.6276,4.6125,4.5698,4.5422,4.497,4.4141,4.3514,4.3112,4.2986,4.2986,4.2986,4.2986,4.2986,4.2986,4.2986,4.2986,4.2986,4.2986,4.2986,4.2986,4.2961,4.2886,4.2791,4.2464,4.2037,4.1731,4.1455,4.0927,4.045,4.0325,4.0124,3.9798,3.9546,3.9245,3.8768,3.8492,3.8241,3.7939,3.7764,3.7538,3.7111,3.7061,3.6784,3.6581,3.648,3.6455,3.6405,3.6405,3.6405,3.6546,3.7494,3.8017,3.8577,4.0376,4.1545,4.1947,4.2589,4.321,4.329,4.329,4.329,4.329,4.329,4.329,4.329,4.329,4.329,4.329,4.329,4.326,4.306,4.306,4.306,4.2761,4.2551,4.2432,4.2282,4.2192,4.2013,4.1743,4.1564,4.1332,4.1205,4.1175,4.0756,4.0397,3.9858,3.9529,3.9649,3.9679,3.9619,3.9349,3.929,3.8871,3.8153,3.7614,3.7315,3.7165,3.7015,3.6896,3.6656,3.6836,3.7015,3.6776,3.6567,3.6746,4.9012,4.8686,4.7857,4.7355,4.6993,4.6552,4.6326,4.6326,4.6326,4.6326,4.6225,4.6024,4.5748,4.5321,4.4644,4.379,4.3162,4.2986,4.2986,4.2986,4.2986,4.2986,4.2986,4.2986,4.2986,4.2986,4.2986,4.2986,4.2986,4.2986,4.2986,4.2911,4.274,4.2514,4.2238,4.1882,4.1455,4.1028,4.0676,4.0425,4.0099,3.9898,3.9521,3.9372,3.907,3.8718,3.8492,3.809,3.7889,3.7663,3.7613,3.7312,3.7008,3.6807,3.6707,3.6553,3.6477,3.6405,3.6756,3.7906,3.905,3.9316,4.1127,4.2316,4.2589,4.2981,4.329,4.329,4.329,4.329,4.329,4.329,4.329,4.329,4.329,4.329,4.329,4.329,4.329,4.329,4.323,4.32,4.323,4.308,4.305,4.3,4.2851,4.2581,4.2252,4.2073,4.1931,4.1841,4.1713,4.1324,4.0935,4.0546,4.0098,4.0157,4.0157,4.0098,4.0008,3.9948,3.9499,3.8841,3.8392,3.8063,3.7734,3.7614,3.7524,3.7464,3.7404,3.7404,3.7375,3.7375,3.7554,4.8661,4.836,4.7506,4.7054,4.6903,4.6502,4.6326,4.6326,4.6326,4.6326,4.6326,4.6276,4.605,4.5573,4.4869,4.4041,4.3037,4.2986,4.2986,4.2986,4.2986,4.2986,4.2986,4.2986,4.2986,4.2986,4.2986,4.2986,4.2986,4.2986,4.2986,4.2961,4.2961,4.2841,4.2464,4.2414,4.1982,4.153,4.1103,4.0827,4.045,3.9998,3.9878,4.0058,3.9626,3.9524,3.9548,3.9687,3.8962,3.8562,3.8412,3.838,3.7825,3.7531,3.7281,3.7115,3.6908,3.6687,3.6943,3.8541,3.9711,3.9798,4.174,4.2739,4.325,4.321,4.329,4.329,4.329,4.329,4.329,4.329,4.329,4.329,4.329,4.329,4.329,4.329,4.329,4.329,4.329,4.329,4.329,4.329,4.32,4.317,4.309,4.312,4.2821,4.2701,4.2521,4.2372,4.2162,4.1841,4.1542,4.1294,4.0965,4.0876,4.0876,4.0816,4.0696,4.0606,4.0068,3.9619,3.932,3.896,3.8571,3.8272,3.8302,3.8212,3.7943,3.7913,3.8147,3.8177,3.8237,4.8209,4.7305,4.7179,4.6853,4.6451,4.6351,4.6326,4.6326,4.6326,4.6326,4.6326,4.6301,4.625,4.5899,4.5045,4.4016,4.3288,4.2986,4.2986,4.2986,4.2986,4.2986,4.2986,4.2986,4.2986,4.2986,4.2986,4.2986,4.2986,4.2986,4.2986,4.2986,4.2986,4.2967,4.2785,4.2816,4.2665,4.2213,4.2037,4.148,4.0626,4.0049,4.0364,4.0995,4.1191,4.1136,4.1258,4.1634,4.1377,3.9344,3.9985,4.0158,3.9542,3.8452,3.8669,3.8808,3.8542,3.752,3.718,3.8765,4.0102,4.0318,4.1378,4.2263,4.2981,4.329,4.329,4.329,4.329,4.329,4.329,4.329,4.329,4.329,4.329,4.329,4.329,4.329,4.329,4.329,4.329,4.329,4.329,4.329,4.329,4.329,4.329,4.329,4.326,4.312,4.303,4.2851,4.2701,4.2342,4.2222,4.1983,4.1863,4.1683,4.1654,4.1564,4.1422,4.1242,4.0876,4.0457,4.0157,3.9888,3.9529,3.932,3.92,3.896,3.8626,3.8835,3.9164,3.9104,3.8835,4.7556,4.7043,4.6803,4.6527,4.6326,4.6326,4.6326,4.6326,4.6326,4.6326,4.6326,4.6326,4.615,4.5748,4.4945,4.4217,4.3514,4.3137,4.2986,4.2986,4.2986,4.2986,4.2986,4.2986,4.2986,4.2986,4.2986,4.2986,4.2986,4.2986,4.2986,4.2986,4.2986,4.2986,4.2986,4.2986,4.2861,4.264,4.2338,4.1756,4.1053,4.0528,4.0772,4.1966,4.1776,4.2088,4.2689,4.3026,4.304,4.1612,4.2166,4.2039,4.1578,4.1012,4.0857,4.0819,4.1211,4.0142,3.8569,3.9931,4.0645,4.1113,4.1852,4.282,4.325,4.329,4.329,4.329,4.329,4.329,4.329,4.329,4.329,4.329,4.329,4.329,4.329,4.329,4.329,4.329,4.329,4.329,4.329,4.329,4.329,4.329,4.329,4.329,4.329,4.323,4.32,4.32,4.308,4.294,4.288,4.2722,4.2731,4.2611,4.2641,4.2462,4.2111,4.1841,4.1534,4.1265,4.0935,4.0666,4.0427,4.0008,3.9559,3.9469,3.9373,3.9463,3.9559,3.9343,3.9164,4.6928,4.6817,4.6476,4.6326,4.6326,4.6326,4.6326,4.6326,4.6326,4.6326,4.6326,4.6301,4.5999,4.5522,4.5045,4.4493,4.3765,4.3363,4.3112,4.3037,4.2986,4.2986,4.2986,4.2986,4.2986,4.2986,4.2986,4.2986,4.2986,4.2986,4.2986,4.2986,4.2986,4.2986,4.2986,4.2986,4.2936,4.2886,4.2464,4.1957,4.1505,4.1003,4.1673,4.2332,4.2636,4.2803,4.3815,4.4489,4.4535,4.3381,4.3704,4.3668,4.3333,4.2832,4.2768,4.2821,4.3186,4.2564,4.1463,4.182,4.2247,4.2507,4.2813,4.3538,4.3519,4.3469,4.329,4.329,4.329,4.329,4.329,4.329,4.329,4.329,4.329,4.329,4.329,4.329,4.329,4.329,4.329,4.329,4.329,4.329,4.329,4.329,4.329,4.329,4.329,4.329,4.329,4.329,4.326,4.314,4.317,4.32,4.329,4.329,4.329,4.317,4.2731,4.2491,4.2282,4.2013,4.1654,4.1362,4.1025,4.0427,3.9918,4.0098,4.0157,3.9828,3.9738,3.9589,3.9433,4.6376,4.6351,4.6326,4.6326,4.6326,4.6326,4.6326,4.6326,4.6326,4.6326,4.6326,4.6276,4.6024,4.5598,4.5347,4.4819,4.3865,4.379,4.3463,4.3162,4.2986,4.2986,4.2986,4.2986,4.2986,4.2986,4.2986,4.2986,4.2986,4.2986,4.2986,4.2986,4.2986,4.2986,4.2986,4.2986,4.2986,4.2886,4.2564,4.2313,4.1982,4.1771,4.2242,4.3724,4.4193,4.4494,4.5264,4.6209,4.5943,4.4191,4.484,4.5252,4.496,4.4355,4.4287,4.4719,4.4671,4.4279,4.3991,4.3978,4.4187,4.3926,4.3885,4.4257,4.4227,4.3688,4.3409,4.3499,4.3589,4.3439,4.3379,4.329,4.329,4.329,4.329,4.329,4.329,4.329,4.329,4.329,4.329,4.329,4.329,4.329,4.329,4.329,4.329,4.329,4.329,4.329,4.329,4.329,4.329,4.326,4.326,4.329,4.329,4.329,4.329,4.329,4.314,4.303,4.2821,4.2611,4.2252,4.1923,4.1722,4.1414,4.1205,4.1085,4.0905,4.0516,4.0247,4.0157,3.9918,4.6326,4.6326,4.6326,4.6326,4.6326,4.6326,4.6326,4.6326,4.6326,4.6326,4.6326,4.6301,4.62,4.5949,4.5598,4.5296,4.4744,4.4041,4.374,4.3413,4.3212,4.3011,4.2986,4.2986,4.2986,4.2986,4.2986,4.2986,4.2986,4.2986,4.2986,4.2986,4.3011,4.2986,4.2986,4.3037,4.3011,4.2961,4.2811,4.266,4.2534,4.2297,4.2994,4.5148,4.5001,4.5798,4.6958,4.7599,4.6948,4.6328,4.6329,4.6388,4.6462,4.5824,4.5913,4.6344,4.6065,4.605,4.5814,4.5667,4.5054,4.4911,4.4828,4.4915,4.4915,4.4616,4.4556,4.4466,4.4097,4.3917,4.3888,4.3559,4.329,4.329,4.3349,4.3439,4.3499,4.3589,4.3469,4.3529,4.3409,4.329,4.329,4.329,4.329,4.329,4.329,4.329,4.329,4.329,4.329,4.329,4.329,4.329,4.329,4.329,4.329,4.329,4.329,4.329,4.329,4.329,4.308,4.297,4.291,4.2671,4.2551,4.2581,4.2342,4.1803,4.1414,4.1123,4.0876,4.0666,4.0516,4.6326,4.6326,4.6326,4.6326,4.6326,4.6326,4.6326,4.6326,4.6326,4.6326,4.6326,4.6326,4.6326,4.6175,4.5949,4.5598,4.5271,4.4694,4.4166,4.379,4.3438,4.3137,4.3037,4.2986,4.2986,4.2986,4.2986,4.2986,4.2986,4.2986,4.2986,4.3037,4.3137,4.3237,4.3263,4.3212,4.3212,4.3212,4.3037,4.2986,4.2886,4.319,4.3806,4.5903,4.6089,4.7024,4.7922,4.8312,4.7983,4.7493,4.7328,4.7222,4.7266,4.7309,4.7309,4.7309,4.7309,4.7309,4.701,4.6591,4.5903,4.5926,4.5639,4.5633,4.5574,4.5454,4.5095,4.5125,4.4825,4.4616,4.4586,4.4287,4.4137,4.4257,4.4227,4.4257,4.4227,4.4257,4.3988,4.3798,4.3678,4.3618,4.3319,4.3349,4.3349,4.3349,4.329,4.329,4.329,4.329,4.329,4.329,4.329,4.329,4.329,4.329,4.329,4.329,4.329,4.329,4.329,4.329,4.329,4.317,4.314,4.326,4.317,4.2961,4.2641,4.2222,4.1923,4.1722,4.1272,4.1055,4.1145,4.6326,4.6326,4.6326,4.6326,4.6326,4.6326,4.6326,4.6326,4.6326,4.6326,4.6326,4.6326,4.6326,4.6301,4.6175,4.5974,4.5648,4.5372,4.4869,4.4166,4.374,4.3438,4.3187,4.3037,4.2986,4.2986,4.2986,4.2986,4.2986,4.2986,4.2986,4.3442,4.3832,4.3935,4.3847,4.379,4.379,4.3689,4.3237,4.3112,4.3215,4.3968,4.5076,4.6177,4.7313,4.8304,4.8921,4.8865,4.8536,4.8087,4.7668,4.7459,4.7309,4.7309,4.7309,4.7309,4.7309,4.7309,4.7279,4.7219,4.707,4.692,4.6471,4.6322,4.6172,4.5843,4.5574,4.5783,4.5394,4.5274,4.5244,4.5155,4.5035,4.4945,4.4885,4.4855,4.4825,4.4796,4.4526,4.4347,4.4257,4.4107,4.3648,4.3379,4.3409,4.3379,4.3319,4.329,4.329,4.329,4.329,4.329,4.329,4.329,4.329,4.329,4.329,4.329,4.329,4.329,4.329,4.329,4.329,4.329,4.329,4.329,4.329,4.326,4.2931,4.2671,4.2521,4.2261,4.1811,4.1602,4.1803,4.6326,4.6326,4.6326,4.6326,4.6326,4.6326,4.6326,4.6326,4.6326,4.6326,4.6326,4.6326,4.6326,4.6326,4.6301,4.62,4.5999,4.5573,4.507,4.4895,4.4242,4.3765,4.3463,4.3187,4.3011,4.2986,4.2986,4.3042,4.2986,4.3129,4.3713,4.4252,4.5145,4.5155,4.4604,4.4317,4.4217,4.384,4.3564,4.3419,4.3235,4.4372,4.5607,4.6786,4.8169,4.9201,4.9805,4.9508,4.9134,4.8536,4.8057,4.7728,4.7429,4.7339,4.7309,4.7309,4.7309,4.7309,4.7309,4.7279,4.7309,4.7219,4.71,4.692,4.689,4.68,4.6651,4.6441,4.6112,4.6022,4.5963,4.5484,4.5274,4.5214,4.5155,4.5155,4.5155,4.5155,4.5065,4.5005,4.4945,4.4855,4.4556,4.4107,4.3988,4.3738,4.3678,4.3409,4.3319,4.3319,4.329,4.329,4.329,4.329,4.329,4.329,4.329,4.329,4.329,4.329,4.329,4.329,4.329,4.329,4.329,4.329,4.329,4.329,4.329,4.314,4.294,4.2851,4.2611,4.2581,4.2791,4.6326,4.6326,4.6326,4.6326,4.6326,4.6326,4.6326,4.6326,4.6326,4.6326,4.6326,4.6326,4.6326,4.6326,4.6326,4.6326,4.6276,4.5974,4.5547,4.5447,4.4819,4.4242,4.379,4.3438,4.3212,4.3062,4.3098,4.3129,4.3823,4.3768,4.4611,4.5954,4.6973,4.7096,4.6413,4.5776,4.4794,4.4418,4.4141,4.3928,4.4322,4.5314,4.6474,4.783,4.9075,5.0147,5.0322,5.0226,4.9837,4.9075,4.8536,4.8147,4.7728,4.7459,4.7369,4.7309,4.7309,4.7309,4.7309,4.7309,4.7309,4.7279,4.7309,4.7309,4.7309,4.7189,4.7189,4.707,4.683,4.6711,4.6531,4.5992,4.5933,4.5903,4.5903,4.5933,4.5963,4.5992,4.5843,4.5783,4.5633,4.5574,4.5394,4.5005,4.4646,4.4377,4.4067,4.3738,4.3409,4.3319,4.3319,4.329,4.329,4.329,4.329,4.329,4.329,4.329,4.329,4.329,4.329,4.329,4.329,4.329,4.329,4.329,4.329,4.329,4.329,4.329,4.323,4.32,4.329,4.329,4.329,4.6326,4.6326,4.6326,4.6326,4.6326,4.6326,4.6326,4.6326,4.6326,4.6326,4.6326,4.6326,4.6326,4.6326,4.6326,4.6326,4.6301,4.625,4.5974,4.5648,4.5296,4.4694,4.4141,4.3765,4.3388,4.3112,4.3129,4.3602,4.4779,4.5502,4.6431,4.7585,4.8507,4.879,4.8375,4.749,4.6199,4.5668,4.5525,4.5098,4.5155,4.6592,4.7568,4.8724,4.9844,5.0716,5.0883,5.0584,5.0285,4.9687,4.9105,4.8596,4.8147,4.7698,4.7489,4.7369,4.7399,4.7429,4.7309,4.7309,4.7309,4.7309,4.7309,4.7309,4.7309,4.7309,4.7309,4.7309,4.713,4.7189,4.713,4.707,4.704,4.701,4.704,4.704,4.707,4.698,4.677,4.6591,4.6411,4.6202,4.5843,4.5514,4.5304,4.5125,4.4796,4.4347,4.3958,4.3349,4.3319,4.329,4.329,4.329,4.329,4.3319,4.329,4.329,4.329,4.329,4.329,4.329,4.329,4.329,4.329,4.329,4.329,4.329,4.329,4.329,4.329,4.329,4.329,4.329,4.329,4.6326,4.6326,4.6326,4.6326,4.6326,4.6326,4.6326,4.6326,4.6326,4.6326,4.6326,4.6326,4.6326,4.6326,4.6326,4.6326,4.6326,4.6301,4.6225,4.5999,4.5698,4.5045,4.4518,4.4016,4.3539,4.3218,4.3209,4.3852,4.5289,4.6578,4.7882,4.8664,4.9884,5.0379,5.0213,4.9605,4.8489,4.7573,4.7522,4.6684,4.643,4.7736,4.8359,4.8987,5.0268,5.1041,5.1109,5.102,5.0674,5.0106,4.9867,4.9523,4.9,4.882,4.8596,4.8057,4.7967,4.7848,4.7429,4.7339,4.7399,4.7459,4.7429,4.7309,4.7309,4.7369,4.7369,4.7309,4.7309,4.7309,4.7309,4.7309,4.7309,4.7309,4.7309,4.7309,4.7309,4.7249,4.707,4.704,4.686,4.677,4.6411,4.6172,4.5992,4.5843,4.5544,4.5035,4.4556,4.3977,4.3678,4.3678,4.3469,4.3499,4.3379,4.3349,4.3319,4.329,4.329,4.329,4.329,4.329,4.329,4.329,4.329,4.329,4.329,4.329,4.329,4.329,4.329,4.329,4.329,4.329,4.3409,4.61,4.6301,4.6326,4.6326,4.6326,4.6326,4.6326,4.6326,4.6326,4.6326,4.6326,4.6326,4.6326,4.6326,4.6326,4.6326,4.6326,4.6326,4.6276,4.6175,4.5949,4.5497,4.4945,4.4367,4.389,4.3551,4.3815,4.4698,4.6161,4.8396,4.9985,5.0414,5.1395,5.1793,5.2115,5.2223,5.1501,5.0462,4.9584,4.8627,4.8648,4.9042,4.9048,4.9465,5.081,5.0994,5.1229,5.1229,5.096,5.0524,5.0435,5.0046,4.9583,4.9404,4.9209,4.8686,4.87,4.855,4.8267,4.8177,4.8117,4.8057,4.8027,4.8147,4.7878,4.7758,4.7519,4.7309,4.7309,4.7309,4.7309,4.7309,4.7309,4.7309,4.7309,4.7309,4.7309,4.7309,4.7279,4.7279,4.7279,4.7249,4.707,4.683,4.6681,4.6531,4.6262,4.5813,4.5364,4.4885,4.4586,4.4466,4.4107,4.3768,4.3648,4.3559,4.3469,4.3439,4.329,4.329,4.3319,4.3319,4.3349,4.3319,4.329,4.329,4.329,4.329,4.329,4.329,4.329,4.329,4.329,4.329,4.3469,4.5723,4.6225,4.6301,4.6326,4.6326,4.6326,4.6326,4.6326,4.6326,4.6326,4.6326,4.6326,4.6326,4.6326,4.6326,4.6326,4.6326,4.6326,4.6326,4.6326,4.6225,4.5824,4.5196,4.4844,4.4091,4.4122,4.46,4.5502,4.7554,4.9542,5.1149,5.2187,5.27,5.307,5.36,5.4192,5.3639,5.2761,5.1648,5.0744,5.0881,5.0947,5.0895,5.1431,5.1429,5.1229,5.1229,5.1229,5.1229,5.099,5.0704,5.0345,5.0152,4.9912,4.9613,4.9419,4.9344,4.9209,4.906,4.897,4.906,4.912,4.9269,4.909,4.8626,4.8057,4.7698,4.7519,4.7519,4.7369,4.7309,4.7309,4.7309,4.7309,4.7309,4.7309,4.7309,4.7309,4.7309,4.7309,4.7309,4.7309,4.7279,4.701,4.698,4.701,4.689,4.6471,4.6202,4.5723,4.5364,4.5185,4.4736,4.4377,4.4317,4.4167,4.3838,4.3648,4.3589,4.3708,4.4007,4.3768,4.3379,4.3349,4.329,4.329,4.329,4.3319,4.3319,4.329,4.329,4.329,4.329,4.329,4.3559,4.5171,4.5723,4.615,4.6326,4.6326,4.6326,4.6326,4.6326,4.6326,4.6326,4.6326,4.6326,4.6326,4.6326,4.6326,4.6326,4.6326,4.6326,4.6326,4.6326,4.6326,4.5899,4.5045,4.4794,4.4141,4.3838,4.4533,4.6397,4.8638,5.0375,5.1558,5.2217,5.2875,5.3533,5.4192,5.485,5.4815,5.4326,5.384,5.223,5.1169,5.1889,5.2288,5.159,5.0903,5.1195,5.1259,5.1229,5.1229,5.1139,5.1079,5.0943,5.0913,5.081,5.0481,5.0122,5.0002,4.9823,4.9583,4.9539,4.9539,4.9449,4.9419,4.9329,4.903,4.8386,4.8027,4.7908,4.7728,4.7549,4.7429,4.7429,4.7429,4.7429,4.7369,4.7369,4.7339,4.7309,4.7309,4.7309,4.7309,4.7309,4.7309,4.7309,4.7309,4.7279,4.7219,4.704,4.698,4.6651,4.6052,4.5753,4.5334,4.5035,4.4975,4.4796,4.4466,4.4496,4.4556,4.4676,4.4736,4.4407,4.4018,4.3499,4.329,4.3559,4.3618,4.3349,4.3319,4.3409,4.329,4.329,4.329,4.329,4.3648,4.4593,4.5146,4.5723,4.61,4.6276,4.6326,4.6326,4.6326,4.6326,4.6326,4.6326,4.6326,4.6326,4.6326,4.6326,4.6326,4.6326,4.6326,4.6326,4.6326,4.625,4.5999,4.5447,4.4819,4.4418,4.4167,4.5448,4.7299,4.9727,5.0662,5.1558,5.2187,5.2845,5.3503,5.4192,5.479,5.5209,5.5179,5.5209,5.4016,5.1986,5.2864,5.3049,5.1974,5.1587,5.1648,5.1259,5.1229,5.1229,5.1229,5.1199,5.1169,5.1169,5.1109,5.099,5.0734,5.0631,5.0511,5.0212,5.0062,5.0032,5.0002,5.0092,5.0272,5.0182,4.9643,4.9015,4.8835,4.867,4.8416,4.8416,4.8416,4.8416,4.8416,4.8027,4.7758,4.7519,4.7309,4.7309,4.7309,4.7309,4.7309,4.7309,4.7309,4.7309,4.7309,4.7279,4.7279,4.7309,4.7309,4.677,4.6381,4.5963,4.5753,4.5723,4.5424,4.5065,4.5214,4.5454,4.5214,4.5065,4.4915,4.4616,4.4257,4.4107,4.4317,4.4257,4.3928,4.3778,4.3858,4.3589,4.329,4.3349,4.3469,4.3678,4.4016,4.4568,4.5221,4.5748,4.6175,4.6276,4.6326,4.6326,4.6326,4.6326,4.6326,4.6326,4.6326,4.6326,4.6326,4.6326,4.6326,4.6326,4.6326,4.6326,4.6326,4.6024,4.5598,4.5095,4.4871,4.5278,4.6408,4.8503,5.0917,5.1259,5.1528,5.2157,5.2815,5.3473,5.4102,5.476,5.5209,5.5209,5.5209,5.5209,5.4809,5.4581,5.3794,5.3215,5.2665,5.2007,5.1558,5.1349,5.1379,5.1229,5.1229,5.1229,5.1229,5.1229,5.1229,5.1079,5.105,5.105,5.102,5.096,5.102,5.1109,5.1229,5.1139,5.099,5.0661,5.0032,4.9733,4.9539,4.9269,4.9269,4.9269,4.9269,4.9179,4.8626,4.8237,4.7908,4.7608,4.7578,4.7578,4.7489,4.7489,4.7369,4.7369,4.7339,4.7339,4.7339,4.7309,4.7309,4.7309,4.707,4.686,4.6621,4.6471,4.6411,4.6172,4.5843,4.5933,4.6082,4.5723,4.5454,4.5454,4.5364,4.5125,4.5065,4.5005,4.4915,4.4646,4.4526,4.4436,4.4317,4.4107,4.4047,4.4077,4.3828,4.3463,4.4041,4.5045,4.5547,4.5723,4.6125,4.6326,4.6326,4.6326,4.6326,4.6326,4.6326,4.6326,4.6326,4.6326,4.6326,4.6326,4.6326,4.6326,4.6326,4.6326,4.6024,4.5598,4.5104,4.5593,4.625,4.7136,4.8674,5.0822,5.1229,5.1259,5.1528,5.2725,5.3294,5.3533,5.4311,5.5209,5.5209,5.5209,5.5179,5.5029,5.467,5.4281,5.3773,5.3354,5.2695,5.2217,5.2037,5.1678,5.1409,5.1229,5.1229,5.1229,5.1229,5.1229,5.1229,5.1229,5.1229,5.1229,5.1229,5.1229,5.1229,5.1229,5.1229,5.1139,5.1109,5.069,5.0541,5.0212,4.9659,4.9494,4.9539,4.9509,4.9449,4.9075,4.8955,4.8745,4.8626,4.8566,4.8356,4.8117,4.7908,4.7578,4.7549,4.7519,4.7519,4.7459,4.7429,4.7309,4.7309,4.7339,4.7249,4.713,4.7189,4.71,4.698,4.6741,4.683,4.6741,4.6411,4.6202,4.61,4.6022,4.5843,4.5574,4.5394,4.5304,4.5394,4.5214,4.5125,4.5125,4.5005,4.4855,4.4706,4.4496]}]]